ftp/pub/palmer/observations_modified/2017/November/AR171130_BASE.txt
Download
Sample DateTime Unit Id WS Avg 2min WD Avg 2min WGS 10min WGD 10min Air Temp Rel Humidity Dew Point Pyranometer Quantum Air Pressure Snow Level Rainfall PW Current Visibility CBase 1 CBase 2 CBase 3 Vert Vis
2017/11/30 00:00:00 BASE 11.08 37 14.25 35 1.9 74 -2.3 31 78 980.5 NA 0.0000 9999 4790 0 0 0
2017/11/30 00:01:00 BASE 10.96 40 14.25 35 1.9 74 -2.2 33 81 980.4 NA 0.0000 9999 4860 5580 0 0
2017/11/30 00:02:00 BASE 11.26 41 14.20 34 1.9 75 -2.1 35 85 980.4 NA 0.0000 9999 5020 0 0 0
2017/11/30 00:03:00 BASE 11.19 43 14.20 34 1.9 75 -2.1 36 86 980.4 NA 0.0000 9999 4790 0 0 0
2017/11/30 00:04:00 BASE 10.68 43 13.63 34 2.0 75 -2.0 35 84 980.4 NA 0.0000 9999 4760 5250 0 0
2017/11/30 00:05:00 BASE 10.12 44 13.58 36 2.0 75 -2.0 33 80 980.4 NA 0.0000 9999 4760 0 0 0
2017/11/30 00:06:00 BASE 9.80 46 13.17 35 2.0 75 -1.9 31 76 980.4 NA 0.0000 9999 4820 0 0 0
2017/11/30 00:07:00 BASE 9.51 49 13.17 35 2.1 75 -1.9 30 73 980.4 NA 0.0000 9999 4590 0 0 0
2017/11/30 00:08:00 BASE 9.32 52 12.45 41 2.1 75 -1.8 28 70 980.4 NA 0.0000 9999 4530 0 0 0
2017/11/30 00:09:00 BASE 8.57 55 12.45 41 2.2 75 -1.8 28 68 980.4 NA 0.0000 9999 4460 0 0 0
2017/11/30 00:10:00 BASE 8.12 57 12.45 41 2.2 75 -1.8 27 65 980.4 NA 0.0000 9999 4490 0 0 0
2017/11/30 00:11:00 BASE 7.90 60 12.45 41 2.2 75 -1.7 24 60 980.4 NA 0.0000 9999 4460 0 0 0
2017/11/30 00:12:00 BASE 7.54 65 11.94 43 2.3 75 -1.7 22 55 980.4 NA 0.0000 9999 4530 0 0 0
2017/11/30 00:13:00 BASE 7.41 71 11.73 44 2.3 75 -1.6 19 50 980.4 NA 0.0000 9999 4360 0 0 0
2017/11/30 00:14:00 BASE 7.40 78 11.73 44 2.3 76 -1.6 18 47 980.4 NA 0.0000 9999 4300 0 0 0
2017/11/30 00:15:00 BASE 7.16 85 10.55 51 2.3 76 -1.5 18 46 980.4 NA 0.0000 9999 4330 0 0 0
2017/11/30 00:16:00 BASE 6.56 92 10.55 51 2.3 76 -1.4 17 45 980.3 NA 0.0000 9999 4360 0 0 0
2017/11/30 00:17:00 BASE 6.10 99 9.62 49 2.4 76 -1.4 17 44 980.3 NA 0.0000 9999 4000 0 0 0
2017/11/30 00:18:00 BASE 5.54 103 9.31 44 2.4 76 -1.4 16 42 980.4 NA 0.0000 9999 4040 0 0 0
2017/11/30 00:19:00 BASE 5.56 106 9.31 44 2.4 76 -1.4 14 38 980.4 NA 0.0000 9999 4040 0 0 0
2017/11/30 00:20:00 BASE 6.09 111 8.64 79 2.4 76 -1.4 13 36 980.4 NA 0.0000 9999 4000 0 0 0
2017/11/30 00:21:00 BASE 5.66 117 8.64 79 2.4 75 -1.5 13 34 980.4 NA 0.0000 9999 4000 0 0 0
2017/11/30 00:22:00 BASE 5.57 114 8.64 79 2.3 75 -1.6 12 33 980.3 NA 0.0000 9999 3840 0 0 0
2017/11/30 00:23:00 BASE 5.65 105 8.64 79 2.3 75 -1.6 11 32 980.5 NA 0.0000 9999 4000 0 0 0
2017/11/30 00:24:00 BASE 5.41 93 7.77 92 2.2 76 -1.6 11 31 980.6 NA 0.0000 9999 3810 0 0 0
2017/11/30 00:25:00 BASE 5.44 90 7.77 92 2.2 76 -1.7 11 30 980.5 NA 0.0000 9999 4130 0 0 0
2017/11/30 00:26:00 BASE 6.06 94 8.28 96 2.2 76 -1.7 11 30 980.5 NA 0.0000 9999 4200 0 0 0
2017/11/30 00:27:00 BASE 7.12 89 8.39 87 2.1 75 -1.8 11 30 980.6 NA 0.0000 9999 3970 0 0 0
2017/11/30 00:28:00 BASE 7.73 94 8.85 90 2.0 75 -1.9 11 31 980.6 NA 0.0000 9999 4070 0 0 0
2017/11/30 00:29:00 BASE 7.25 106 8.85 90 1.9 75 -2.0 12 32 980.6 NA 0.0000 9999 4430 0 0 0
2017/11/30 00:30:00 BASE 6.13 110 8.85 90 1.8 76 -2.0 12 32 980.7 NA 0.0000 9999 4400 0 0 0
2017/11/30 00:31:00 BASE 4.85 118 8.85 90 1.8 76 -2.1 12 33 980.7 NA 0.0000 9999 4130 0 0 0
2017/11/30 00:32:00 BASE 3.33 114 8.85 90 1.7 76 -2.1 12 33 980.8 NA 0.0000 9999 4070 0 0 0
2017/11/30 00:33:00 BASE 3.16 87 8.85 90 1.7 75 -2.2 12 33 980.9 NA 0.0000 9999 3510 0 0 0
2017/11/30 00:34:00 BASE 4.18 80 8.85 90 1.7 75 -2.2 12 33 980.9 NA 0.0000 9999 3810 0 0 0
2017/11/30 00:35:00 BASE 4.30 100 8.85 90 1.7 75 -2.3 12 32 980.9 NA 0.0000 9999 3970 0 0 0
2017/11/30 00:36:00 BASE 3.11 138 8.85 90 1.6 75 -2.2 12 31 980.9 NA 0.0000 9999 3740 0 0 0
2017/11/30 00:37:00 BASE 2.81 179 8.85 90 1.6 76 -2.2 12 30 980.8 NA 0.0000 9999 3900 0 0 0
2017/11/30 00:38:00 BASE 3.08 196 7.51 121 1.6 76 -2.2 11 29 980.8 NA 0.0000 9999 3810 0 0 0
2017/11/30 00:39:00 BASE 3.39 185 6.84 106 1.6 76 -2.2 11 28 980.8 NA 0.0000 9999 3080 3770 0 0
2017/11/30 00:40:00 BASE 3.83 169 5.92 73 1.5 76 -2.2 10 27 980.8 NA 0.0000 9999 3770 0 0 0
2017/11/30 00:41:00 BASE 3.51 158 5.92 73 1.5 77 -2.2 10 26 980.9 NA 0.0000 9999 3770 0 0 0
2017/11/30 00:42:00 BASE 3.05 151 5.92 73 1.4 77 -2.2 10 26 981.0 NA 0.0000 9999 3480 0 0 0
2017/11/30 00:43:00 BASE 3.59 157 6.17 158 1.4 78 -2.1 10 27 980.8 NA 0.0000 9999 3480 0 0 0
2017/11/30 00:44:00 BASE 4.97 159 6.38 153 1.3 78 -2.1 11 28 980.7 NA 0.0000 9999 3540 0 0 0
2017/11/30 00:45:00 BASE 5.25 156 6.38 153 1.3 79 -2.0 11 28 980.7 NA 0.0000 9999 3510 0 0 0
2017/11/30 00:46:00 BASE 5.19 159 6.53 164 1.3 79 -2.0 11 28 980.6 NA 0.0000 9999 3540 4100 0 0
2017/11/30 00:47:00 BASE 5.83 168 7.25 164 1.3 79 -1.9 10 27 980.3 NA 0.0000 9999 3540 0 0 0
2017/11/30 00:48:00 BASE 5.62 178 7.25 164 1.3 79 -1.9 10 25 980.4 NA 0.0000 9999 3350 0 0 0
2017/11/30 00:49:00 BASE 4.50 178 7.25 164 1.4 79 -1.9 10 25 980.6 NA 0.0000 9999 3610 0 0 0
2017/11/30 00:50:00 BASE 3.97 165 7.25 164 1.4 78 -1.9 10 24 980.7 NA 0.0000 9999 3770 0 0 0
2017/11/30 00:51:00 BASE 4.97 146 7.25 139 1.5 78 -1.9 10 24 980.4 NA 0.0000 9999 3710 0 0 0
2017/11/30 00:52:00 BASE 6.10 133 7.25 139 1.6 77 -1.9 10 25 980.6 NA 0.0000 9999 2200 3020 0 0
2017/11/30 00:53:00 BASE 5.54 105 7.25 139 1.8 77 -1.8 11 25 980.5 NA 0.0000 9999 2360 3610 0 0
2017/11/30 00:54:00 BASE 3.14 78 7.25 139 2.0 77 -1.6 10 25 980.4 NA 0.0000 9999 2620 3640 0 0
2017/11/30 00:55:00 BASE 3.05 208 7.25 139 2.3 77 -1.3 10 24 980.1 NA 0.0000 9999 2260 3710 0 0
2017/11/30 00:56:00 BASE 4.05 202 7.25 139 2.5 77 -1.2 9 23 980.2 NA 0.0000 9999 2360 0 0 0
2017/11/30 00:57:00 BASE 3.09 177 7.25 139 2.7 77 -1.0 8 21 980.5 NA 0.0000 9999 2460 3940 0 0
2017/11/30 00:58:00 BASE 2.71 161 7.25 139 2.8 76 -1.0 8 20 980.6 NA 0.0000 9999 2460 0 0 0
2017/11/30 00:59:00 BASE 4.65 181 8.03 207 2.8 76 -1.1 8 20 980.0 NA 0.0000 9999 3280 3810 0 0
2017/11/30 01:00:00 BASE 6.33 211 8.03 207 2.7 76 -1.2 8 20 980.1 NA 0.0000 9999 3870 0 0 0
2017/11/30 01:01:00 BASE 5.15 248 8.03 207 2.7 76 -1.2 8 20 980.4 NA 0.0000 9999 2170 3770 0 0
2017/11/30 01:02:00 BASE 4.90 293 8.03 207 2.7 76 -1.1 8 20 980.1 NA 0.0000 9999 3740 0 0 0
2017/11/30 01:03:00 BASE 6.13 327 8.03 207 2.8 76 -1.0 8 20 980.2 NA 0.0000 9999 3670 0 0 0
2017/11/30 01:04:00 BASE 6.43 355 8.03 207 2.8 77 -0.8 8 20 980.3 NA 0.0000 9999 3840 0 0 0
2017/11/30 01:05:00 BASE 5.45 4 8.03 207 2.8 78 -0.7 8 20 980.4 NA 0.0000 9999 3900 0 0 0
2017/11/30 01:06:00 BASE 5.71 5 9.31 353 2.8 78 -0.6 8 20 980.3 NA 0.0000 9999 3870 0 0 0
2017/11/30 01:07:00 BASE 8.64 14 13.12 23 2.8 79 -0.5 8 20 980.2 NA 0.0000 9999 3970 0 0 0
2017/11/30 01:08:00 BASE 12.45 18 17.29 15 2.7 80 -0.4 8 19 979.9 NA 0.0000 9999 3840 0 0 0
2017/11/30 01:09:00 BASE 14.02 14 17.29 15 2.7 80 -0.3 7 18 979.7 NA 0.0000 9999 3870 0 0 0
2017/11/30 01:10:00 BASE 13.41 10 17.29 15 2.7 81 -0.2 7 17 979.5 NA 0.0000 9999 3610 0 0 0
2017/11/30 01:11:00 BASE 14.22 8 17.34 9 2.7 81 -0.2 6 16 979.5 NA 0.0000 9999 3610 5120 0 0
2017/11/30 01:12:00 BASE 15.02 6 17.34 9 2.7 82 -0.1 6 16 979.4 NA 0.0000 9999 3670 0 0 0
2017/11/30 01:13:00 BASE 14.58 3 17.34 9 2.7 82 -0.0 6 16 979.3 NA 0.0000 9999 4720 0 0 0
2017/11/30 01:14:00 BASE 15.62 0 20.17 360 2.7 83 0.0 6 15 979.1 NA 0.0000 9999 4890 0 0 0
2017/11/30 01:15:00 BASE 17.06 356 20.17 360 2.7 83 0.1 6 15 979.1 NA 0.0000 9999 4430 5120 0 0
2017/11/30 01:16:00 BASE 16.72 2 20.17 360 2.8 83 0.1 6 14 979.2 NA 0.0000 9999 4330 0 0 0
2017/11/30 01:17:00 BASE 16.67 11 20.17 360 2.8 83 0.2 5 14 979.1 NA 0.0000 9999 4200 0 0 0
2017/11/30 01:18:00 BASE 16.97 10 20.17 360 2.9 83 0.2 5 13 979.1 NA 0.0000 9999 4170 0 0 0
2017/11/30 01:19:00 BASE 16.93 10 20.17 360 2.9 82 0.2 5 13 979.0 NA 0.0000 9999 3840 0 0 0
2017/11/30 01:20:00 BASE 16.95 9 20.17 360 2.9 82 0.2 5 13 979.1 NA 0.0000 9999 3510 0 0 0
2017/11/30 01:21:00 BASE 17.18 4 20.17 360 2.9 83 0.2 5 13 979.1 NA 0.0000 9999 3540 0 0 0
2017/11/30 01:22:00 BASE 17.30 2 20.22 4 2.9 83 0.2 5 13 979.2 NA 0.0000 9999 3770 5640 0 0
2017/11/30 01:23:00 BASE 17.06 7 20.22 4 2.9 83 0.2 5 13 979.1 NA 0.0000 9999 5640 0 0 0
2017/11/30 01:24:00 BASE 16.70 13 20.22 4 2.8 83 0.2 5 13 979.2 NA 0.0000 9999 4860 5710 0 0
2017/11/30 01:25:00 BASE 16.86 11 21.50 11 2.8 83 0.2 5 12 979.0 NA 0.0000 9999 3710 0 0 0
2017/11/30 01:26:00 BASE 17.97 10 21.50 11 2.8 83 0.2 5 12 979.0 NA 0.0000 9999 3020 3940 0 0
2017/11/30 01:27:00 BASE 17.89 9 21.50 11 2.8 83 0.2 5 12 979.0 NA 0.0000 9999 3050 0 0 0
2017/11/30 01:28:00 BASE 16.94 8 21.50 11 2.8 83 0.2 5 12 979.2 NA 0.0000 9999 3480 4460 0 0
2017/11/30 01:29:00 BASE 16.19 5 21.50 11 2.8 83 0.2 5 11 979.2 NA 0.0000 9999 2820 4300 0 0
2017/11/30 01:30:00 BASE 16.82 4 21.50 11 2.8 83 0.3 5 11 979.1 NA 0.0000 9999 3510 0 0 0
2017/11/30 01:31:00 BASE 18.47 10 22.53 8 2.8 83 0.3 5 11 979.0 NA 0.0000 9999 3280 0 0 0
2017/11/30 01:32:00 BASE 19.29 9 22.53 8 2.8 84 0.3 5 11 978.9 NA 0.0000 9999 2990 0 0 0
2017/11/30 01:33:00 BASE 19.12 8 22.53 8 2.8 84 0.3 5 11 979.0 NA 0.0000 9999 2920 4460 0 0
2017/11/30 01:34:00 BASE 18.40 7 22.53 8 2.8 84 0.3 5 11 979.0 NA 0.0000 9999 3250 0 0 0
2017/11/30 01:35:00 BASE 18.64 9 22.53 8 2.8 84 0.3 4 10 979.0 NA 0.0000 9999 2850 0 0 0
2017/11/30 01:36:00 BASE 18.81 9 22.53 8 2.8 84 0.3 4 10 979.1 NA 0.0000 UP 9999 2620 3450 0 0
2017/11/30 01:37:00 BASE 18.43 5 22.53 8 2.8 84 0.3 4 10 979.2 NA 0.0000 UP 9999 2720 3410 0 0
2017/11/30 01:38:00 BASE 18.32 3 22.53 8 2.8 84 0.3 4 10 979.2 NA 0.0000 UP 9999 4360 0 0 0
2017/11/30 01:39:00 BASE 18.15 2 22.53 8 2.8 84 0.3 4 10 979.2 NA 0.0000 UP 9999 4890 0 0 0
2017/11/30 01:40:00 BASE 18.01 6 22.53 8 2.8 84 0.3 4 10 979.2 NA 0.0000 UP 9999 5220 0 0 0
2017/11/30 01:41:00 BASE 17.84 7 21.61 5 2.8 84 0.4 4 9 979.2 NA 0.0000 UP 9999 5280 0 0 0
2017/11/30 01:42:00 BASE 17.55 4 21.04 1 2.8 84 0.4 3 8 979.3 NA 0.0000 UP 9999 5510 6070 0 0
2017/11/30 01:43:00 BASE 16.75 4 20.47 360 2.8 84 0.4 3 7 979.4 NA 0.0000 UP 9999 2430 0 0 0
2017/11/30 01:44:00 BASE 15.97 6 20.47 360 2.8 84 0.4 2 6 979.4 NA 0.0000 UP 9999 2660 0 0 0
2017/11/30 01:45:00 BASE 15.71 8 20.47 360 2.8 85 0.5 2 6 979.5 NA 0.0000 UP 9999 2400 0 0 0
2017/11/30 01:46:00 BASE 15.56 6 20.47 360 2.8 85 0.5 2 6 979.5 NA 0.0000 UP 9999 2300 0 0 0
2017/11/30 01:47:00 BASE 15.07 8 20.47 360 2.9 85 0.6 2 6 979.6 NA 0.0000 UP 9999 2360 0 0 0
2017/11/30 01:48:00 BASE 14.71 9 20.47 360 2.9 85 0.6 2 6 979.5 NA 0.0000 UP 9999 2490 0 0 0
2017/11/30 01:49:00 BASE 15.21 6 20.47 360 2.9 85 0.6 2 5 979.5 NA 0.0000 UP 9999 2430 0 0 0
2017/11/30 01:50:00 BASE 15.81 12 20.22 6 2.9 85 0.6 2 5 979.6 NA 0.0000 UP 9999 2330 0 0 0
2017/11/30 01:51:00 BASE 16.13 17 19.45 3 2.9 85 0.6 2 5 979.5 NA 0.0000 9999 2400 0 0 0
2017/11/30 01:52:00 BASE 15.31 14 18.21 3 2.9 85 0.6 2 6 979.6 NA 0.0000 9999 1350 0 0 0
2017/11/30 01:53:00 BASE 14.62 14 18.16 14 2.9 85 0.6 2 6 979.5 NA 0.0000 9999 2560 5220 0 0
2017/11/30 01:54:00 BASE 15.54 14 18.16 9 2.9 85 0.6 2 6 979.5 NA 0.0000 9999 3020 4890 0 0
2017/11/30 01:55:00 BASE 15.78 11 18.16 9 2.8 85 0.6 2 6 979.5 NA 0.0000 9999 2690 0 0 0
2017/11/30 01:56:00 BASE 14.95 12 18.16 9 2.8 85 0.6 2 6 979.5 NA 0.0000 UP 9999 5250 0 0 0
2017/11/30 01:57:00 BASE 15.02 15 18.37 7 2.8 85 0.6 2 6 979.5 NA 0.0000 UP 9999 5480 0 0 0
2017/11/30 01:58:00 BASE 14.82 12 18.37 7 2.7 86 0.6 2 5 979.5 NA 0.0000 UP 9999 5350 0 0 0
2017/11/30 01:59:00 BASE 14.84 7 18.37 7 2.7 86 0.6 2 4 979.5 NA 0.0000 UP 9999 2850 0 0 0
2017/11/30 02:00:00 BASE 16.24 4 18.37 7 2.7 86 0.6 2 4 979.4 NA 0.0000 UP 9999 2820 0 0 0
2017/11/30 02:01:00 BASE 16.60 5 18.78 5 2.7 86 0.6 1 4 979.5 NA 0.0000 UP 9999 2760 3740 0 0
2017/11/30 02:02:00 BASE 15.12 9 18.78 5 2.8 86 0.6 1 3 979.6 NA 0.0000 UP 9999 2690 0 0 0
2017/11/30 02:03:00 BASE 13.50 8 18.78 5 2.8 86 0.7 1 3 979.6 NA 0.0000 UP 9999 2720 0 0 0
2017/11/30 02:04:00 BASE 14.27 9 18.78 5 2.8 86 0.7 1 3 979.6 NA 0.0000 UP 9999 2590 3480 0 0
2017/11/30 02:05:00 BASE 15.27 13 18.78 5 2.8 86 0.7 1 3 979.5 NA 0.0000 UP 9999 2620 3480 0 0
2017/11/30 02:06:00 BASE 14.16 12 18.78 5 2.8 86 0.7 1 2 979.7 NA 0.0000 UP 9999 2660 0 0 0
2017/11/30 02:07:00 BASE 13.49 11 18.78 5 2.8 86 0.7 1 2 979.6 NA 0.0000 UP 9999 0 0 0 3940
2017/11/30 02:08:00 BASE 13.81 9 18.78 5 2.8 86 0.7 1 2 979.7 NA 0.0000 UP 9999 2590 0 0 0
2017/11/30 02:09:00 BASE 13.87 8 18.78 5 2.8 86 0.7 1 2 979.7 NA 0.0000 UP 9999 460 0 0 0
2017/11/30 02:10:00 BASE 13.98 9 18.78 5 2.8 86 0.7 1 2 979.7 NA 0.0000 UP 9999 1540 3150 0 0
2017/11/30 02:11:00 BASE 14.38 8 17.29 9 2.7 87 0.7 1 2 979.7 NA 0.0000 UP 9999 0 0 0 3580
2017/11/30 02:12:00 BASE 13.90 3 17.29 9 2.7 87 0.7 1 2 979.7 NA 0.0000 UP 9999 3640 0 0 0
2017/11/30 02:13:00 BASE 13.54 5 17.29 9 2.7 87 0.7 0 2 979.7 NA 0.0000 UP 9999 2720 0 0 0
2017/11/30 02:14:00 BASE 14.24 9 17.75 2 2.6 87 0.8 1 2 979.7 NA 0.0000 UP 9999 0 0 0 2950
2017/11/30 02:15:00 BASE 13.84 8 17.75 2 2.6 88 0.8 1 2 979.7 NA 0.0000 UP 9000 0 0 0 3220
2017/11/30 02:16:00 BASE 14.41 11 17.75 2 2.6 88 0.8 1 2 979.6 NA 0.0000 -SN 6000 0 0 0 3770
2017/11/30 02:17:00 BASE 15.37 8 17.75 2 2.6 88 0.9 1 2 979.7 NA 0.0000 -SN 5000 1120 0 0 0
2017/11/30 02:18:00 BASE 15.07 4 17.75 2 2.6 89 0.9 1 2 979.7 NA 0.0000 -SN BR 5000 1210 0 0 0
2017/11/30 02:19:00 BASE 14.91 7 17.75 2 2.5 89 0.9 0 2 979.7 NA 0.0000 -SN BR 7000 2170 0 0 0
2017/11/30 02:20:00 BASE 13.89 5 17.75 2 2.5 89 1.0 0 1 979.8 NA 0.0000 -SN BR 4800 2690 0 0 0
2017/11/30 02:21:00 BASE 13.06 4 17.75 2 2.5 90 1.0 0 1 979.8 NA 0.0000 -SN BR 9999 2690 3350 0 0
2017/11/30 02:22:00 BASE 13.50 7 17.75 2 2.5 90 1.0 0 1 979.7 NA 0.0000 -SN BR 9000 2720 0 0 0
2017/11/30 02:23:00 BASE 13.53 4 17.75 2 2.4 91 1.1 0 1 979.7 NA 0.0000 -SN BR 9000 2690 3480 0 0
2017/11/30 02:24:00 BASE 12.93 356 17.03 11 2.4 91 1.1 0 1 979.7 NA 0.0000 -SN BR 9999 3450 0 0 0
2017/11/30 02:25:00 BASE 13.18 354 17.03 11 2.4 91 1.2 0 1 979.7 NA 0.0000 -SN BR 9000 3080 0 0 0
2017/11/30 02:26:00 BASE 13.97 6 16.87 13 2.4 92 1.2 0 1 979.6 NA 0.0000 -SN BR 9999 2950 0 0 0
2017/11/30 02:27:00 BASE 14.75 9 16.87 13 2.4 92 1.2 0 1 979.6 NA 0.0000 -SN BR 9000 2950 0 0 0
2017/11/30 02:28:00 BASE 14.66 360 16.87 13 2.4 92 1.3 0 1 979.7 NA 0.0000 -SN BR 5000 1250 3540 0 0
2017/11/30 02:29:00 BASE 12.99 359 16.67 9 2.4 92 1.3 0 1 979.9 NA 0.0000 -SN BR 6000 390 0 0 0
2017/11/30 02:30:00 BASE 12.31 356 16.67 9 2.4 93 1.3 0 1 979.8 NA 0.0000 -SN BR 9999 2300 0 0 0
2017/11/30 02:31:00 BASE 12.95 351 16.67 9 2.4 93 1.4 0 1 979.8 NA 0.0000 -SN BR 9999 2070 2790 0 0
2017/11/30 02:32:00 BASE 12.79 359 16.67 9 2.5 93 1.4 0 1 979.9 NA 0.0000 -SN BR 9999 2460 0 0 0
2017/11/30 02:33:00 BASE 12.89 6 16.67 9 2.5 93 1.5 0 1 979.8 NA 0.0000 -SN 9999 2460 0 0 0
2017/11/30 02:34:00 BASE 12.19 9 16.67 9 2.5 93 1.5 0 1 979.9 NA 0.0000 -SN BR 9999 2560 0 0 0
2017/11/30 02:35:00 BASE 11.98 11 16.67 9 2.5 93 1.5 0 1 979.9 NA 0.0000 -SN 9999 1080 0 0 0
2017/11/30 02:36:00 BASE 12.67 10 16.67 9 2.5 93 1.5 0 1 979.9 NA 0.0000 -SN 9999 2530 0 0 0
2017/11/30 02:37:00 BASE 12.85 11 15.69 3 2.4 93 1.4 0 1 979.8 NA 0.0000 -SN 9999 2660 0 0 0
2017/11/30 02:38:00 BASE 13.24 14 15.18 12 2.4 93 1.4 0 1 979.7 NA 0.0000 -SN 9999 2660 0 0 0
2017/11/30 02:39:00 BASE 13.26 16 15.28 11 2.4 93 1.4 0 1 979.7 NA 0.0000 -SN 9999 2560 0 0 0
2017/11/30 02:40:00 BASE 13.52 19 15.95 20 2.4 93 1.4 0 1 979.7 NA 0.0000 -SN 9999 2490 0 0 0
2017/11/30 02:41:00 BASE 13.21 21 15.95 20 2.5 93 1.4 0 1 979.7 NA 0.0000 -SN 9999 2590 0 0 0
2017/11/30 02:42:00 BASE 13.55 20 15.95 20 2.5 92 1.4 0 1 979.5 NA 0.0000 -SN 9999 2590 0 0 0
2017/11/30 02:43:00 BASE 13.29 18 15.95 20 2.6 92 1.4 0 1 979.7 NA 0.0000 -SN 9999 2330 0 0 0
2017/11/30 02:44:00 BASE 12.55 17 16.62 32 2.6 91 1.4 0 1 979.6 NA 0.0000 -SN 9999 2460 0 0 0
2017/11/30 02:45:00 BASE 13.19 14 16.62 32 2.7 91 1.4 0 1 979.6 NA 0.0000 -SN 9999 2620 0 0 0
2017/11/30 02:46:00 BASE 13.83 12 16.62 32 2.7 91 1.4 0 1 979.5 NA 0.0000 -SN 9999 2560 0 0 0
2017/11/30 02:47:00 BASE 13.61 8 16.62 32 2.7 91 1.4 0 1 979.5 NA 0.0000 9999 2790 0 0 0
2017/11/30 02:48:00 BASE 13.36 6 16.62 32 2.7 91 1.4 0 1 979.5 NA 0.0000 9999 2590 0 0 0
2017/11/30 02:49:00 BASE 14.19 11 16.62 32 2.8 91 1.4 0 1 979.5 NA 0.0000 9999 2620 0 0 0
2017/11/30 02:50:00 BASE 14.47 15 16.62 32 2.8 91 1.4 0 1 979.5 NA 0.0000 9999 2590 0 0 0
2017/11/30 02:51:00 BASE 14.10 16 16.62 32 2.8 91 1.4 0 1 979.5 NA 0.0000 9999 2530 0 0 0
2017/11/30 02:52:00 BASE 13.74 17 16.62 32 2.8 91 1.4 0 1 979.5 NA 0.0000 9999 2560 0 0 0
2017/11/30 02:53:00 BASE 13.74 16 16.62 32 2.8 91 1.4 0 1 979.4 NA 0.0000 9999 2490 0 0 0
2017/11/30 02:54:00 BASE 13.64 13 16.51 7 2.8 91 1.4 0 1 979.5 NA 0.0000 9999 1640 0 0 0
2017/11/30 02:55:00 BASE 12.86 11 16.51 7 2.8 91 1.4 0 1 979.6 NA 0.0000 9999 2000 3250 0 0
2017/11/30 02:56:00 BASE 12.87 9 16.51 7 2.8 91 1.5 0 1 979.5 NA 0.0000 9999 2920 0 0 0
2017/11/30 02:57:00 BASE 13.37 10 16.51 7 2.8 91 1.5 0 1 979.6 NA 0.0000 9999 2360 0 0 0
2017/11/30 02:58:00 BASE 12.70 12 16.51 7 2.8 91 1.5 0 1 979.7 NA 0.0000 9999 2360 0 0 0
2017/11/30 02:59:00 BASE 12.38 14 16.51 7 2.8 91 1.5 0 1 979.6 NA 0.0000 9999 2360 0 0 0
2017/11/30 03:00:00 BASE 13.06 16 16.51 7 2.8 91 1.5 0 1 979.5 NA 0.0000 9999 2170 0 0 0
2017/11/30 03:01:00 BASE 13.56 17 16.51 7 2.8 91 1.5 0 1 979.5 NA 0.0000 9999 2100 0 0 0
2017/11/30 03:02:00 BASE 13.11 15 16.51 7 2.8 91 1.5 0 1 979.6 NA 0.0000 9999 2200 2890 0 0
2017/11/30 03:03:00 BASE 12.14 13 15.95 4 2.8 91 1.4 0 0 979.6 NA 0.0000 9999 2620 0 0 0
2017/11/30 03:04:00 BASE 12.36 7 15.95 4 2.7 91 1.4 0 1 979.6 NA 0.0000 9999 2360 2950 0 0
2017/11/30 03:05:00 BASE 12.19 6 15.95 4 2.7 91 1.4 0 1 979.6 NA 0.0000 9999 2330 0 0 0
2017/11/30 03:06:00 BASE 11.90 7 15.95 4 2.7 91 1.4 0 1 979.6 NA 0.0000 9999 2430 0 0 0
2017/11/30 03:07:00 BASE 12.55 6 15.95 4 2.7 91 1.4 0 1 979.5 NA 0.0000 9999 2330 0 0 0
2017/11/30 03:08:00 BASE 13.33 6 15.95 4 2.8 91 1.4 0 1 979.5 NA 0.0000 9999 2260 0 0 0
2017/11/30 03:09:00 BASE 13.59 7 15.95 4 2.8 91 1.5 0 1 979.6 NA 0.0000 9999 2300 0 0 0
2017/11/30 03:10:00 BASE 13.24 5 15.95 4 2.9 91 1.5 0 1 979.6 NA 0.0000 9999 2400 3250 0 0
2017/11/30 03:11:00 BASE 13.42 359 15.90 12 2.9 90 1.5 0 1 979.6 NA 0.0000 -SN 9999 2490 0 0 0
2017/11/30 03:12:00 BASE 14.05 354 15.90 12 3.0 90 1.6 0 0 979.6 NA 0.0000 -SN 9999 2460 3080 0 0
2017/11/30 03:13:00 BASE 13.87 0 15.90 12 3.1 90 1.6 0 1 979.6 NA 0.0000 -SN 9999 2170 2850 0 0
2017/11/30 03:14:00 BASE 13.05 6 15.90 12 3.1 90 1.6 0 0 979.7 NA 0.0000 -SN 9999 2070 0 0 0
2017/11/30 03:15:00 BASE 11.74 7 15.90 12 3.1 90 1.6 0 1 979.7 NA 0.0000 -SN 9999 2100 0 0 0
2017/11/30 03:16:00 BASE 11.59 5 15.90 12 3.0 90 1.6 0 0 979.6 NA 0.0000 -SN 9999 2200 0 0 0
2017/11/30 03:17:00 BASE 12.49 353 15.90 12 3.0 90 1.6 0 0 979.7 NA 0.0000 -SN 9999 2360 0 0 0
2017/11/30 03:18:00 BASE 12.30 343 15.90 12 3.0 90 1.6 0 0 979.6 NA 0.0000 -SN 9999 2530 0 0 0
2017/11/30 03:19:00 BASE 11.28 340 15.74 2 3.0 91 1.6 0 0 979.7 NA 0.0000 -SN 9999 2260 2990 0 0
2017/11/30 03:20:00 BASE 9.79 337 15.74 2 3.0 91 1.6 0 0 979.8 NA 0.0000 -SN 9999 3120 0 0 0
2017/11/30 03:21:00 BASE 9.33 333 15.74 2 3.0 91 1.7 0 0 979.7 NA 0.0000 -SN 9999 2820 0 0 0
2017/11/30 03:22:00 BASE 9.42 334 15.74 2 3.0 91 1.7 0 1 979.7 NA 0.0000 -SN 9999 2260 0 0 0
2017/11/30 03:23:00 BASE 10.31 351 14.71 3 3.0 91 1.6 0 1 979.6 NA 0.0000 -SN 9999 2170 0 0 0
2017/11/30 03:24:00 BASE 11.39 7 14.71 3 3.0 91 1.6 0 1 979.5 NA 0.0000 -SN 9999 2260 0 0 0
2017/11/30 03:25:00 BASE 12.28 6 14.97 302 3.0 91 1.6 0 1 979.4 NA 0.0000 9999 2230 0 0 0
2017/11/30 03:26:00 BASE 13.35 4 17.13 1 3.0 91 1.6 0 1 979.3 NA 0.0000 9999 2260 0 0 0
2017/11/30 03:27:00 BASE 13.95 4 17.13 1 3.0 91 1.7 0 1 979.4 NA 0.0000 9999 2260 3710 4070 0
2017/11/30 03:28:00 BASE 12.85 0 17.13 1 3.0 91 1.7 0 1 979.6 NA 0.0000 9999 2260 0 0 0
2017/11/30 03:29:00 BASE 12.53 4 17.13 1 3.1 91 1.7 0 1 979.4 NA 0.0000 9999 2070 0 0 0
2017/11/30 03:30:00 BASE 12.89 9 17.13 1 3.1 90 1.7 0 0 979.5 NA 0.0000 9999 2200 7680 0 0
2017/11/30 03:31:00 BASE 11.65 6 17.13 1 3.1 90 1.6 0 0 979.6 NA 0.0000 9999 2230 0 0 0
2017/11/30 03:32:00 BASE 12.60 5 17.13 1 3.1 89 1.5 0 0 979.5 NA 0.0000 9999 2070 0 0 0
2017/11/30 03:33:00 BASE 12.84 6 17.13 1 3.1 89 1.5 0 0 979.6 NA 0.0000 9999 1970 0 0 0
2017/11/30 03:34:00 BASE 12.20 9 17.13 1 3.1 89 1.4 0 0 979.6 NA 0.0000 9999 2070 0 0 0
2017/11/30 03:35:00 BASE 13.14 5 17.13 1 3.1 89 1.4 0 0 979.5 NA 0.0000 9999 1900 0 0 0
2017/11/30 03:36:00 BASE 13.70 3 16.46 2 3.1 89 1.4 0 0 979.5 NA 0.0000 9999 1840 0 0 0
2017/11/30 03:37:00 BASE 13.26 3 16.46 2 3.1 89 1.4 0 0 979.6 NA 0.0000 9999 1710 0 0 0
2017/11/30 03:38:00 BASE 12.59 356 16.46 2 3.0 89 1.4 0 0 979.6 NA 0.0000 9999 1610 0 0 0
2017/11/30 03:39:00 BASE 11.80 349 16.46 2 3.0 89 1.3 0 0 979.8 NA 0.0000 9999 1900 0 0 0
2017/11/30 03:40:00 BASE 11.33 345 16.46 2 2.9 89 1.3 0 0 979.8 NA 0.0000 9999 1900 0 0 0
2017/11/30 03:41:00 BASE 11.36 339 16.46 2 2.9 89 1.2 0 0 979.8 NA 0.0000 9999 1940 0 0 0
2017/11/30 03:42:00 BASE 9.99 334 16.31 3 2.8 90 1.3 0 0 979.9 NA 0.0000 9999 1840 0 0 0
2017/11/30 03:43:00 BASE 10.16 346 16.31 3 2.8 90 1.3 0 0 979.8 NA 0.0000 9999 1740 0 0 0
2017/11/30 03:44:00 BASE 13.24 0 16.31 3 2.8 91 1.4 0 0 979.5 NA 0.0000 9999 1770 0 0 0
2017/11/30 03:45:00 BASE 14.19 356 16.31 3 2.8 91 1.5 0 0 979.6 NA 0.0000 9999 1770 0 0 0
2017/11/30 03:46:00 BASE 12.96 346 15.95 1 2.8 92 1.6 0 0 979.6 NA 0.0000 -SN 9999 430 0 0 0
2017/11/30 03:47:00 BASE 12.99 348 15.95 1 2.7 92 1.6 0 0 979.5 NA 0.0000 -SN 9999 1940 0 0 0
2017/11/30 03:48:00 BASE 14.49 354 16.41 1 2.7 93 1.6 0 0 979.3 NA 0.0000 -SN 9999 2100 0 0 0
2017/11/30 03:49:00 BASE 15.44 359 16.41 1 2.7 93 1.7 0 0 979.3 NA 0.0000 -SN 9999 2130 0 0 0
2017/11/30 03:50:00 BASE 15.25 357 17.70 360 2.8 93 1.7 0 0 979.4 NA 0.0000 -SN 9999 2200 3280 0 0
2017/11/30 03:51:00 BASE 13.98 351 17.70 360 2.8 93 1.7 0 0 979.5 NA 0.0000 -SN 9999 2490 3080 0 0
2017/11/30 03:52:00 BASE 13.07 346 17.70 360 2.8 93 1.8 0 0 979.5 NA 0.0000 -SN 9999 2100 3080 0 0
2017/11/30 03:53:00 BASE 14.15 353 17.70 360 2.8 93 1.7 0 0 979.4 NA 0.0000 -SN 9999 1800 0 0 0
2017/11/30 03:54:00 BASE 15.91 5 18.11 7 2.7 93 1.7 0 0 979.2 NA 0.0000 -SN 9999 1870 0 0 0
2017/11/30 03:55:00 BASE 16.40 7 18.11 7 2.7 93 1.7 0 0 979.2 NA 0.0000 -SN 9999 1640 0 0 0
2017/11/30 03:56:00 BASE 16.14 5 18.11 7 2.6 94 1.7 0 0 979.1 NA 0.0000 -SN 9999 1840 2790 0 0
2017/11/30 03:57:00 BASE 16.57 5 18.21 7 2.6 94 1.7 0 0 979.1 NA 0.0000 -SN 9999 2070 3120 0 0
2017/11/30 03:58:00 BASE 16.27 5 18.21 7 2.6 94 1.8 0 0 979.2 NA 0.2540 -SN 9999 3120 0 0 0
2017/11/30 03:59:00 BASE 15.47 4 18.21 7 2.6 94 1.8 0 0 979.2 NA 0.0000 -SN 9999 2990 0 0 0
2017/11/30 04:00:00 BASE 15.19 1 18.21 7 2.6 94 1.8 0 0 979.2 NA 0.0000 -SN 9999 2130 0 0 0
2017/11/30 04:01:00 BASE 15.08 355 18.21 7 2.7 94 1.9 0 0 979.3 NA 0.0000 -SN 9999 1900 2760 0 0
2017/11/30 04:02:00 BASE 15.29 353 18.21 7 2.8 94 1.9 0 0 979.3 NA 0.0000 -SN 9999 2590 0 0 0
2017/11/30 04:03:00 BASE 14.85 352 18.21 7 2.8 94 1.9 0 0 979.4 NA 0.0000 -SN 9999 2000 2790 0 0
2017/11/30 04:04:00 BASE 14.55 355 18.21 7 2.8 94 1.9 0 0 979.4 NA 0.0000 -SN 9999 2560 0 0 0
2017/11/30 04:05:00 BASE 14.30 352 18.21 7 2.9 94 1.9 0 0 979.5 NA 0.0000 -SN 9999 2070 0 0 0
2017/11/30 04:06:00 BASE 12.14 341 18.21 7 2.9 93 1.9 0 0 979.7 NA 0.0000 -SN 9999 1900 0 0 0
2017/11/30 04:07:00 BASE 12.02 342 17.34 354 2.8 93 1.9 0 0 979.5 NA 0.0000 -SN 9999 390 0 0 0
2017/11/30 04:08:00 BASE 14.30 351 17.34 354 2.8 93 1.8 0 0 979.4 NA 0.0000 -SN 9000 390 0 0 0
2017/11/30 04:09:00 BASE 15.22 358 17.70 354 2.8 93 1.7 0 0 979.3 NA 0.0000 -SN 5000 2100 0 0 0
2017/11/30 04:10:00 BASE 14.89 360 17.70 354 2.7 93 1.7 0 0 979.3 NA 0.0000 -SN 5000 1610 0 0 0
2017/11/30 04:11:00 BASE 14.40 358 17.70 354 2.6 93 1.6 0 0 979.4 NA 0.0000 -SN BR 6000 2130 0 0 0
2017/11/30 04:12:00 BASE 13.98 355 17.70 354 2.5 94 1.6 0 0 979.4 NA 0.0000 -SN BR 9999 1080 0 0 0
2017/11/30 04:13:00 BASE 14.70 359 17.70 354 2.5 94 1.6 0 0 979.3 NA 0.0000 -SN BR 9999 0 0 0 3810
2017/11/30 04:14:00 BASE 15.59 4 17.70 354 2.4 95 1.6 0 0 979.4 NA 0.0000 -SN BR 6000 1940 0 0 0
2017/11/30 04:15:00 BASE 13.75 358 17.70 354 2.4 95 1.7 0 0 979.5 NA 0.0000 -SN BR 9999 820 4630 0 0
2017/11/30 04:16:00 BASE 12.44 352 17.70 354 2.4 95 1.7 0 0 979.5 NA 0.0000 -SN BR 9999 2790 0 0 0
2017/11/30 04:17:00 BASE 14.09 357 17.70 354 2.4 95 1.7 0 0 979.4 NA 0.0000 -SN BR 9999 2720 0 0 0
2017/11/30 04:18:00 BASE 15.05 3 17.70 354 2.4 96 1.8 0 0 979.3 NA 0.0000 -SN BR 9999 1900 0 0 0
2017/11/30 04:19:00 BASE 14.88 7 17.08 2 2.4 96 1.8 0 0 979.3 NA 0.0000 -SN BR 9999 1840 0 0 0
2017/11/30 04:20:00 BASE 15.04 7 17.08 2 2.4 96 1.8 0 0 979.3 NA 0.0000 -SN 9999 2000 2620 0 0
2017/11/30 04:21:00 BASE 15.10 6 17.08 2 2.4 96 1.8 0 0 979.3 NA 0.0000 -SN 9999 1970 0 0 0
2017/11/30 04:22:00 BASE 14.82 5 17.08 2 2.4 96 1.8 0 0 979.4 NA 0.0000 -SN 7000 2000 0 0 0
2017/11/30 04:23:00 BASE 15.08 5 16.77 8 2.4 96 1.8 0 0 979.3 NA 0.0000 -SN 7000 1900 0 0 0
2017/11/30 04:24:00 BASE 15.81 7 17.39 9 2.4 96 1.8 0 0 979.3 NA 0.0000 -SN 5000 1970 0 0 0
2017/11/30 04:25:00 BASE 15.87 6 17.44 4 2.4 96 1.8 0 0 979.4 NA 0.0000 -SN BR 4600 2030 0 0 0
2017/11/30 04:26:00 BASE 15.35 4 17.44 4 2.4 96 1.8 0 0 979.4 NA 0.0000 -SN BR 4800 2070 0 0 0
2017/11/30 04:27:00 BASE 14.89 5 17.44 4 2.4 96 1.8 0 0 979.4 NA 0.0000 -SN BR 5000 2230 0 0 0
2017/11/30 04:28:00 BASE 14.82 5 17.44 4 2.4 96 1.8 0 0 979.4 NA 0.0000 -SN BR 8000 980 2030 0 0
2017/11/30 04:29:00 BASE 14.53 6 17.44 4 2.4 96 1.8 0 0 979.4 NA 0.0000 -SN BR 4200 720 0 0 0
2017/11/30 04:30:00 BASE 14.28 9 17.44 4 2.4 96 1.8 0 0 979.4 NA 0.0000 -SN BR 8000 890 0 0 0
2017/11/30 04:31:00 BASE 14.22 11 17.44 4 2.4 96 1.8 0 0 979.4 NA 0.0000 -SN BR 9999 950 0 0 0
2017/11/30 04:32:00 BASE 14.41 9 17.44 4 2.4 96 1.8 0 0 979.4 NA 0.2540 -SN BR 9000 720 0 0 0
2017/11/30 04:33:00 BASE 14.52 6 17.44 4 2.4 96 1.8 0 0 979.4 NA 0.0000 -SN BR 3900 0 0 0 3250
2017/11/30 04:34:00 BASE 14.26 7 17.44 4 2.4 96 1.9 0 0 979.4 NA 0.0000 -SN BR 3800 560 0 0 0
2017/11/30 04:35:00 BASE 14.04 8 16.87 15 2.5 96 1.9 0 0 979.4 NA 0.0000 -SN BR 4000 2100 0 0 0
2017/11/30 04:36:00 BASE 13.43 5 16.87 15 2.5 96 1.9 0 0 979.5 NA 0.0000 -SN BR 3800 660 0 0 0
2017/11/30 04:37:00 BASE 13.51 2 16.87 15 2.5 96 1.9 0 0 979.5 NA 0.0000 -SN BR 5000 820 0 0 0
2017/11/30 04:38:00 BASE 14.17 1 16.87 15 2.5 96 1.9 0 0 979.5 NA 0.0000 -SN BR 9999 690 0 0 0
2017/11/30 04:39:00 BASE 13.66 3 16.15 6 2.5 96 1.9 0 0 979.6 NA 0.0000 -SN BR 9999 660 0 0 0
2017/11/30 04:40:00 BASE 13.34 5 16.15 6 2.5 96 1.9 0 0 979.5 NA 0.0000 -SN BR 9999 1050 0 0 0
2017/11/30 04:41:00 BASE 13.68 5 16.15 6 2.5 95 1.8 0 0 979.5 NA 0.0000 -SN BR 9999 1080 0 0 0
2017/11/30 04:42:00 BASE 14.21 4 16.00 360 2.5 95 1.8 0 0 979.5 NA 0.0000 -SN BR 9000 2000 0 0 0
2017/11/30 04:43:00 BASE 13.84 6 16.00 360 2.5 95 1.8 0 0 979.6 NA 0.0000 -SN BR 9000 1970 0 0 0
2017/11/30 04:44:00 BASE 12.40 5 16.00 360 2.5 95 1.8 0 0 979.6 NA 0.0000 -SN BR 9999 1970 0 0 0
2017/11/30 04:45:00 BASE 11.74 5 16.00 360 2.5 95 1.8 0 0 979.6 NA 0.0000 -SN BR 9999 2030 0 0 0
2017/11/30 04:46:00 BASE 11.74 5 16.00 360 2.5 95 1.8 0 0 979.6 NA 0.0000 -SN 9999 2000 0 0 0
2017/11/30 04:47:00 BASE 12.58 4 15.84 1 2.5 95 1.8 0 0 979.5 NA 0.0000 -SN 9999 1610 0 0 0
2017/11/30 04:48:00 BASE 13.64 360 15.90 349 2.5 95 1.8 0 0 979.4 NA 0.0000 -SN 9999 1150 0 0 0
2017/11/30 04:49:00 BASE 13.30 352 15.90 349 2.5 95 1.8 0 0 979.5 NA 0.0000 -SN 5000 850 1770 0 0
2017/11/30 04:50:00 BASE 11.38 348 15.90 349 2.5 95 1.7 0 0 979.6 NA 0.0000 -SN 9000 390 0 0 0
2017/11/30 04:51:00 BASE 10.40 348 15.90 349 2.5 94 1.7 0 0 979.6 NA 0.0000 -SN 9999 460 0 0 0
2017/11/30 04:52:00 BASE 12.29 354 15.90 349 2.5 94 1.7 0 0 979.4 NA 0.0000 -SN 8000 820 0 0 0
2017/11/30 04:53:00 BASE 13.38 356 15.90 349 2.5 94 1.7 0 0 979.5 NA 0.0000 -SN BR 5000 660 0 0 0
2017/11/30 04:54:00 BASE 13.13 353 15.90 349 2.5 95 1.7 0 0 979.5 NA 0.0000 -SN BR 6000 390 0 0 0
2017/11/30 04:55:00 BASE 13.46 358 15.90 349 2.5 95 1.8 0 0 979.5 NA 0.0000 -SN BR 9999 890 1970 0 0
2017/11/30 04:56:00 BASE 13.88 3 15.90 349 2.5 95 1.8 0 0 979.4 NA 0.2540 -SN BR 9999 790 1970 0 0
2017/11/30 04:57:00 BASE 14.53 3 16.41 3 2.6 95 1.8 0 0 979.4 NA 0.0000 -SN BR 9999 1050 0 0 0
2017/11/30 04:58:00 BASE 15.01 2 16.41 3 2.6 95 1.8 0 0 979.4 NA 0.0000 -SN BR 9999 1050 0 0 0
2017/11/30 04:59:00 BASE 15.09 2 16.41 3 2.6 95 1.8 0 0 979.4 NA 0.0000 -SN BR 9999 2070 0 0 0
2017/11/30 05:00:00 BASE 14.58 3 16.41 3 2.6 94 1.8 0 0 979.5 NA 0.0000 -SN 9999 2000 0 0 0
2017/11/30 05:01:00 BASE 14.20 4 16.41 3 2.6 94 1.7 0 0 979.5 NA 0.0000 -SN 9999 1210 0 0 0
2017/11/30 05:02:00 BASE 14.30 5 16.41 3 2.5 94 1.7 0 0 979.4 NA 0.0000 -SN 8000 1210 0 0 0
2017/11/30 05:03:00 BASE 14.12 6 16.41 3 2.5 94 1.7 0 0 979.5 NA 0.0000 -SN 9999 1210 0 0 0
2017/11/30 05:04:00 BASE 14.01 5 16.41 3 2.4 94 1.6 0 0 979.5 NA 0.0000 -SN 9999 1280 0 0 0
2017/11/30 05:05:00 BASE 14.36 5 16.77 2 2.4 95 1.6 0 0 979.5 NA 0.0000 -SN 8000 1840 0 0 0
2017/11/30 05:06:00 BASE 14.67 4 16.77 2 2.4 95 1.6 0 0 979.4 NA 0.0000 -SN 5000 1150 0 0 0
2017/11/30 05:07:00 BASE 14.81 4 16.77 2 2.4 95 1.7 0 0 979.5 NA 0.0000 -SN BR 4100 1080 0 0 0
2017/11/30 05:08:00 BASE 14.74 5 16.77 2 2.3 96 1.7 0 0 979.4 NA 0.0000 -SN BR 4000 920 0 0 0
2017/11/30 05:09:00 BASE 14.46 6 16.77 2 2.3 96 1.7 0 0 979.5 NA 0.0000 -SN BR 3900 390 0 0 0
2017/11/30 05:10:00 BASE 14.21 6 16.77 2 2.3 96 1.7 0 0 979.5 NA 0.0000 -SN BR 3300 360 0 0 0
2017/11/30 05:11:00 BASE 14.00 5 16.77 2 2.3 96 1.7 0 0 979.5 NA 0.0000 -SN BR 3600 360 0 0 0
2017/11/30 05:12:00 BASE 14.27 4 16.77 2 2.3 96 1.7 0 0 979.4 NA 0.2540 -SN BR 3400 360 0 0 0
2017/11/30 05:13:00 BASE 14.26 5 16.77 2 2.2 97 1.7 0 0 979.5 NA 0.0000 -SN BR 2800 390 0 0 0
2017/11/30 05:14:00 BASE 13.95 4 16.77 2 2.2 97 1.7 0 0 979.5 NA 0.0000 -SN BR 3600 390 0 0 0
2017/11/30 05:15:00 BASE 13.61 4 16.05 360 2.2 97 1.7 0 0 979.5 NA 0.0000 -SN BR 3600 390 0 0 0
2017/11/30 05:16:00 BASE 13.26 5 16.05 360 2.2 97 1.8 0 0 979.6 NA 0.0000 -SN BR 3900 390 0 0 0
2017/11/30 05:17:00 BASE 13.34 4 15.84 7 2.2 97 1.8 0 0 979.6 NA 0.0000 -SN BR 3700 690 0 0 0
2017/11/30 05:18:00 BASE 13.44 4 15.84 7 2.2 97 1.8 0 0 979.6 NA 0.2540 -SN BR 7000 690 0 0 0
2017/11/30 05:19:00 BASE 13.60 4 15.38 4 2.2 97 1.8 0 0 979.6 NA 0.0000 -SN BR 9000 720 0 0 0
2017/11/30 05:20:00 BASE 13.70 4 15.38 4 2.2 97 1.9 0 0 979.6 NA 0.0000 -SN BR 5000 690 0 0 0
2017/11/30 05:21:00 BASE 13.73 2 15.38 4 2.3 97 1.9 0 0 979.6 NA 0.0000 -SN BR 9999 720 0 0 0
2017/11/30 05:22:00 BASE 13.38 3 15.18 1 2.3 97 1.8 0 0 979.6 NA 0.0000 -SN BR 9999 660 0 0 0
2017/11/30 05:23:00 BASE 13.46 5 15.18 1 2.3 97 1.9 0 0 979.6 NA 0.0000 -SN BR 6000 620 0 0 0
2017/11/30 05:24:00 BASE 13.61 5 15.18 1 2.3 97 1.9 0 0 979.6 NA 0.0000 -SN BR 8000 750 0 0 0
2017/11/30 05:25:00 BASE 13.27 1 15.18 1 2.3 97 1.9 0 0 979.6 NA 0.0000 -SN BR 7000 520 0 0 0
2017/11/30 05:26:00 BASE 13.17 359 15.18 1 2.3 97 1.8 0 0 979.6 NA 0.0000 -SN BR 9000 430 0 0 0
2017/11/30 05:27:00 BASE 13.17 358 15.18 1 2.2 97 1.8 0 0 979.6 NA 0.0000 -SN BR 4200 390 0 0 0
2017/11/30 05:28:00 BASE 13.16 358 15.18 1 2.2 97 1.8 0 0 979.6 NA 0.0000 -SN BR 3400 360 0 0 0
2017/11/30 05:29:00 BASE 13.20 1 15.18 1 2.2 97 1.7 0 1 979.6 NA 0.0000 -SN BR 2900 390 0 0 0
2017/11/30 05:30:00 BASE 13.48 3 15.12 3 2.1 97 1.7 0 1 979.6 NA 0.2540 -SN BR 2700 360 0 0 0
2017/11/30 05:31:00 BASE 13.04 358 15.12 3 2.1 97 1.7 0 1 979.6 NA 0.0000 -SN BR 2400 360 0 0 0
2017/11/30 05:32:00 BASE 12.14 357 15.12 3 2.1 97 1.6 0 1 979.7 NA 0.0000 -SN BR 2700 390 0 0 0
2017/11/30 05:33:00 BASE 11.82 359 15.02 5 2.0 97 1.6 0 1 979.6 NA 0.0000 -SN BR 3000 390 0 0 0
2017/11/30 05:34:00 BASE 12.75 360 15.38 310 2.0 97 1.7 0 1 979.6 NA 0.2540 -SN BR 3700 360 0 0 0
2017/11/30 05:35:00 BASE 13.46 2 15.38 310 2.0 98 1.7 0 1 979.6 NA 0.0000 -SN BR 3300 390 0 0 0
2017/11/30 05:36:00 BASE 13.14 3 15.38 310 2.1 98 1.7 0 1 979.6 NA 0.0000 -SN BR 3400 390 0 0 0
2017/11/30 05:37:00 BASE 13.32 2 15.38 310 2.1 98 1.8 0 1 979.6 NA 0.0000 -SN BR 4000 360 0 0 0
2017/11/30 05:38:00 BASE 13.39 359 15.38 310 2.1 98 1.8 0 1 979.6 NA 0.0000 -SN BR 4300 390 0 0 0
2017/11/30 05:39:00 BASE 13.19 358 15.38 310 2.1 98 1.8 0 1 979.6 NA 0.2540 -SN BR 3600 390 0 0 0
2017/11/30 05:40:00 BASE 13.30 357 15.38 310 2.1 98 1.9 0 1 979.6 NA 0.0000 -SN BR 5000 660 0 0 0
2017/11/30 05:41:00 BASE 12.93 356 15.38 310 2.1 98 1.9 0 1 979.6 NA 0.0000 -SN BR 9999 980 0 0 0
2017/11/30 05:42:00 BASE 12.58 359 15.38 310 2.1 99 1.9 0 1 979.6 NA 0.0000 -SN BR 9999 430 2230 0 0
2017/11/30 05:43:00 BASE 12.81 1 15.38 310 2.1 99 1.9 1 2 979.6 NA 0.0000 -SN BR 9999 1740 0 0 0
2017/11/30 05:44:00 BASE 12.67 3 14.92 1 2.1 99 2.0 1 2 979.6 NA 0.0000 -SN BR 9999 390 0 0 0
2017/11/30 05:45:00 BASE 12.90 3 14.92 1 2.1 99 2.0 1 2 979.6 NA 0.0000 -SN BR 9999 2070 0 0 0
2017/11/30 05:46:00 BASE 12.75 0 14.92 1 2.1 99 2.0 1 2 979.6 NA 0.0000 -SN BR 9999 1510 2720 0 0
2017/11/30 05:47:00 BASE 12.54 0 14.92 1 2.1 100 2.0 1 2 979.6 NA 0.0000 -SN BR 9999 1350 2760 0 0
2017/11/30 05:48:00 BASE 13.10 3 14.76 3 2.1 100 2.1 1 2 979.6 NA 0.0000 -SN BR 9999 1350 0 0 0
2017/11/30 05:49:00 BASE 12.87 1 14.76 3 2.1 100 2.1 1 2 979.6 NA 0.0000 -SN 9999 430 0 0 0
2017/11/30 05:50:00 BASE 12.47 359 14.76 3 2.1 100 2.1 1 2 979.6 NA 0.0000 9999 430 0 0 0
2017/11/30 05:51:00 BASE 12.12 357 14.76 3 2.1 100 2.1 1 2 979.6 NA 0.0000 9999 1350 0 0 0
2017/11/30 05:52:00 BASE 11.60 355 14.76 3 2.1 100 2.1 1 3 979.6 NA 0.0000 9999 590 2360 0 0
2017/11/30 05:53:00 BASE 12.10 357 14.76 3 2.1 100 2.1 1 3 979.6 NA 0.0000 9999 560 2170 0 0
2017/11/30 05:54:00 BASE 12.65 359 14.76 3 2.1 100 2.1 1 3 979.6 NA 0.0000 9999 1350 2130 0 0
2017/11/30 05:55:00 BASE 12.15 1 14.76 3 2.1 100 2.1 1 3 979.6 NA 0.0000 9999 1380 2200 0 0
2017/11/30 05:56:00 BASE 12.12 0 14.76 3 2.2 100 2.2 1 3 979.6 NA 0.0000 9999 430 0 0 0
2017/11/30 05:57:00 BASE 12.30 1 14.76 3 2.2 100 2.2 1 3 979.6 NA 0.0000 9999 460 0 0 0
2017/11/30 05:58:00 BASE 12.27 2 14.40 353 2.2 100 2.2 1 3 979.6 NA 0.0000 9999 430 0 0 0
2017/11/30 05:59:00 BASE 11.87 2 14.30 1 2.2 100 2.2 1 4 979.6 NA 0.0000 9999 620 0 0 0
2017/11/30 06:00:00 BASE 11.18 4 14.30 1 2.2 100 2.2 1 4 979.6 NA 0.0000 9999 1440 0 0 0
2017/11/30 06:01:00 BASE 11.36 4 14.30 1 2.2 100 2.2 1 3 979.6 NA 0.0000 9999 1380 0 0 0
2017/11/30 06:02:00 BASE 11.76 3 14.30 1 2.3 100 2.3 1 3 979.6 NA 0.0000 9999 1310 0 0 0
2017/11/30 06:03:00 BASE 11.28 1 14.20 3 2.3 100 2.3 1 3 979.7 NA 0.0000 9999 1280 0 0 0
2017/11/30 06:04:00 BASE 10.73 2 13.94 228 2.3 100 2.3 1 3 979.7 NA 0.0000 9999 1180 0 0 0
2017/11/30 06:05:00 BASE 10.95 3 13.94 228 2.3 100 2.3 1 3 979.7 NA 0.0000 9999 1310 0 0 0
2017/11/30 06:06:00 BASE 10.99 3 12.86 1 2.3 100 2.3 1 3 979.7 NA 0.0000 9999 1250 0 0 0
2017/11/30 06:07:00 BASE 10.59 2 12.86 1 2.3 100 2.3 1 2 979.7 NA 0.0000 9999 1250 0 0 0
2017/11/30 06:08:00 BASE 10.59 359 12.40 3 2.4 99 2.3 1 2 979.8 NA 0.0000 9999 1280 0 0 0
2017/11/30 06:09:00 BASE 10.32 0 12.40 3 2.4 99 2.3 1 2 979.8 NA 0.0000 9999 1280 0 0 0
2017/11/30 06:10:00 BASE 10.21 1 12.40 3 2.4 99 2.3 1 2 979.8 NA 0.0000 9999 1210 0 0 0
2017/11/30 06:11:00 BASE 10.70 4 12.40 3 2.4 99 2.3 1 2 979.8 NA 0.0000 -SN 9999 390 0 0 0
2017/11/30 06:12:00 BASE 10.69 7 12.24 3 2.5 99 2.3 1 3 979.8 NA 0.0000 -SN 9999 390 0 0 0
2017/11/30 06:13:00 BASE 10.67 4 12.24 3 2.5 98 2.3 1 3 979.8 NA 0.0000 -SN 9999 1610 0 0 0
2017/11/30 06:14:00 BASE 11.24 6 12.66 6 2.5 98 2.2 1 3 979.7 NA 0.0000 -SN 9999 1740 0 0 0
2017/11/30 06:15:00 BASE 11.62 6 12.66 6 2.5 98 2.1 1 3 979.8 NA 0.0000 -SN 9999 1640 0 0 0
2017/11/30 06:16:00 BASE 11.37 4 12.66 6 2.5 97 2.1 1 3 979.8 NA 0.0000 -SN 9000 660 0 0 0
2017/11/30 06:17:00 BASE 11.07 4 12.66 6 2.4 97 2.0 1 4 979.8 NA 0.0000 -SN 8000 560 0 0 0
2017/11/30 06:18:00 BASE 11.24 3 12.66 6 2.4 97 2.0 1 4 979.8 NA 0.0000 -SN 9999 620 0 0 0
2017/11/30 06:19:00 BASE 11.40 359 12.66 6 2.3 98 2.0 1 4 979.7 NA 0.0000 -SN 8000 620 0 0 0
2017/11/30 06:20:00 BASE 11.89 358 13.38 1 2.3 98 2.0 1 4 979.7 NA 0.0000 -SN 7000 2430 0 0 0
2017/11/30 06:21:00 BASE 12.17 0 13.38 1 2.3 98 2.0 1 4 979.7 NA 0.0000 -SN 9999 2460 0 0 0
2017/11/30 06:22:00 BASE 12.28 2 13.68 6 2.2 98 2.0 1 4 979.7 NA 0.0000 -SN 9999 0 0 0 3450
2017/11/30 06:23:00 BASE 12.40 5 13.68 6 2.2 98 1.9 1 3 979.8 NA 0.0000 -SN BR 9000 0 0 0 3350
2017/11/30 06:24:00 BASE 11.77 3 13.68 6 2.2 98 1.9 1 3 979.8 NA 0.0000 -SN BR 9999 0 0 0 3150
2017/11/30 06:25:00 BASE 11.38 2 13.68 6 2.1 98 1.9 1 4 979.8 NA 0.0000 -SN BR 9999 2170 0 0 0
2017/11/30 06:26:00 BASE 11.57 3 13.68 6 2.1 99 1.9 1 4 979.8 NA 0.0000 -SN 9999 2230 0 0 0
2017/11/30 06:27:00 BASE 11.48 3 13.68 6 2.1 99 1.9 1 4 979.8 NA 0.0000 -SN 9999 2070 0 0 0
2017/11/30 06:28:00 BASE 11.06 2 13.68 6 2.1 99 2.0 1 4 979.8 NA 0.0000 -SN 9999 2130 0 0 0
2017/11/30 06:29:00 BASE 10.88 1 13.68 6 2.1 99 2.0 1 4 979.8 NA 0.0000 -SN 9999 0 0 0 2990
2017/11/30 06:30:00 BASE 10.91 2 13.68 6 2.2 99 2.0 1 5 979.8 NA 0.0000 -SN 9999 820 0 0 0
2017/11/30 06:31:00 BASE 11.14 2 13.68 6 2.2 99 2.1 1 5 979.8 NA 0.0000 -SN 9999 690 2660 0 0
2017/11/30 06:32:00 BASE 10.94 4 13.17 3 2.2 99 2.1 1 5 979.8 NA 0.0000 -SN 9999 2100 0 0 0
2017/11/30 06:33:00 BASE 10.28 5 13.17 3 2.2 99 2.1 1 5 979.9 NA 0.0000 -SN 9999 1970 0 0 0
2017/11/30 06:34:00 BASE 10.03 5 13.17 3 2.2 99 2.1 1 5 979.8 NA 0.0000 -SN 9999 1970 0 0 0
2017/11/30 06:35:00 BASE 10.27 6 13.17 3 2.2 99 2.1 1 5 979.8 NA 0.0000 -SN 9999 1900 0 0 0
2017/11/30 06:36:00 BASE 10.32 5 12.19 5 2.2 99 2.1 1 5 979.8 NA 0.0000 -SN 9999 1840 0 0 0
2017/11/30 06:37:00 BASE 10.06 5 12.04 3 2.2 99 2.1 1 5 979.8 NA 0.0000 9999 1840 0 0 0
2017/11/30 06:38:00 BASE 10.20 5 12.04 3 2.2 99 2.1 2 6 979.8 NA 0.0000 9999 1840 0 0 0
2017/11/30 06:39:00 BASE 10.30 4 12.04 3 2.2 99 2.0 2 6 979.8 NA 0.0000 9999 1900 0 0 0
2017/11/30 06:40:00 BASE 10.14 5 12.04 3 2.3 98 2.0 2 6 979.9 NA 0.0000 9999 1870 0 0 0
2017/11/30 06:41:00 BASE 9.95 4 11.57 2 2.3 98 2.0 2 6 979.9 NA 0.0000 9999 1840 0 0 0
2017/11/30 06:42:00 BASE 9.76 3 11.57 2 2.3 98 2.0 2 6 979.9 NA 0.0000 9999 1840 0 0 0
2017/11/30 06:43:00 BASE 9.55 3 11.57 2 2.3 98 2.0 2 6 979.9 NA 0.0000 9999 1800 0 0 0
2017/11/30 06:44:00 BASE 9.36 4 11.57 2 2.3 97 1.9 2 6 979.9 NA 0.0000 9999 1840 0 0 0
2017/11/30 06:45:00 BASE 8.84 5 11.57 2 2.3 97 1.9 2 6 979.9 NA 0.0000 9999 1800 0 0 0
2017/11/30 06:46:00 BASE 8.54 3 11.57 2 2.3 97 1.9 2 6 979.9 NA 0.0000 9999 1870 0 0 0
2017/11/30 06:47:00 BASE 9.31 4 11.57 2 2.4 97 1.9 2 6 979.9 NA 0.0000 9999 1740 0 0 0
2017/11/30 06:48:00 BASE 9.78 4 11.57 2 2.4 97 1.9 2 6 979.9 NA 0.0000 9999 1710 0 0 0
2017/11/30 06:49:00 BASE 9.40 1 11.57 2 2.4 97 1.9 2 7 979.9 NA 0.0000 9999 1800 0 0 0
2017/11/30 06:50:00 BASE 9.05 3 11.11 1 2.4 97 1.9 2 7 979.9 NA 0.0000 9999 1710 0 0 0
2017/11/30 06:51:00 BASE 9.36 3 11.11 1 2.4 96 1.9 2 7 979.9 NA 0.0000 9999 1740 0 0 0
2017/11/30 06:52:00 BASE 9.39 3 11.11 1 2.4 96 1.9 2 7 979.9 NA 0.0000 9999 1800 0 0 0
2017/11/30 06:53:00 BASE 8.98 1 11.11 1 2.4 96 1.8 2 7 979.9 NA 0.0000 9999 1770 0 0 0
2017/11/30 06:54:00 BASE 8.98 3 11.11 1 2.4 96 1.8 2 7 980.0 NA 0.0000 9999 1670 0 0 0
2017/11/30 06:55:00 BASE 9.25 4 11.11 1 2.4 96 1.9 2 7 979.9 NA 0.0000 9999 1540 0 0 0
2017/11/30 06:56:00 BASE 9.24 1 11.11 1 2.5 96 1.9 2 8 979.9 NA 0.0000 9999 1710 0 0 0
2017/11/30 06:57:00 BASE 9.02 4 10.75 3 2.5 96 1.9 2 9 979.9 NA 0.0000 9999 1740 0 0 0
2017/11/30 06:58:00 BASE 8.30 3 10.75 3 2.5 96 1.8 3 10 980.0 NA 0.0000 9999 1840 0 0 0
2017/11/30 06:59:00 BASE 7.56 3 10.75 3 2.5 96 1.8 3 11 980.0 NA 0.0000 9999 1800 0 0 0
2017/11/30 07:00:00 BASE 7.69 2 10.75 3 2.4 96 1.8 3 11 980.0 NA 0.0000 9999 1710 0 0 0
2017/11/30 07:01:00 BASE 8.41 1 10.34 360 2.4 96 1.8 3 12 980.0 NA 0.0000 9999 690 0 0 0
2017/11/30 07:02:00 BASE 8.97 3 10.34 360 2.4 96 1.8 3 12 979.9 NA 0.0000 9999 1870 0 0 0
2017/11/30 07:03:00 BASE 9.04 8 10.34 360 2.4 96 1.8 3 12 980.0 NA 0.0000 9999 1840 0 0 0
2017/11/30 07:04:00 BASE 9.13 7 11.99 10 2.4 96 1.8 3 12 980.0 NA 0.0000 9999 1020 0 0 0
2017/11/30 07:05:00 BASE 10.37 4 12.45 4 2.4 96 1.8 4 12 979.9 NA 0.0000 9999 1770 0 0 0
2017/11/30 07:06:00 BASE 11.13 2 12.45 4 2.4 96 1.8 4 12 980.0 NA 0.0000 9999 1770 0 0 0
2017/11/30 07:07:00 BASE 10.48 1 12.45 4 2.4 96 1.8 4 13 980.0 NA 0.0000 9999 1870 0 0 0
2017/11/30 07:08:00 BASE 10.07 358 12.45 4 2.4 96 1.8 4 12 980.0 NA 0.0000 9999 1970 0 0 0
2017/11/30 07:09:00 BASE 9.50 356 12.45 4 2.3 96 1.8 4 13 980.1 NA 0.0000 UP 9999 520 1870 0 0
2017/11/30 07:10:00 BASE 9.12 359 12.45 4 2.3 96 1.8 4 13 980.1 NA 0.0000 UP 9999 560 1900 0 0
2017/11/30 07:11:00 BASE 8.95 355 12.45 4 2.3 96 1.8 4 13 980.1 NA 0.0000 UP 9999 660 1970 0 0
2017/11/30 07:12:00 BASE 8.72 353 12.45 4 2.3 97 1.8 4 13 980.1 NA 0.0000 UP 9999 720 0 0 0
2017/11/30 07:13:00 BASE 8.71 356 12.45 4 2.3 97 1.9 4 13 980.1 NA 0.0000 UP 9999 720 0 0 0
2017/11/30 07:14:00 BASE 9.13 359 12.45 4 2.3 97 1.9 4 12 980.1 NA 0.0000 UP 9999 620 0 0 0
2017/11/30 07:15:00 BASE 9.58 2 11.63 360 2.3 97 1.9 4 12 980.1 NA 0.0000 UP 9999 430 0 0 0
2017/11/30 07:16:00 BASE 9.28 359 11.01 2 2.4 96 1.8 4 13 980.1 NA 0.0000 UP 9999 430 0 0 0
2017/11/30 07:17:00 BASE 8.79 360 10.91 346 2.4 96 1.8 4 14 980.1 NA 0.0000 UP 9999 520 0 0 0
2017/11/30 07:18:00 BASE 8.65 1 10.55 360 2.4 96 1.8 4 15 980.1 NA 0.0000 UP 9999 620 0 0 0
2017/11/30 07:19:00 BASE 9.13 360 10.55 360 2.3 96 1.8 5 16 980.1 NA 0.0000 UP 9999 490 0 0 0
2017/11/30 07:20:00 BASE 8.95 3 10.55 360 2.3 96 1.7 6 18 980.1 NA 0.0000 UP 9999 560 0 0 0
2017/11/30 07:21:00 BASE 8.68 360 10.55 360 2.3 96 1.7 7 20 980.1 NA 0.0000 UP 9999 750 0 0 0
2017/11/30 07:22:00 BASE 8.74 357 10.55 360 2.3 96 1.7 8 23 980.1 NA 0.0000 UP 9999 1840 0 0 0
2017/11/30 07:23:00 BASE 8.55 360 10.55 360 2.3 96 1.7 10 26 980.1 NA 0.0000 UP 9999 1770 0 0 0
2017/11/30 07:24:00 BASE 9.07 359 10.55 360 2.3 96 1.7 11 28 980.0 NA 0.0000 UP 9999 1940 0 0 0
2017/11/30 07:25:00 BASE 9.45 354 10.55 360 2.3 96 1.7 13 31 980.0 NA 0.0000 UP 9999 890 0 0 0
2017/11/30 07:26:00 BASE 9.87 359 11.11 3 2.3 96 1.7 14 33 980.0 NA 0.0000 UP 9999 2100 2620 0 0
2017/11/30 07:27:00 BASE 10.51 1 11.42 2 2.3 96 1.7 15 35 980.0 NA 0.0000 UP 9999 920 0 0 0
2017/11/30 07:28:00 BASE 10.80 2 11.57 12 2.3 96 1.7 16 36 980.0 NA 0.0000 UP 9999 1970 0 0 0
2017/11/30 07:29:00 BASE 10.80 2 11.57 12 2.3 96 1.7 16 36 980.0 NA 0.0000 UP 9999 1970 0 0 0
2017/11/30 07:30:00 BASE 10.67 359 11.57 12 2.3 96 1.7 16 36 980.0 NA 0.0000 UP 9999 1870 0 0 0
2017/11/30 07:31:00 BASE 10.43 1 11.57 12 2.3 96 1.7 17 38 980.0 NA 0.0000 UP 9999 1870 0 0 0
2017/11/30 07:32:00 BASE 9.69 1 11.57 12 2.3 96 1.7 18 39 980.0 NA 0.0000 9999 1840 0 0 0
2017/11/30 07:33:00 BASE 9.53 3 11.57 12 2.3 96 1.7 18 41 980.0 NA 0.0000 9999 1870 0 0 0
2017/11/30 07:34:00 BASE 9.47 3 11.57 12 2.3 96 1.7 19 41 980.1 NA 0.0000 9999 1870 0 0 0
2017/11/30 07:35:00 BASE 9.22 0 11.57 12 2.3 96 1.7 19 41 980.1 NA 0.0000 9999 1800 0 0 0
2017/11/30 07:36:00 BASE 9.07 358 11.57 12 2.3 96 1.7 19 41 980.2 NA 0.0000 9999 1900 0 0 0
2017/11/30 07:37:00 BASE 8.78 357 11.57 12 2.3 95 1.6 18 40 980.2 NA 0.0000 9999 1280 0 0 0
2017/11/30 07:38:00 BASE 8.67 359 11.47 1 2.3 95 1.6 19 42 980.3 NA 0.0000 9999 590 0 0 0
2017/11/30 07:39:00 BASE 8.15 354 11.11 5 2.3 95 1.6 19 42 980.3 NA 0.0000 9999 720 0 0 0
2017/11/30 07:40:00 BASE 7.72 351 11.11 5 2.3 95 1.6 17 40 980.3 NA 0.0000 9999 1180 0 0 0
2017/11/30 07:41:00 BASE 7.80 351 11.11 5 2.3 95 1.6 16 37 980.3 NA 0.0000 9999 1740 0 0 0
2017/11/30 07:42:00 BASE 8.17 345 11.11 5 2.3 95 1.6 14 35 980.3 NA 0.0000 9999 1770 0 0 0
2017/11/30 07:43:00 BASE 8.87 341 10.44 341 2.3 95 1.6 13 34 980.3 NA 0.0000 9999 1280 0 0 0
2017/11/30 07:44:00 BASE 8.89 340 10.44 341 2.3 94 1.5 14 35 980.3 NA 0.0000 9999 850 1770 0 0
2017/11/30 07:45:00 BASE 8.04 334 10.44 341 2.4 94 1.5 15 38 980.3 NA 0.0000 9999 790 1770 0 0
2017/11/30 07:46:00 BASE 7.53 334 10.44 341 2.4 94 1.5 15 38 980.4 NA 0.0000 9999 1410 0 0 0
2017/11/30 07:47:00 BASE 7.32 337 10.44 341 2.4 94 1.5 15 37 980.4 NA 0.0000 9999 1800 0 0 0
2017/11/30 07:48:00 BASE 7.34 335 10.44 341 2.3 94 1.5 15 37 980.4 NA 0.0000 9999 520 0 0 0
2017/11/30 07:49:00 BASE 7.44 336 10.44 341 2.3 94 1.5 16 39 980.4 NA 0.0000 UP 9999 490 0 0 0
2017/11/30 07:50:00 BASE 7.45 341 10.44 341 2.3 94 1.4 17 43 980.4 NA 0.0000 UP 9999 460 0 0 0
2017/11/30 07:51:00 BASE 7.28 346 10.44 341 2.2 94 1.4 19 47 980.3 NA 0.0000 UP 9999 520 0 0 0
2017/11/30 07:52:00 BASE 6.87 348 10.44 341 2.2 94 1.4 20 50 980.3 NA 0.0000 UP 9999 1970 0 0 0
2017/11/30 07:53:00 BASE 7.19 350 8.85 341 2.1 95 1.4 21 52 980.3 NA 0.0000 UP 9999 2100 0 0 0
2017/11/30 07:54:00 BASE 7.82 357 9.16 7 2.1 95 1.4 22 54 980.2 NA 0.0000 UP 9999 2690 0 0 0
2017/11/30 07:55:01 BASE 9.25 3 11.73 9 2.1 96 1.5 23 56 980.1 NA 0.0000 UP 9999 750 0 0 0
2017/11/30 07:56:00 BASE 10.97 359 12.45 354 2.1 96 1.5 24 59 980.0 NA 0.0000 UP 9999 2590 0 0 0
2017/11/30 07:57:00 BASE 11.35 359 12.45 354 2.1 96 1.5 26 63 980.0 NA 0.0000 UP 9999 2590 0 0 0
2017/11/30 07:58:00 BASE 11.21 359 12.45 354 2.1 96 1.5 27 67 980.0 NA 0.0000 UP 9999 1050 0 0 0
2017/11/30 07:59:00 BASE 10.96 358 12.45 354 2.1 96 1.6 29 70 980.0 NA 0.0000 UP 9999 1310 0 0 0
2017/11/30 08:00:00 BASE 11.46 1 13.02 6 2.2 96 1.6 28 67 980.0 NA 0.0000 UP 9999 2360 0 0 0
2017/11/30 08:01:00 BASE 12.14 1 13.48 4 2.2 96 1.6 25 62 979.9 NA 0.0000 UP 9999 2130 0 0 0
2017/11/30 08:02:00 BASE 12.74 1 13.79 1 2.2 95 1.6 24 60 979.9 NA 0.0000 9999 2100 0 0 0
2017/11/30 08:03:00 BASE 12.82 3 13.84 10 2.3 95 1.6 25 62 979.9 NA 0.0000 9999 2030 0 0 0
2017/11/30 08:04:00 BASE 12.28 3 13.84 10 2.3 95 1.5 26 64 979.9 NA 0.0000 9999 2230 0 0 0
2017/11/30 08:05:00 BASE 12.30 2 13.84 10 2.3 94 1.5 26 65 979.9 NA 0.0000 9999 2330 0 0 0
2017/11/30 08:06:00 BASE 11.80 1 13.84 10 2.3 94 1.4 26 65 980.0 NA 0.0000 9999 2260 0 0 0
2017/11/30 08:07:00 BASE 10.93 360 13.84 10 2.3 94 1.4 26 64 980.0 NA 0.0000 9999 2230 0 0 0
2017/11/30 08:08:00 BASE 10.95 2 13.84 10 2.3 94 1.4 24 60 980.0 NA 0.0000 9999 2130 0 0 0
2017/11/30 08:09:00 BASE 11.78 3 13.84 10 2.3 94 1.4 22 57 980.0 NA 0.0000 9999 1940 0 0 0
2017/11/30 08:10:00 BASE 11.68 3 13.84 10 2.3 94 1.4 23 58 980.1 NA 0.0000 9999 2100 0 0 0
2017/11/30 08:11:00 BASE 11.27 1 13.84 10 2.3 94 1.4 23 61 980.1 NA 0.0000 9999 2100 0 0 0
2017/11/30 08:12:00 BASE 11.45 0 13.84 10 2.3 94 1.4 24 62 980.1 NA 0.0000 9999 2300 0 0 0
2017/11/30 08:13:00 BASE 12.05 0 14.04 2 2.3 94 1.4 24 61 980.1 NA 0.0000 9999 2300 0 0 0
2017/11/30 08:14:00 BASE 12.84 2 14.04 2 2.3 94 1.4 24 63 980.1 NA 0.0000 9999 2330 0 0 0
2017/11/30 08:15:00 BASE 12.78 3 14.04 2 2.3 94 1.4 26 68 980.1 NA 0.0000 9999 2490 0 0 0
2017/11/30 08:16:00 BASE 12.52 3 14.04 2 2.3 94 1.4 29 74 980.1 NA 0.0000 9999 2490 0 0 0
2017/11/30 08:17:00 BASE 12.41 2 14.04 2 2.4 93 1.4 31 79 980.1 NA 0.0000 9999 2260 0 0 0
2017/11/30 08:18:00 BASE 12.39 3 14.04 2 2.4 93 1.4 33 83 980.1 NA 0.0000 9999 2130 0 0 0
2017/11/30 08:19:00 BASE 12.05 5 14.04 2 2.4 93 1.4 34 86 980.2 NA 0.0000 9999 2100 0 0 0
2017/11/30 08:20:00 BASE 11.45 6 14.04 2 2.4 93 1.3 35 89 980.2 NA 0.0000 9999 2000 0 0 0
2017/11/30 08:21:00 BASE 11.41 8 14.04 2 2.4 92 1.3 36 91 980.2 NA 0.0000 9999 2000 0 0 0
2017/11/30 08:22:00 BASE 11.46 7 14.04 2 2.5 92 1.3 37 93 980.2 NA 0.0000 9999 1900 0 0 0
2017/11/30 08:23:00 BASE 11.15 5 13.94 1 2.5 92 1.3 36 92 980.2 NA 0.0000 9999 2100 2990 0 0
2017/11/30 08:24:00 BASE 11.36 5 13.53 360 2.5 92 1.3 36 90 980.2 NA 0.0000 9999 2460 0 0 0
2017/11/30 08:25:00 BASE 11.81 5 13.38 2 2.5 92 1.3 36 91 980.2 NA 0.0000 9999 2260 0 0 0
2017/11/30 08:26:00 BASE 12.03 5 13.38 2 2.5 91 1.2 35 89 980.2 NA 0.0000 9999 2990 0 0 0
2017/11/30 08:27:00 BASE 12.09 5 13.38 2 2.5 91 1.2 33 85 980.3 NA 0.0000 9999 3050 0 0 0
2017/11/30 08:28:00 BASE 11.90 2 13.12 2 2.5 91 1.2 31 81 980.3 NA 0.0000 9999 3220 0 0 0
2017/11/30 08:29:00 BASE 11.71 2 13.12 2 2.5 91 1.2 31 79 980.3 NA 0.0000 9999 3180 3640 0 0
2017/11/30 08:30:00 BASE 11.36 4 13.02 3 2.5 91 1.2 31 79 980.3 NA 0.0000 9999 3870 0 0 0
2017/11/30 08:31:00 BASE 11.32 4 13.02 3 2.5 91 1.2 31 80 980.3 NA 0.0000 9999 2130 2920 3710 0
2017/11/30 08:32:00 BASE 11.42 4 13.02 3 2.5 91 1.2 32 83 980.3 NA 0.0000 9999 2030 3740 0 0
2017/11/30 08:33:00 BASE 11.05 6 13.02 3 2.5 91 1.2 34 89 980.4 NA 0.0000 9999 1870 0 0 0
2017/11/30 08:34:00 BASE 10.92 8 13.02 3 2.5 91 1.2 39 99 980.3 NA 0.0000 9999 1870 0 0 0
2017/11/30 08:35:00 BASE 11.12 7 13.02 3 2.5 91 1.2 43 108 980.3 NA 0.0000 9999 3940 0 0 0
2017/11/30 08:36:00 BASE 11.12 6 12.71 1 2.5 91 1.2 46 116 980.3 NA 0.0000 9999 4000 0 0 0
2017/11/30 08:37:00 BASE 10.82 9 12.50 3 2.6 91 1.2 48 120 980.4 NA 0.0000 9999 2460 4070 0 0
2017/11/30 08:38:00 BASE 10.26 10 12.45 9 2.6 91 1.2 49 123 980.4 NA 0.0000 9999 2460 4130 0 0
2017/11/30 08:39:00 BASE 10.43 8 12.45 9 2.6 90 1.2 48 121 980.4 NA 0.0000 9999 2330 0 0 0
2017/11/30 08:40:00 BASE 11.13 5 12.45 9 2.6 90 1.2 48 120 980.4 NA 0.0000 9999 2070 0 0 0
2017/11/30 08:41:00 BASE 11.33 5 12.50 15 2.6 90 1.1 47 119 980.4 NA 0.0000 9999 1640 0 0 0
2017/11/30 08:42:00 BASE 10.77 6 12.50 15 2.6 90 1.1 45 115 980.4 NA 0.0000 9999 1770 3840 0 0
2017/11/30 08:43:00 BASE 10.50 5 12.50 15 2.6 90 1.1 41 106 980.5 NA 0.0000 9999 3350 0 0 0
2017/11/30 08:44:00 BASE 11.15 5 12.50 15 2.6 90 1.1 35 94 980.5 NA 0.0000 9999 1410 4000 0 0
2017/11/30 08:45:00 BASE 11.03 5 12.50 15 2.6 90 1.1 31 84 980.6 NA 0.0000 9999 1670 2170 0 0
2017/11/30 08:46:00 BASE 10.38 4 12.50 15 2.6 90 1.1 28 76 980.6 NA 0.0000 9999 1640 0 0 0
2017/11/30 08:47:00 BASE 10.36 358 12.50 15 2.6 90 1.1 25 69 980.6 NA 0.0000 9999 1510 0 0 0
2017/11/30 08:48:00 BASE 10.34 352 12.50 15 2.6 90 1.1 23 64 980.7 NA 0.0000 9999 1540 0 0 0
2017/11/30 08:49:00 BASE 10.48 355 12.50 15 2.5 90 1.1 23 63 980.7 NA 0.0000 9999 1510 0 0 0
2017/11/30 08:50:00 BASE 10.76 360 12.50 15 2.5 90 1.1 23 63 980.7 NA 0.0000 9999 1900 0 0 0
2017/11/30 08:51:00 BASE 10.87 5 12.45 360 2.4 91 1.1 24 65 980.7 NA 0.0000 9999 790 2300 0 0
2017/11/30 08:52:00 BASE 10.71 1 12.45 360 2.4 91 1.1 23 64 980.7 NA 0.0000 9999 750 2200 0 0
2017/11/30 08:53:00 BASE 10.62 360 12.45 360 2.4 91 1.1 23 63 980.7 NA 0.0000 9999 750 2130 0 0
2017/11/30 08:54:00 BASE 10.66 2 12.04 2 2.4 91 1.1 26 70 980.7 NA 0.0000 9999 720 1770 0 0
2017/11/30 08:55:00 BASE 10.79 360 12.04 2 2.4 91 1.1 30 80 980.7 NA 0.0000 9999 720 1670 0 0
2017/11/30 08:56:00 BASE 11.28 359 12.45 353 2.4 91 1.1 33 88 980.7 NA 0.0000 9999 1050 0 0 0
2017/11/30 08:57:00 BASE 11.80 358 13.48 354 2.3 92 1.1 36 94 980.7 NA 0.0000 9999 790 0 0 0
2017/11/30 08:58:00 BASE 11.80 360 13.48 354 2.3 92 1.1 39 100 980.7 NA 0.0000 9999 720 1570 0 0
2017/11/30 08:59:00 BASE 12.50 3 15.07 353 2.3 92 1.1 40 104 980.6 NA 0.0000 9999 660 1870 0 0
2017/11/30 09:00:00 BASE 13.36 2 15.07 353 2.3 92 1.2 39 102 980.7 NA 0.0000 9999 690 1970 0 0
2017/11/30 09:01:00 BASE 13.08 2 15.07 353 2.3 92 1.2 40 104 980.7 NA 0.0000 UP 9999 590 0 0 0
2017/11/30 09:02:00 BASE 12.98 2 15.07 353 2.3 93 1.2 42 109 980.7 NA 0.0000 UP 9999 750 0 0 0
2017/11/30 09:03:00 BASE 12.79 1 15.07 353 2.3 93 1.2 42 110 980.7 NA 0.0000 UP 9999 1180 0 0 0
2017/11/30 09:04:00 BASE 12.57 359 15.07 353 2.2 93 1.2 41 109 980.7 NA 0.0000 UP 9999 1540 0 0 0
2017/11/30 09:05:00 BASE 12.42 358 15.07 353 2.2 93 1.2 39 105 980.7 NA 0.0000 UP 9999 1670 0 0 0
2017/11/30 09:06:00 BASE 12.43 359 15.07 353 2.2 93 1.2 36 98 980.7 NA 0.0000 UP 9999 850 23070 0 0
2017/11/30 09:07:00 BASE 12.60 360 15.07 353 2.2 94 1.3 33 90 980.7 NA 0.0000 UP 9999 890 0 0 0
2017/11/30 09:08:00 BASE 12.53 359 15.07 353 2.2 94 1.3 29 82 980.8 NA 0.0000 UP 9999 850 0 0 0
2017/11/30 09:09:00 BASE 12.21 353 14.20 1 2.2 94 1.4 26 74 980.8 NA 0.0000 UP 9999 720 0 0 0
2017/11/30 09:10:00 BASE 11.82 351 14.20 1 2.2 94 1.4 25 70 980.8 NA 0.0000 UP 9999 790 1870 0 0
2017/11/30 09:11:00 BASE 11.63 353 13.84 3 2.2 95 1.4 23 66 980.9 NA 0.0000 UP 9999 720 0 0 0
2017/11/30 09:12:00 BASE 11.79 357 13.74 1 2.2 95 1.5 22 63 980.9 NA 0.0000 UP 9999 790 0 0 0
2017/11/30 09:13:00 BASE 11.70 356 13.74 1 2.2 95 1.5 21 60 980.9 NA 0.0000 UP 9999 690 0 0 0
2017/11/30 09:14:00 BASE 11.55 351 13.74 1 2.3 95 1.5 20 59 981.0 NA 0.0000 UP 9999 720 0 0 0
2017/11/30 09:15:00 BASE 11.11 351 13.74 1 2.3 95 1.6 20 59 981.0 NA 0.0000 UP 9999 720 0 0 0
2017/11/30 09:16:00 BASE 10.73 350 13.48 1 2.3 95 1.6 21 60 981.0 NA 0.0000 UP 9999 820 0 0 0
2017/11/30 09:17:00 BASE 10.87 351 13.12 354 2.3 95 1.5 22 62 981.1 NA 0.0000 UP 9999 790 0 0 0
2017/11/30 09:18:00 BASE 10.77 351 12.71 3 2.2 95 1.6 23 64 981.0 NA 0.0000 UP 9999 690 0 0 0
2017/11/30 09:19:00 BASE 10.34 351 12.66 310 2.2 95 1.6 24 67 981.1 NA 0.0000 UP 9999 1380 0 0 0
2017/11/30 09:20:00 BASE 10.02 350 12.66 310 2.2 96 1.6 26 73 981.1 NA 0.0000 UP 9999 1380 0 0 0
2017/11/30 09:21:00 BASE 9.23 351 12.55 38 2.2 96 1.6 27 76 981.2 NA 0.0000 UP 9999 690 0 0 0
2017/11/30 09:22:00 BASE 8.85 350 12.45 349 2.1 96 1.6 28 79 981.2 NA 0.0000 UP 9999 690 0 0 0
2017/11/30 09:23:00 BASE 9.61 347 12.45 349 2.1 96 1.6 29 80 981.1 NA 0.0000 UP 9999 1310 0 0 0
2017/11/30 09:24:00 BASE 9.53 347 11.78 354 2.1 97 1.6 29 81 981.2 NA 0.0000 UP 9999 1350 0 0 0
2017/11/30 09:25:00 BASE 9.11 347 11.78 354 2.1 97 1.7 29 83 981.2 NA 0.0000 UP 9999 1410 0 0 0
2017/11/30 09:26:00 BASE 9.45 347 11.78 354 2.1 97 1.7 30 86 981.1 NA 0.0000 UP 9999 1410 0 0 0
2017/11/30 09:27:00 BASE 10.18 347 11.57 348 2.1 98 1.8 32 89 981.1 NA 0.0000 UP 9999 1380 0 0 0
2017/11/30 09:28:00 BASE 10.25 346 10.91 342 2.2 98 1.8 32 89 981.1 NA 0.0000 UP 9999 1410 0 0 0
2017/11/30 09:29:00 BASE 9.73 346 10.91 342 2.2 98 1.9 29 82 981.1 NA 0.0000 UP 9999 980 0 0 0
2017/11/30 09:30:00 BASE 9.49 350 10.91 342 2.2 97 1.8 27 77 981.1 NA 0.0000 UP 9999 1410 0 0 0
2017/11/30 09:31:00 BASE 9.67 354 10.91 342 2.2 97 1.8 27 77 981.1 NA 0.0000 UP 9999 1380 0 0 0
2017/11/30 09:32:00 BASE 10.27 351 11.27 352 2.2 97 1.8 26 76 981.1 NA 0.0000 9999 790 0 0 0
2017/11/30 09:33:00 BASE 10.56 350 11.42 350 2.2 97 1.7 26 77 981.1 NA 0.0000 9999 1480 0 0 0
2017/11/30 09:34:00 BASE 10.55 352 11.73 360 2.1 97 1.7 29 84 981.1 NA 0.0000 9999 690 0 0 0
2017/11/30 09:35:00 BASE 10.45 355 11.73 360 2.1 97 1.7 31 91 981.1 NA 0.0000 9999 1510 0 0 0
2017/11/30 09:36:00 BASE 10.47 358 11.73 360 2.1 97 1.7 32 94 981.0 NA 0.0000 9999 1570 0 0 0
2017/11/30 09:37:00 BASE 10.70 358 11.88 354 2.1 97 1.7 33 94 981.0 NA 0.0000 9999 1510 0 0 0
2017/11/30 09:38:00 BASE 11.28 359 12.50 360 2.1 97 1.7 32 93 981.0 NA 0.0000 9999 1610 0 0 0
2017/11/30 09:39:00 BASE 11.86 360 12.91 221 2.1 97 1.7 33 95 981.0 NA 0.0000 9999 1610 2300 0 0
2017/11/30 09:40:00 BASE 12.07 358 12.91 221 2.0 97 1.6 41 113 981.0 NA 0.0000 9999 1510 0 0 0
2017/11/30 09:41:00 BASE 11.96 1 12.91 221 2.0 97 1.6 47 127 980.9 NA 0.0000 UP 9999 1610 0 0 0
2017/11/30 09:42:00 BASE 11.94 360 12.91 10 2.0 97 1.7 48 128 981.0 NA 0.0000 UP 9999 1740 2360 0 0
2017/11/30 09:43:00 BASE 11.95 359 12.91 10 2.0 98 1.7 47 127 981.0 NA 0.0000 UP 9999 1770 0 0 0
2017/11/30 09:44:00 BASE 12.21 359 13.68 3 2.0 98 1.7 49 132 980.9 NA 0.0000 9999 1870 0 0 0
2017/11/30 09:45:00 BASE 12.71 352 13.79 11 2.0 98 1.7 54 143 980.9 NA 0.0000 9999 1640 0 0 0
2017/11/30 09:46:00 BASE 12.46 353 13.79 11 2.0 98 1.7 59 152 980.9 NA 0.0000 9999 1740 2620 0 0
2017/11/30 09:47:00 BASE 12.17 357 13.79 11 2.0 98 1.7 61 159 981.0 NA 0.0000 UP 9999 1840 2530 0 0
2017/11/30 09:48:00 BASE 12.07 2 13.79 11 2.0 98 1.7 68 174 980.9 NA 0.0000 UP 9999 1610 0 0 0
2017/11/30 09:49:00 BASE 12.36 4 13.79 11 2.0 98 1.7 77 196 980.9 NA 0.0000 UP 9999 1670 0 0 0
2017/11/30 09:50:00 BASE 12.65 357 13.84 265 2.0 98 1.7 84 211 980.9 NA 0.0000 UP 9999 1870 0 0 0
2017/11/30 09:51:00 BASE 12.24 357 13.84 265 2.0 98 1.8 91 226 980.9 NA 0.0000 UP 9999 2330 0 0 0
2017/11/30 09:52:00 BASE 12.23 2 13.84 265 2.0 99 1.8 99 243 980.9 NA 0.0000 UP 9999 2130 0 0 0
2017/11/30 09:53:00 BASE 12.58 1 13.84 265 2.0 99 1.9 104 255 980.8 NA 0.0000 UP 9999 3050 0 0 0
2017/11/30 09:54:00 BASE 12.68 1 13.84 265 2.0 99 1.9 101 247 980.9 NA 0.0000 UP 9999 0 0 0 4200
2017/11/30 09:55:00 BASE 12.73 0 13.84 265 2.0 99 1.9 90 224 980.9 NA 0.0000 UP 9999 0 0 0 3770
2017/11/30 09:56:00 BASE 12.62 1 13.84 265 2.1 99 1.9 77 195 981.0 NA 0.0000 UP 9999 3900 0 0 0
2017/11/30 09:57:00 BASE 12.34 359 13.84 265 2.1 99 1.9 65 168 981.0 NA 0.0000 9999 3050 0 0 0
2017/11/30 09:58:00 BASE 12.57 353 13.84 265 2.1 99 2.0 56 148 981.0 NA 0.0000 9999 3020 0 0 0
2017/11/30 09:59:00 BASE 12.46 353 13.84 265 2.1 99 2.0 52 139 981.0 NA 0.0000 9999 2530 0 0 0
2017/11/30 10:00:00 BASE 12.06 359 13.74 1 2.1 99 2.0 50 134 981.0 NA 0.0000 9999 2400 0 0 0
2017/11/30 10:01:00 BASE 12.31 1 13.74 1 2.1 99 2.0 50 134 981.0 NA 0.0000 9999 2260 2790 0 0
2017/11/30 10:02:00 BASE 12.35 2 13.74 1 2.1 99 2.0 53 142 981.1 NA 0.0000 9999 2430 3080 0 0
2017/11/30 10:03:00 BASE 12.32 2 13.74 1 2.1 99 2.0 60 158 981.1 NA 0.0000 9999 2850 0 0 0
2017/11/30 10:04:00 BASE 12.22 3 13.74 1 2.1 99 2.0 70 179 981.1 NA 0.0000 9999 2720 0 0 0
2017/11/30 10:05:00 BASE 11.72 4 13.68 151 2.1 99 2.0 81 205 981.1 NA 0.0000 9999 2560 0 0 0
2017/11/30 10:06:00 BASE 11.86 4 13.68 151 2.1 99 2.0 94 232 981.1 NA 0.0000 9999 2990 0 0 0
2017/11/30 10:07:00 BASE 12.19 4 13.68 151 2.1 99 2.0 104 254 981.1 NA 0.0000 9999 2890 3580 0 0
2017/11/30 10:08:00 BASE 12.00 5 13.17 3 2.1 99 2.0 110 267 981.1 NA 0.0000 9999 3080 3640 0 0
2017/11/30 10:09:00 BASE 12.01 5 13.17 3 2.1 99 2.0 116 282 981.1 NA 0.0000 9999 3050 0 0 0
2017/11/30 10:10:00 BASE 11.46 4 13.17 3 2.2 99 2.0 125 303 981.2 NA 0.0000 9999 2690 0 0 0
2017/11/30 10:11:00 BASE 11.07 5 13.17 3 2.2 99 2.0 132 318 981.2 NA 0.0000 9999 2920 0 0 0
2017/11/30 10:12:00 BASE 11.29 5 13.12 2 2.2 99 2.1 135 323 981.2 NA 0.0000 9999 2950 0 0 0
2017/11/30 10:13:00 BASE 11.10 4 13.07 3 2.2 99 2.1 136 325 981.2 NA 0.0000 9999 2660 0 0 0
2017/11/30 10:14:00 BASE 11.09 4 13.07 3 2.2 99 2.1 131 315 981.2 NA 0.0000 9999 3220 0 0 0
2017/11/30 10:15:00 BASE 11.05 4 13.07 3 2.2 99 2.1 130 314 981.2 NA 0.0000 9999 2990 0 0 0
2017/11/30 10:16:00 BASE 10.78 6 12.91 4 2.3 99 2.1 131 319 981.2 NA 0.0000 9999 3020 0 0 0
2017/11/30 10:17:00 BASE 11.04 6 12.71 2 2.3 99 2.1 135 325 981.1 NA 0.0000 9999 3020 0 0 0
2017/11/30 10:18:00 BASE 11.37 6 12.60 5 2.3 99 2.2 129 313 981.1 NA 0.0000 9999 6270 0 0 0
2017/11/30 10:19:00 BASE 11.20 5 12.35 8 2.3 99 2.2 118 290 981.1 NA 0.0000 9999 4100 0 0 0
2017/11/30 10:20:00 BASE 11.16 5 12.35 8 2.3 99 2.2 109 273 981.1 NA 0.0000 9999 3740 21560 0 0
2017/11/30 10:21:00 BASE 11.48 5 12.45 4 2.4 99 2.2 107 269 981.1 NA 0.0000 9999 3180 0 0 0
2017/11/30 10:22:00 BASE 11.31 4 12.45 4 2.4 99 2.2 107 270 981.1 NA 0.0000 9999 3250 0 0 0
2017/11/30 10:23:00 BASE 10.85 4 12.45 4 2.4 98 2.2 106 268 981.1 NA 0.0000 9999 3310 4200 0 0
2017/11/30 10:24:00 BASE 11.09 6 12.55 6 2.4 98 2.1 103 263 981.1 NA 0.0000 9999 4790 0 0 0
2017/11/30 10:25:00 BASE 10.71 5 12.55 6 2.4 98 2.1 100 255 981.1 NA 0.0000 9999 4590 0 0 0
2017/11/30 10:26:00 BASE 10.25 5 12.55 6 2.4 98 2.1 96 247 981.1 NA 0.0000 9999 3840 4430 0 0
2017/11/30 10:27:00 BASE 10.77 6 12.55 6 2.4 98 2.1 93 240 981.0 NA 0.0000 9999 4330 0 0 0
2017/11/30 10:28:00 BASE 10.91 6 12.55 6 2.4 98 2.1 89 231 981.0 NA 0.0000 9999 3080 4360 22470 0
2017/11/30 10:29:00 BASE 10.93 5 12.55 6 2.5 98 2.1 84 220 981.0 NA 0.0000 9999 4430 0 0 0
2017/11/30 10:30:01 BASE 10.88 5 12.55 6 2.5 97 2.1 78 207 981.0 NA 0.0000 9999 4330 0 0 0
2017/11/30 10:31:00 BASE 10.53 7 12.55 6 2.5 97 2.1 73 194 981.0 NA 0.0000 9999 4270 0 0 0
2017/11/30 10:32:00 BASE 10.07 7 12.55 6 2.5 97 2.1 69 186 981.0 NA 0.0000 9999 4130 0 0 0
2017/11/30 10:33:00 BASE 9.90 8 12.55 6 2.5 97 2.1 68 184 981.0 NA 0.0000 9999 4270 0 0 0
2017/11/30 10:34:00 BASE 9.70 9 11.78 4 2.5 97 2.0 71 190 981.0 NA 0.0000 9999 4460 0 0 0
2017/11/30 10:35:00 BASE 10.16 8 11.78 4 2.5 96 2.0 78 204 981.0 NA 0.0000 9999 4270 0 0 0
2017/11/30 10:36:00 BASE 10.01 8 11.78 4 2.6 96 2.0 85 219 981.0 NA 0.0000 9999 4400 0 0 0
2017/11/30 10:37:00 BASE 9.71 8 11.78 4 2.6 96 2.0 91 234 981.0 NA 0.0000 9999 4270 0 0 0
2017/11/30 10:38:00 BASE 10.43 8 11.78 4 2.6 96 2.0 98 249 981.0 NA 0.0000 9999 4130 0 0 0
2017/11/30 10:39:00 BASE 10.69 9 11.83 12 2.6 96 2.0 101 255 980.9 NA 0.0000 9999 4330 0 0 0
2017/11/30 10:40:00 BASE 10.89 10 12.71 11 2.6 96 2.0 100 255 980.9 NA 0.0000 9999 3900 0 0 0
2017/11/30 10:41:00 BASE 10.66 10 12.71 11 2.6 96 2.0 97 248 980.9 NA 0.0000 9999 3740 0 0 0
2017/11/30 10:42:00 BASE 10.57 10 12.71 11 2.7 95 2.0 93 241 980.9 NA 0.0000 9999 0 0 0 5050
2017/11/30 10:43:00 BASE 10.73 11 12.71 11 2.7 95 2.0 91 237 980.8 NA 0.0000 9999 0 0 0 5050
2017/11/30 10:44:00 BASE 10.37 11 12.71 11 2.7 95 2.0 91 234 980.8 NA 0.0000 9999 1120 0 0 0
2017/11/30 10:45:00 BASE 10.40 11 12.71 11 2.8 94 1.9 90 233 980.8 NA 0.0000 9999 0 0 0 5090
2017/11/30 10:46:00 BASE 10.44 8 12.71 11 2.8 94 1.9 91 234 980.8 NA 0.0000 9999 0 0 0 4070
2017/11/30 10:47:00 BASE 10.30 7 12.71 11 2.8 94 1.9 94 242 980.8 NA 0.0000 UP 9999 1380 0 0 0
2017/11/30 10:48:00 BASE 10.26 7 12.71 11 2.8 94 1.9 99 254 980.8 NA 0.0000 UP 9999 0 0 0 4530
2017/11/30 10:49:00 BASE 9.95 6 12.71 11 2.8 94 1.9 105 266 980.8 NA 0.0000 UP 9999 22800 0 0 0
2017/11/30 10:50:00 BASE 10.28 6 12.55 16 2.8 94 1.9 109 276 980.8 NA 0.0000 UP 9999 0 0 0 4000
2017/11/30 10:51:00 BASE 10.56 5 12.55 16 2.8 94 1.9 111 280 980.8 NA 0.0000 UP 9999 0 0 0 4270
2017/11/30 10:52:00 BASE 10.67 4 12.55 16 2.8 94 1.9 107 271 980.8 NA 0.0000 UP 9999 0 0 0 4660
2017/11/30 10:53:00 BASE 11.11 3 12.35 1 2.8 93 1.8 101 260 980.8 NA 0.0000 UP 9999 920 0 0 0
2017/11/30 10:54:00 BASE 11.32 3 12.35 1 2.8 93 1.8 98 255 980.8 NA 0.0000 UP 9999 790 0 0 0
2017/11/30 10:55:00 BASE 11.44 3 12.35 1 2.8 93 1.8 94 245 980.9 NA 0.0000 UP 9999 0 0 0 4270
2017/11/30 10:56:00 BASE 11.19 3 12.35 1 2.8 93 1.7 87 230 980.9 NA 0.0000 UP 9999 0 0 0 4230
2017/11/30 10:57:00 BASE 10.95 3 12.35 1 2.7 93 1.8 82 218 980.9 NA 0.0000 UP 9999 0 0 0 4230
2017/11/30 10:58:00 BASE 11.26 4 12.35 1 2.7 93 1.8 79 212 980.9 NA 0.0000 UP 9999 0 0 0 3900
2017/11/30 10:59:00 BASE 11.60 3 12.35 1 2.7 94 1.8 80 214 980.9 NA 0.0000 UP 9999 790 0 0 0
2017/11/30 11:00:00 BASE 11.28 2 12.35 1 2.7 94 1.8 82 219 981.0 NA 0.0000 UP 9999 750 0 0 0
2017/11/30 11:01:00 BASE 11.10 3 12.40 1 2.7 94 1.8 83 224 981.0 NA 0.0000 UP 9999 0 0 0 3940
2017/11/30 11:02:00 BASE 10.82 1 12.40 1 2.7 94 1.8 82 222 981.0 NA 0.0000 UP 9999 0 0 0 4040
2017/11/30 11:03:00 BASE 10.75 1 12.40 1 2.7 94 1.8 80 219 981.0 NA 0.0000 UP 9999 0 0 0 3870
2017/11/30 11:04:00 BASE 10.99 0 12.40 1 2.7 94 1.8 80 219 981.0 NA 0.0000 UP 9999 3540 0 0 0
2017/11/30 11:05:00 BASE 10.82 359 12.40 1 2.6 94 1.8 81 222 981.0 NA 0.0000 UP 9999 3580 0 0 0
2017/11/30 11:06:00 BASE 10.93 4 12.40 1 2.6 94 1.8 84 228 980.9 NA 0.0000 UP 9999 3710 0 0 0
2017/11/30 11:07:00 BASE 11.09 5 12.40 3 2.6 94 1.8 87 233 980.9 NA 0.0000 UP 9999 4100 0 0 0
2017/11/30 11:08:00 BASE 11.01 6 12.40 3 2.7 94 1.8 87 232 980.9 NA 0.0000 UP 9999 3810 0 0 0
2017/11/30 11:09:00 BASE 10.77 5 12.40 3 2.7 94 1.8 84 226 980.9 NA 0.0000 UP 9999 4170 0 0 0
2017/11/30 11:10:00 BASE 10.87 5 12.40 3 2.7 94 1.8 83 222 980.8 NA 0.0000 UP 9999 4070 0 0 0
2017/11/30 11:11:00 BASE 10.65 7 12.40 3 2.7 94 1.8 84 224 980.9 NA 0.0000 UP 9999 4040 0 0 0
2017/11/30 11:12:00 BASE 10.30 8 12.40 3 2.7 94 1.8 88 232 980.9 NA 0.0000 UP 9999 4000 0 0 0
2017/11/30 11:13:00 BASE 10.42 4 12.40 3 2.7 94 1.8 93 246 980.9 NA 0.0000 UP 9999 4040 0 0 0
2017/11/30 11:14:00 BASE 9.98 4 12.40 3 2.7 94 1.8 98 256 980.9 NA 0.0000 UP 9999 3900 0 0 0
2017/11/30 11:15:00 BASE 9.60 8 12.40 3 2.7 93 1.8 101 262 980.9 NA 0.0000 UP 9999 3870 0 0 0
2017/11/30 11:16:00 BASE 9.84 4 12.40 3 2.7 93 1.7 103 268 980.9 NA 0.0000 UP 9999 3900 0 0 0
2017/11/30 11:17:00 BASE 9.78 2 12.09 8 2.7 93 1.7 107 277 980.8 NA 0.0000 UP 9999 3870 0 0 0
2017/11/30 11:18:00 BASE 9.57 4 11.83 6 2.7 93 1.8 112 289 980.8 NA 0.0000 UP 9999 3870 0 0 0
2017/11/30 11:19:00 BASE 9.82 7 11.83 6 2.7 93 1.8 116 299 980.8 NA 0.0000 UP 9999 3900 0 0 0
2017/11/30 11:20:00 BASE 10.16 10 11.83 6 2.8 93 1.8 115 298 980.8 NA 0.0000 UP 9999 0 0 0 4660
2017/11/30 11:21:00 BASE 10.56 6 12.55 7 2.8 93 1.8 109 287 980.8 NA 0.0000 UP 9999 3740 0 0 0
2017/11/30 11:22:00 BASE 11.16 6 12.96 3 2.8 93 1.8 105 278 980.8 NA 0.0000 UP 9999 3640 0 0 0
2017/11/30 11:23:00 BASE 11.38 5 12.96 3 2.8 93 1.7 105 280 980.7 NA 0.0000 UP 9999 3610 0 0 0
2017/11/30 11:24:00 BASE 11.21 5 12.96 3 2.7 93 1.7 108 288 980.7 NA 0.0000 UP 9999 3940 0 0 0
2017/11/30 11:25:00 BASE 11.38 6 12.96 3 2.7 93 1.7 109 290 980.7 NA 0.0000 UP 9999 3610 0 0 0
2017/11/30 11:26:00 BASE 12.10 5 13.48 6 2.7 93 1.7 106 284 980.7 NA 0.0000 UP 9999 3770 0 0 0
2017/11/30 11:27:00 BASE 12.82 3 13.99 2 2.7 93 1.7 100 272 980.7 NA 0.0000 UP 9999 3670 0 0 0
2017/11/30 11:28:00 BASE 12.97 2 13.99 2 2.7 93 1.7 97 266 980.7 NA 0.0000 UP 9999 3670 0 0 0
2017/11/30 11:29:00 BASE 12.58 3 13.99 2 2.7 93 1.7 94 258 980.7 NA 0.0000 UP 9999 3580 0 0 0
2017/11/30 11:30:00 BASE 12.46 3 13.99 2 2.6 93 1.6 91 254 980.7 NA 0.0000 UP 9999 3610 0 0 0
2017/11/30 11:31:00 BASE 12.50 2 13.99 2 2.6 93 1.6 88 249 980.7 NA 0.0000 UP 9999 3740 0 0 0
2017/11/30 11:32:00 BASE 12.69 2 13.99 2 2.6 93 1.6 88 251 980.7 NA 0.2540 UP 9999 3870 0 0 0
2017/11/30 11:33:00 BASE 12.88 2 13.99 2 2.5 94 1.6 90 256 980.8 NA 0.0000 UP 9999 920 0 0 0
2017/11/30 11:34:00 BASE 12.21 357 13.99 2 2.5 94 1.6 89 255 980.8 NA 0.0000 UP 9999 3840 0 0 0
2017/11/30 11:35:00 BASE 11.69 353 13.99 2 2.5 94 1.6 88 252 980.8 NA 0.0000 UP 9999 2790 23000 0 0
2017/11/30 11:36:00 BASE 11.48 355 13.99 2 2.5 94 1.6 90 255 980.8 NA 0.0000 UP 9999 2230 0 0 0
2017/11/30 11:37:00 BASE 11.16 355 13.68 131 2.5 94 1.6 89 254 980.9 NA 0.0000 UP 9999 2590 0 0 0
2017/11/30 11:38:00 BASE 11.16 356 13.68 131 2.4 95 1.7 93 263 980.9 NA 0.0000 UP 9999 2820 0 0 0
2017/11/30 11:39:00 BASE 11.05 357 13.68 131 2.4 95 1.7 93 260 981.0 NA 0.0000 UP 9999 3900 0 0 0
2017/11/30 11:40:00 BASE 10.67 354 13.68 131 2.4 95 1.7 87 246 981.0 NA 0.0000 UP 9999 0 0 0 3740
2017/11/30 11:41:00 BASE 10.71 352 13.68 131 2.5 95 1.7 84 239 981.0 NA 0.0000 UP 9999 620 0 0 0
2017/11/30 11:42:00 BASE 10.89 354 13.68 131 2.5 95 1.7 82 233 981.0 NA 0.0000 UP 9999 0 0 0 3580
2017/11/30 11:43:00 BASE 10.48 355 13.12 360 2.5 95 1.7 69 200 981.1 NA 0.0000 UP 9999 560 0 0 0
2017/11/30 11:44:00 BASE 10.23 351 12.50 354 2.5 94 1.7 67 195 981.1 NA 0.0000 UP 9999 390 21230 0 0
2017/11/30 11:45:00 BASE 10.24 350 12.45 2 2.4 94 1.6 71 207 981.1 NA 0.0000 UP 9999 430 0 0 0
2017/11/30 11:46:00 BASE 10.23 347 12.45 2 2.4 94 1.6 68 200 981.1 NA 0.0000 UP 9999 520 0 0 0
2017/11/30 11:47:00 BASE 10.80 348 12.24 360 2.4 95 1.6 67 196 981.0 NA 0.0000 UP 9999 490 0 0 0
2017/11/30 11:48:00 BASE 11.22 351 12.04 1 2.3 95 1.6 65 190 981.0 NA 0.0000 UP 9999 490 0 0 0
2017/11/30 11:49:00 BASE 11.35 350 12.86 311 2.3 95 1.6 64 184 981.0 NA 0.0000 UP 9999 0 0 0 2530
2017/11/30 11:50:00 BASE 11.74 351 12.96 360 2.4 95 1.6 61 176 980.9 NA 0.0000 UP 9999 0 0 0 2620
2017/11/30 11:51:00 BASE 12.26 349 14.15 6 2.3 95 1.6 62 177 980.8 NA 0.0000 UP 4700 430 0 0 0
2017/11/30 11:52:00 BASE 12.76 352 14.35 349 2.3 95 1.6 65 185 980.8 NA 0.0000 -SN BR 3500 330 0 0 0
2017/11/30 11:53:00 BASE 12.89 1 14.35 349 2.3 95 1.6 64 184 980.8 NA 0.0000 -SN BR 2800 0 0 0 2430
2017/11/30 11:54:00 BASE 13.20 4 14.87 3 2.2 96 1.6 72 205 980.7 NA 0.2540 -SN BR 2400 330 0 0 0
2017/11/30 11:55:00 BASE 13.98 3 15.23 360 2.1 96 1.5 85 236 980.6 NA 0.0000 -SN BR 2600 300 0 0 0
2017/11/30 11:56:00 BASE 14.76 1 16.46 353 2.0 97 1.5 85 234 980.6 NA 0.0000 -SN BR 2300 360 0 0 0
2017/11/30 11:57:00 BASE 15.68 358 16.98 354 1.9 97 1.5 90 246 980.5 NA 0.0000 -SN BR 2300 330 0 0 0
2017/11/30 11:58:00 BASE 15.60 358 16.98 354 1.9 98 1.5 90 248 980.6 NA 0.0000 -SN BR 2500 330 0 0 0
2017/11/30 11:59:00 BASE 14.68 1 16.98 354 1.8 98 1.5 100 270 980.7 NA 0.2540 -SN BR 2600 360 22050 0 0
2017/11/30 12:00:00 BASE 14.67 3 16.98 354 1.8 98 1.6 109 293 980.6 NA 0.0000 -SN BR 3200 360 0 0 0
2017/11/30 12:01:00 BASE 14.79 3 16.98 354 1.8 99 1.6 121 322 980.6 NA 0.0000 -SN BR 2200 360 0 0 0
2017/11/30 12:02:00 BASE 14.26 2 16.98 354 1.8 99 1.7 123 324 980.7 NA 0.0000 -SN BR 3000 390 1840 0 0
2017/11/30 12:03:00 BASE 13.86 3 16.98 354 1.8 100 1.8 118 314 980.7 NA 0.0000 -SN BR 9999 1540 0 0 0
2017/11/30 12:04:00 BASE 13.85 6 16.98 354 1.9 100 1.8 113 304 980.7 NA 0.0000 -SN BR 7000 2300 0 0 0
2017/11/30 12:05:00 BASE 13.20 7 16.98 354 1.9 100 1.9 115 312 980.7 NA 0.0000 -SN BR 9000 2170 0 0 0
2017/11/30 12:06:00 BASE 13.11 10 16.98 354 1.9 100 1.9 128 344 980.7 NA 0.0000 -SN BR 9999 1840 0 0 0
2017/11/30 12:07:00 BASE 13.28 13 16.57 3 1.9 100 1.9 137 366 980.8 NA 0.0000 -SN BR 9999 2130 0 0 0
2017/11/30 12:08:00 BASE 13.09 10 16.57 3 2.0 100 2.0 135 360 980.7 NA 0.0000 -SN BR 9999 2330 0 0 0
2017/11/30 12:09:00 BASE 12.89 6 16.31 4 2.0 100 2.0 127 340 980.8 NA 0.0000 -SN BR 9999 0 0 0 2850
2017/11/30 12:10:00 BASE 12.70 6 15.48 3 2.1 100 2.0 120 323 980.8 NA 0.0000 -SN BR 9999 20700 0 0 0
2017/11/30 12:11:00 BASE 12.95 5 15.28 2 2.1 100 2.1 114 310 980.8 NA 0.0000 -SN BR 9999 2330 0 0 0
2017/11/30 12:12:00 BASE 13.35 6 15.28 2 2.2 99 2.1 111 301 980.7 NA 0.0000 -SN 9000 2200 0 0 0
2017/11/30 12:13:00 BASE 13.89 4 15.90 1 2.2 99 2.1 117 316 980.7 NA 0.0000 -SN 7000 390 2130 0 0
2017/11/30 12:14:00 BASE 13.94 3 15.90 1 2.2 99 2.1 118 319 980.7 NA 0.0000 -SN 9999 2130 0 0 0
2017/11/30 12:15:00 BASE 13.22 5 15.90 1 2.3 99 2.1 110 299 980.8 NA 0.0000 -SN 9999 950 0 0 0
2017/11/30 12:16:00 BASE 12.55 3 15.90 1 2.3 98 2.0 103 285 980.8 NA 0.0000 -SN 9999 850 0 0 0
2017/11/30 12:17:00 BASE 12.96 1 15.90 1 2.3 98 2.0 108 300 980.8 NA 0.0000 -SN 9999 560 0 0 0
2017/11/30 12:18:00 BASE 12.86 2 15.90 1 2.3 98 1.9 114 314 980.9 NA 0.0000 -SN 9999 560 0 0 0
2017/11/30 12:19:00 BASE 12.53 1 15.90 1 2.3 98 1.9 118 323 980.9 NA 0.0000 -SN 9999 1020 0 0 0
2017/11/30 12:20:00 BASE 12.71 0 15.90 1 2.3 97 1.9 123 333 980.9 NA 0.0000 -SN 9999 790 0 0 0
2017/11/30 12:21:00 BASE 12.67 2 15.90 1 2.3 97 1.9 133 353 980.9 NA 0.0000 -SN 9999 890 20470 0 0
2017/11/30 12:22:00 BASE 13.24 1 15.90 1 2.3 97 1.8 140 368 980.8 NA 0.0000 -SN 9000 820 0 0 0
2017/11/30 12:23:00 BASE 13.75 1 14.92 1 2.2 97 1.7 149 388 980.8 NA 0.0000 -SN 5000 0 0 0 3120
2017/11/30 12:24:00 BASE 13.49 1 14.92 1 2.2 96 1.7 164 428 980.8 NA 0.0000 -SN 6000 0 0 0 2990
2017/11/30 12:25:00 BASE 13.27 2 14.92 1 2.2 96 1.7 168 439 980.8 NA 0.0000 -SN BR 6000 3640 0 0 0
2017/11/30 12:26:00 BASE 13.22 2 14.92 1 2.2 96 1.7 161 425 980.8 NA 0.0000 -SN BR 9999 3510 0 0 0
2017/11/30 12:27:00 BASE 12.83 358 14.92 1 2.2 96 1.7 156 412 980.9 NA 0.0000 -SN BR 9999 3580 0 0 0
2017/11/30 12:28:00 BASE 13.04 358 14.92 1 2.2 97 1.7 155 409 980.8 NA 0.0000 -SN BR 9999 3670 0 0 0
2017/11/30 12:29:00 BASE 13.78 2 14.92 1 2.2 97 1.7 159 419 980.7 NA 0.0000 -SN BR 9999 3710 0 0 0
2017/11/30 12:30:00 BASE 14.18 3 15.48 351 2.2 97 1.8 165 432 980.7 NA 0.0000 -SN BR 9999 3480 0 0 0
2017/11/30 12:31:00 BASE 14.32 5 16.00 6 2.2 97 1.8 176 457 980.7 NA 0.0000 -SN BR 9999 3610 0 0 0
2017/11/30 12:32:00 BASE 14.26 5 16.00 6 2.2 97 1.8 193 493 980.7 NA 0.0000 -SN 9999 3710 0 0 0
2017/11/30 12:33:00 BASE 14.47 5 16.10 3 2.3 97 1.8 217 546 980.7 NA 0.0000 -SN 9999 1800 2530 0 0
2017/11/30 12:34:00 BASE 13.99 3 16.10 3 2.3 97 1.9 253 622 980.7 NA 0.0000 -SN 9999 3540 20210 0 0
2017/11/30 12:35:00 BASE 14.22 3 16.41 5 2.3 97 1.9 295 711 980.5 NA 0.0000 -SN 9999 3770 0 0 0
2017/11/30 12:36:00 BASE 15.25 5 16.77 9 2.3 97 1.9 333 791 980.4 NA 0.0000 -SN 9999 3810 5680 0 0
2017/11/30 12:37:00 BASE 14.97 7 16.77 9 2.3 97 1.9 365 860 980.5 NA 0.0000 -SN 9999 5710 0 0 0
2017/11/30 12:38:00 BASE 14.53 6 16.77 9 2.3 97 1.9 379 889 980.6 NA 0.0000 -SN 9999 5770 21520 0 0
2017/11/30 12:39:00 BASE 14.70 4 16.77 9 2.3 97 1.9 427 990 980.6 NA 0.0000 -SN 9999 3870 5840 0 0
2017/11/30 12:40:00 BASE 14.92 3 16.77 9 2.4 97 1.9 422 970 980.6 NA 0.0000 9999 3940 6460 0 0
2017/11/30 12:41:00 BASE 15.40 0 16.77 9 2.4 96 1.9 548 1224 980.6 NA 0.0000 9999 4070 6590 0 0
2017/11/30 12:42:00 BASE 15.44 1 16.77 9 2.4 96 1.9 400 929 980.6 NA 0.0000 9999 6500 23160 0 0
2017/11/30 12:43:00 BASE 15.44 0 17.54 353 2.4 96 1.9 389 910 980.6 NA 0.0000 9999 6430 0 0 0
2017/11/30 12:44:00 BASE 15.64 1 17.54 353 2.5 96 1.9 367 864 980.7 NA 0.0000 9999 6370 0 0 0
2017/11/30 12:45:01 BASE 14.91 356 17.54 353 2.5 96 1.9 354 840 980.7 NA 0.0000 9999 6370 0 0 0
2017/11/30 12:46:00 BASE 14.80 355 17.54 353 2.5 96 1.9 330 788 980.7 NA 0.0000 9999 6330 0 0 0
2017/11/30 12:47:00 BASE 14.99 4 17.54 353 2.5 96 1.9 312 751 980.7 NA 0.0000 9999 6330 0 0 0
2017/11/30 12:48:00 BASE 14.98 3 17.54 353 2.5 96 1.9 296 717 980.8 NA 0.0000 9999 6370 0 0 0
2017/11/30 12:49:00 BASE 15.27 2 17.54 353 2.4 96 1.9 281 686 980.7 NA 0.0000 9999 3220 6370 0 0
2017/11/30 12:50:00 BASE 15.37 3 17.54 353 2.4 96 1.9 269 656 980.7 NA 0.0000 9999 2850 0 0 0
2017/11/30 12:51:00 BASE 15.53 2 17.54 353 2.4 97 1.9 265 643 980.7 NA 0.0000 9999 1310 3250 6400 0
2017/11/30 12:52:00 BASE 15.60 1 17.85 360 2.3 97 1.9 261 632 980.7 NA 0.0000 9999 3350 0 0 0
2017/11/30 12:53:00 BASE 15.30 2 17.85 360 2.3 97 1.9 277 667 980.8 NA 0.0000 9999 11220 0 0 0
2017/11/30 12:54:00 BASE 14.93 0 17.85 360 2.3 97 1.9 307 731 980.8 NA 0.0000 9999 1020 11160 0 0
2017/11/30 12:55:00 BASE 14.64 353 17.85 360 2.3 97 1.9 332 784 980.9 NA 0.0000 9999 1020 0 0 0
2017/11/30 12:56:00 BASE 14.48 356 17.85 360 2.3 98 1.9 428 987 980.9 NA 0.0000 9999 950 11290 0 0
2017/11/30 12:57:00 BASE 14.66 1 17.85 360 2.3 98 2.0 554 1267 980.9 NA 0.0000 9999 980 0 0 0
2017/11/30 12:58:00 BASE 14.38 360 17.85 360 2.4 98 2.1 562 1267 981.0 NA 0.0000 9999 850 0 0 0
2017/11/30 12:59:00 BASE 14.13 357 17.85 360 2.4 98 2.1 565 1282 980.9 NA 0.0000 9999 1080 0 0 0
2017/11/30 13:00:00 BASE 14.41 355 17.85 360 2.5 98 2.2 535 1229 981.0 NA 0.0000 9999 950 6300 0 0
2017/11/30 13:01:00 BASE 14.55 359 17.85 360 2.5 98 2.2 475 1100 980.9 NA 0.0000 9999 920 0 0 0
2017/11/30 13:02:00 BASE 14.52 2 16.20 3 2.5 98 2.2 484 1129 981.0 NA 0.0000 9999 1080 0 0 0
2017/11/30 13:03:00 BASE 15.02 2 16.41 4 2.5 98 2.2 439 1038 980.9 NA 0.0000 9999 1350 0 0 0
2017/11/30 13:04:00 BASE 15.25 3 16.41 4 2.4 98 2.1 407 970 981.0 NA 0.0000 9999 1280 6330 0 0
2017/11/30 13:05:00 BASE 14.68 359 16.41 4 2.4 98 2.1 376 909 981.0 NA 0.0000 9999 1120 6430 0 0
2017/11/30 13:06:00 BASE 14.62 0 16.41 4 2.4 98 2.1 353 853 981.0 NA 0.0000 9999 1020 0 0 0
2017/11/30 13:07:00 BASE 14.77 0 16.41 4 2.3 99 2.1 347 840 981.0 NA 0.0000 9999 1050 0 0 0
2017/11/30 13:08:00 BASE 14.50 360 16.41 4 2.3 99 2.2 356 860 981.0 NA 0.0000 9999 1210 6270 0 0
2017/11/30 13:09:00 BASE 14.52 0 16.41 4 2.3 99 2.2 377 900 981.0 NA 0.0000 9999 1180 0 0 0
2017/11/30 13:10:00 BASE 14.66 357 16.41 4 2.3 99 2.2 409 972 981.0 NA 0.0000 9999 6170 18930 0 0
2017/11/30 13:11:00 BASE 14.41 358 16.41 4 2.3 99 2.2 430 1007 981.0 NA 0.0000 9999 6330 22440 0 0
2017/11/30 13:12:00 BASE 14.51 357 16.41 4 2.3 99 2.2 448 1049 981.0 NA 0.0000 9999 6300 0 0 0
2017/11/30 13:13:00 BASE 14.72 358 16.62 3 2.4 99 2.2 404 947 981.0 NA 0.0000 9999 6270 0 0 0
2017/11/30 13:14:00 BASE 14.72 359 16.62 3 2.4 99 2.2 381 896 981.0 NA 0.0000 9999 6170 0 0 0
2017/11/30 13:15:00 BASE 14.91 1 16.62 3 2.4 99 2.2 389 912 981.0 NA 0.0000 9999 6230 0 0 0
2017/11/30 13:16:00 BASE 14.81 0 16.62 3 2.4 99 2.2 410 959 981.0 NA 0.0000 9999 6270 0 0 0
2017/11/30 13:17:00 BASE 14.49 357 16.62 3 2.3 99 2.2 421 986 981.0 NA 0.0000 9999 6140 0 0 0
2017/11/30 13:18:00 BASE 14.74 357 16.62 3 2.3 99 2.2 442 1034 981.0 NA 0.0000 9999 6270 0 0 0
2017/11/30 13:19:00 BASE 15.22 354 16.62 3 2.3 99 2.2 411 950 981.0 NA 0.0000 9999 6330 0 0 0
2017/11/30 13:20:00 BASE 15.73 355 17.44 1 2.3 99 2.2 444 1036 980.9 NA 0.0000 9999 6560 0 0 0
2017/11/30 13:21:00 BASE 16.10 356 17.44 1 2.3 99 2.1 389 909 981.0 NA 0.0000 9999 6500 0 0 0
2017/11/30 13:22:00 BASE 15.82 357 17.44 1 2.3 99 2.1 419 977 981.0 NA 0.0000 9999 6430 0 0 0
2017/11/30 13:23:00 BASE 15.55 0 17.44 1 2.3 99 2.1 433 1001 981.0 NA 0.0000 9999 6330 0 0 0
2017/11/30 13:24:00 BASE 15.96 0 17.44 1 2.2 99 2.1 531 1211 980.9 NA 0.0000 9999 6270 0 0 0
2017/11/30 13:25:00 BASE 16.07 1 17.44 1 2.2 99 2.1 468 1055 981.0 NA 0.0000 9999 6200 0 0 0
2017/11/30 13:26:00 BASE 16.28 2 17.44 1 2.2 99 2.1 784 1515 981.0 NA 0.0000 9999 6200 0 0 0
2017/11/30 13:27:00 BASE 16.08 5 17.44 1 2.2 100 2.2 811 1515 981.1 NA 0.0000 9999 6100 0 0 0
2017/11/30 13:28:00 BASE 15.15 3 17.44 1 2.2 100 2.2 737 1515 981.1 NA 0.0000 9999 6140 0 0 0
2017/11/30 13:29:00 BASE 15.21 0 17.44 1 2.2 100 2.2 553 1238 981.1 NA 0.0000 9999 6170 0 0 0
2017/11/30 13:30:00 BASE 15.97 1 17.23 5 2.3 100 2.3 633 1404 981.1 NA 0.0000 9999 6070 21030 0 0
2017/11/30 13:31:00 BASE 15.65 360 17.23 5 2.3 100 2.3 586 1306 981.1 NA 0.0000 9999 6230 0 0 0
2017/11/30 13:32:00 BASE 14.86 357 17.23 5 2.3 100 2.3 584 1299 981.1 NA 0.0000 9999 6070 0 0 0
2017/11/30 13:33:00 BASE 14.55 356 17.23 5 2.3 100 2.3 694 1514 981.2 NA 0.0000 9999 5870 19330 22510 0
2017/11/30 13:34:00 BASE 14.46 353 17.18 7 2.3 100 2.3 513 1158 981.2 NA 0.0000 9999 5510 0 0 0
2017/11/30 13:35:00 BASE 14.79 352 17.18 7 2.3 100 2.3 480 1089 981.2 NA 0.0000 9999 5640 0 0 0
2017/11/30 13:36:00 BASE 14.92 354 16.98 4 2.3 100 2.3 531 1187 981.2 NA 0.0000 9999 5740 0 0 0
2017/11/30 13:37:00 BASE 14.84 352 16.98 4 2.3 100 2.3 488 1108 981.3 NA 0.0000 9999 5810 0 0 0
2017/11/30 13:38:00 BASE 14.59 349 16.98 4 2.3 100 2.3 486 1098 981.2 NA 0.0000 9999 1180 5740 0 0
2017/11/30 13:39:00 BASE 14.30 353 16.98 4 2.3 100 2.3 445 1011 981.3 NA 0.0000 9999 5910 0 0 0
2017/11/30 13:40:00 BASE 14.11 357 16.57 353 2.3 100 2.2 474 1075 981.3 NA 0.0000 9999 6100 0 0 0
2017/11/30 13:41:00 BASE 14.59 358 16.57 353 2.2 100 2.2 620 1357 981.2 NA 0.0000 9999 820 5810 0 0
2017/11/30 13:42:00 BASE 15.31 358 17.18 18 2.2 100 2.2 823 1515 981.2 NA 0.0000 9999 1050 0 0 0
2017/11/30 13:43:00 BASE 15.28 355 17.18 18 2.2 100 2.2 1036 1515 981.2 NA 0.0000 9999 950 17420 0 0
2017/11/30 13:44:00 BASE 15.38 354 17.18 18 2.2 100 2.2 1085 1515 981.2 NA 0.0000 9999 660 1350 0 0
2017/11/30 13:45:00 BASE 16.01 351 17.18 18 2.2 100 2.1 702 1514 981.2 NA 0.0000 9999 660 6200 0 0
2017/11/30 13:46:00 BASE 16.15 350 17.29 348 2.2 100 2.1 690 1501 981.2 NA 0.0000 9999 620 0 0 0
2017/11/30 13:47:00 BASE 16.17 350 17.75 352 2.1 100 2.1 550 1243 981.2 NA 0.0000 9999 660 1440 0 0
2017/11/30 13:48:00 BASE 16.55 349 17.85 354 2.1 100 2.1 827 1515 981.3 NA 0.0000 9999 430 0 0 0
2017/11/30 13:49:00 BASE 16.59 348 17.85 354 2.1 100 2.0 621 1392 981.3 NA 0.0000 9999 430 23160 0 0
2017/11/30 13:50:00 BASE 16.53 345 17.85 354 2.0 100 2.0 461 1069 981.4 NA 0.0000 9999 390 21920 0 0
2017/11/30 13:51:00 BASE 15.83 343 17.85 354 2.0 100 2.0 511 1164 981.5 NA 0.0000 9999 430 0 0 0
2017/11/30 13:52:00 BASE 14.29 340 17.85 354 1.9 100 1.9 456 1054 981.6 NA 0.0000 9999 390 0 0 0
2017/11/30 13:53:00 BASE 13.33 338 17.85 354 1.9 100 1.9 857 1515 981.6 NA 0.0000 9999 560 20830 0 0
2017/11/30 13:54:00 BASE 13.48 339 17.85 354 1.9 100 1.9 552 1258 981.6 NA 0.0000 9999 590 0 0 0
2017/11/30 13:55:00 BASE 13.70 338 17.85 354 1.8 100 1.8 486 1127 981.6 NA 0.0000 9999 430 0 0 0
2017/11/30 13:56:00 BASE 13.97 338 17.85 354 1.8 100 1.8 479 1111 981.5 NA 0.0000 9999 390 20110 0 0
2017/11/30 13:57:00 BASE 13.51 336 17.85 354 1.7 100 1.7 425 1002 981.7 NA 0.0000 9999 390 0 0 0
2017/11/30 13:58:00 BASE 12.18 331 17.75 348 1.7 100 1.7 456 1071 981.8 NA 0.0000 9999 430 0 0 0
2017/11/30 13:59:00 BASE 12.57 327 17.75 348 1.6 100 1.6 425 1005 981.6 NA 0.0000 9999 390 0 0 0
2017/11/30 14:00:00 BASE 13.85 325 16.57 345 1.5 100 1.5 418 986 981.6 NA 0.0000 9999 360 0 0 0
2017/11/30 14:01:00 BASE 14.12 325 16.57 345 1.5 100 1.5 387 915 981.7 NA 0.0000 9999 390 0 0 0
2017/11/30 14:02:00 BASE 13.92 325 16.57 345 1.4 100 1.4 429 995 981.7 NA 0.0000 9999 390 0 0 0
2017/11/30 14:03:00 BASE 14.43 326 17.29 324 1.4 100 1.4 548 1240 981.6 NA 0.0000 9999 430 0 0 0
2017/11/30 14:04:00 BASE 13.83 327 17.29 324 1.3 100 1.3 460 1059 981.8 NA 0.0000 9999 390 0 0 0
2017/11/30 14:05:00 BASE 12.90 328 17.29 324 1.3 100 1.3 424 993 981.8 NA 0.0000 9999 390 0 0 0
2017/11/30 14:06:00 BASE 14.11 327 17.29 324 1.3 100 1.3 413 971 981.7 NA 0.0000 9999 360 0 0 0
2017/11/30 14:07:00 BASE 15.45 324 17.29 324 1.2 100 1.2 359 857 981.6 NA 0.0000 9999 300 0 0 0
2017/11/30 14:08:00 BASE 15.67 327 17.80 329 1.2 100 1.2 287 708 981.7 NA 0.0000 9999 300 0 0 0
2017/11/30 14:09:00 BASE 15.75 327 17.80 329 1.1 100 1.1 244 614 981.7 NA 0.0000 9999 330 0 0 0
2017/11/30 14:10:00 BASE 15.45 323 17.80 329 1.0 100 1.0 196 506 981.7 NA 0.0000 8000 330 0 0 0
2017/11/30 14:11:00 BASE 15.30 320 17.80 329 0.9 100 0.9 195 501 981.7 NA 0.0000 8000 360 0 0 0
2017/11/30 14:12:00 BASE 16.13 319 17.80 329 0.8 100 0.8 192 495 981.6 NA 0.0000 8000 360 0 0 0
2017/11/30 14:13:00 BASE 16.07 317 17.80 329 0.8 100 0.8 183 478 981.8 NA 0.0000 BR 8000 330 0 0 0
2017/11/30 14:14:00 BASE 14.79 316 17.80 329 0.7 100 0.7 180 468 981.9 NA 0.0000 BR 8000 330 0 0 0
2017/11/30 14:15:00 BASE 13.90 317 17.80 329 0.6 100 0.6 173 451 981.9 NA 0.0000 BR 7000 330 0 0 0
2017/11/30 14:16:00 BASE 13.66 317 17.80 329 0.6 100 0.6 164 428 981.9 NA 0.0000 BR 7000 330 0 0 0
2017/11/30 14:17:00 BASE 13.65 315 17.80 329 0.6 100 0.6 153 402 982.0 NA 0.0000 BR 7000 330 0 0 0
2017/11/30 14:18:00 BASE 13.67 316 17.75 320 0.5 100 0.5 152 397 982.0 NA 0.0000 BR 7000 360 0 0 0
2017/11/30 14:19:00 BASE 13.58 317 17.75 320 0.5 100 0.5 148 388 982.0 NA 0.0000 BR 7000 360 0 0 0
2017/11/30 14:20:00 BASE 13.88 316 17.75 320 0.5 100 0.5 150 393 982.0 NA 0.0000 BR 8000 360 0 0 0
2017/11/30 14:21:00 BASE 13.94 317 17.75 320 0.5 100 0.5 154 403 982.1 NA 0.0000 BR 8000 390 0 0 0
2017/11/30 14:22:00 BASE 13.62 319 17.29 313 0.4 100 0.4 154 403 982.1 NA 0.0000 BR 8000 390 0 0 0
2017/11/30 14:23:00 BASE 13.44 320 16.15 326 0.4 100 0.4 168 434 982.1 NA 0.0000 BR 8000 390 0 0 0
2017/11/30 14:24:00 BASE 13.95 320 16.15 326 0.3 100 0.3 178 459 982.1 NA 0.0000 BR 9000 460 0 0 0
2017/11/30 14:25:00 BASE 14.68 320 16.15 326 0.3 100 0.3 181 467 982.1 NA 0.0000 BR 8000 460 0 0 0
2017/11/30 14:26:00 BASE 14.43 319 16.15 326 0.3 100 0.3 175 452 982.2 NA 0.0000 BR 9000 460 0 0 0
2017/11/30 14:27:00 BASE 14.01 319 16.15 326 0.3 100 0.3 185 473 982.2 NA 0.0000 BR 9000 520 0 0 0
2017/11/30 14:28:00 BASE 14.06 321 15.95 323 0.3 100 0.3 212 532 982.2 NA 0.0000 BR 9000 660 19000 0 0
2017/11/30 14:29:00 BASE 14.45 324 17.08 329 0.3 100 0.3 223 559 982.2 NA 0.0000 BR 9000 720 0 0 0
2017/11/30 14:30:00 BASE 15.39 327 17.13 326 0.3 100 0.3 252 623 982.1 NA 0.0000 BR 9999 690 0 0 0
2017/11/30 14:31:00 BASE 15.60 329 17.13 326 0.3 100 0.3 241 598 982.2 NA 0.0000 BR 9999 690 20410 0 0
2017/11/30 14:32:00 BASE 14.72 331 17.13 326 0.3 100 0.3 214 541 982.2 NA 0.0000 BR 9999 590 0 0 0
2017/11/30 14:33:00 BASE 14.32 333 17.13 326 0.3 100 0.3 209 529 982.3 NA 0.0000 BR 9000 590 0 0 0
2017/11/30 14:34:00 BASE 14.18 333 17.13 326 0.3 100 0.3 216 545 982.3 NA 0.0000 BR 9000 520 0 0 0
2017/11/30 14:35:00 BASE 13.24 334 17.13 326 0.3 100 0.3 204 518 982.4 NA 0.0000 BR 9999 520 0 0 0
2017/11/30 14:36:00 BASE 13.45 336 17.13 326 0.3 100 0.3 177 457 982.3 NA 0.0000 BR 9000 460 0 0 0
2017/11/30 14:37:00 BASE 13.27 335 17.13 326 0.3 100 0.3 157 413 982.5 NA 0.0000 BR 9000 430 0 0 0
2017/11/30 14:38:00 BASE 12.20 336 17.13 326 0.3 100 0.3 150 397 982.6 NA 0.0000 BR 9999 520 0 0 0
2017/11/30 14:39:00 BASE 12.58 337 17.13 326 0.3 100 0.3 151 398 982.5 NA 0.0000 BR 9999 490 0 0 0
2017/11/30 14:40:00 BASE 12.56 335 16.98 335 0.3 100 0.3 150 395 982.6 NA 0.0000 BR 9000 490 0 0 0
2017/11/30 14:41:00 BASE 11.96 332 16.98 335 0.3 100 0.3 182 466 982.6 NA 0.0000 BR 9000 430 0 0 0
2017/11/30 14:42:00 BASE 11.76 336 16.98 335 0.3 100 0.3 184 471 982.6 NA 0.0000 BR 9000 520 0 0 0
2017/11/30 14:43:00 BASE 11.69 338 16.98 335 0.3 100 0.3 175 452 982.7 NA 0.0000 BR 9000 460 0 0 0
2017/11/30 14:44:00 BASE 11.65 337 16.98 335 0.3 100 0.3 167 433 982.7 NA 0.0000 BR 9000 490 0 0 0
2017/11/30 14:45:00 BASE 12.48 337 16.98 335 0.3 100 0.3 182 468 982.6 NA 0.0000 BR 9000 560 0 0 0
2017/11/30 14:46:00 BASE 13.88 339 15.64 346 0.3 100 0.3 166 433 982.6 NA 0.0000 BR 9999 460 0 0 0
2017/11/30 14:47:00 BASE 14.28 339 16.31 342 0.3 100 0.3 168 437 982.7 NA 0.0000 BR 9000 430 0 0 0
2017/11/30 14:48:00 BASE 13.10 339 16.31 342 0.3 100 0.3 164 426 982.8 NA 0.0000 BR 9999 430 0 0 0
2017/11/30 14:49:00 BASE 12.14 338 16.31 342 0.3 100 0.3 144 383 982.9 NA 0.0000 BR 9999 560 0 0 0
2017/11/30 14:50:00 BASE 12.17 335 16.31 342 0.3 100 0.3 146 386 982.9 NA 0.0000 BR 9000 430 0 0 0
2017/11/30 14:51:00 BASE 13.40 334 16.77 333 0.3 100 0.3 129 349 982.8 NA 0.0000 BR 9000 390 0 0 0
2017/11/30 14:52:00 BASE 14.33 338 16.77 333 0.3 100 0.3 114 311 982.9 NA 0.0000 BR 9000 390 0 0 0
2017/11/30 14:53:00 BASE 12.94 338 16.77 333 0.3 100 0.3 108 296 983.0 NA 0.0000 BR 8000 490 0 0 0
2017/11/30 14:54:00 BASE 12.50 336 16.77 333 0.3 100 0.3 110 302 983.0 NA 0.0000 BR 9999 560 0 0 0
2017/11/30 14:55:00 BASE 11.99 336 16.77 333 0.2 100 0.2 112 305 983.1 NA 0.0000 BR 9000 490 0 0 0
2017/11/30 14:56:00 BASE 10.55 335 16.77 333 0.2 100 0.2 109 298 983.2 NA 0.0000 BR 9000 460 19000 0 0
2017/11/30 14:57:00 BASE 10.75 334 16.77 333 0.2 100 0.2 116 314 983.2 NA 0.0000 BR 9000 430 0 0 0
2017/11/30 14:58:00 BASE 11.68 338 16.77 333 0.2 100 0.2 123 331 983.2 NA 0.0000 BR 9999 430 0 0 0
2017/11/30 14:59:00 BASE 11.93 341 16.77 333 0.2 100 0.2 124 335 983.2 NA 0.0000 BR 9000 430 0 0 0
2017/11/30 15:00:00 BASE 12.51 339 16.77 333 0.2 100 0.2 125 336 983.2 NA 0.0000 BR 9000 460 0 0 0
2017/11/30 15:01:00 BASE 12.62 339 15.84 336 0.2 100 0.2 126 339 983.3 NA 0.0000 BR 9000 560 0 0 0
2017/11/30 15:02:00 BASE 11.23 336 14.25 338 0.2 100 0.2 121 328 983.3 NA 0.0000 BR 9000 490 0 0 0
2017/11/30 15:03:00 BASE 11.14 331 14.25 338 0.2 100 0.2 117 319 983.3 NA 0.0000 BR 9999 520 0 0 0
2017/11/30 15:04:00 BASE 11.18 335 14.25 338 0.2 100 0.2 120 325 983.4 NA 0.0000 BR 9999 460 0 0 0
2017/11/30 15:05:00 BASE 10.95 340 14.25 338 0.2 100 0.2 124 336 983.4 NA 0.0000 BR 9999 590 0 0 0
2017/11/30 15:06:00 BASE 11.14 336 14.25 338 0.2 100 0.2 129 349 983.4 NA 0.0000 BR 9999 590 0 0 0
2017/11/30 15:07:00 BASE 11.05 334 14.25 338 0.2 100 0.2 126 345 983.4 NA 0.0000 BR 9999 620 0 0 0
2017/11/30 15:08:00 BASE 11.61 333 14.25 338 0.2 100 0.2 123 337 983.4 NA 0.0000 BR 9999 430 0 0 0
2017/11/30 15:09:00 BASE 11.54 333 14.25 338 0.2 100 0.2 121 333 983.5 NA 0.0000 BR 9999 460 0 0 0
2017/11/30 15:10:00 BASE 11.19 334 13.89 330 0.2 100 0.2 120 328 983.5 NA 0.0000 BR 9999 520 0 0 0
2017/11/30 15:11:00 BASE 11.78 335 13.89 330 0.2 100 0.2 119 328 983.5 NA 0.0000 9999 490 0 0 0
2017/11/30 15:12:00 BASE 11.85 334 13.89 330 0.2 100 0.2 109 305 983.6 NA 0.0000 9999 520 0 0 0
2017/11/30 15:13:00 BASE 11.16 335 13.89 330 0.2 100 0.2 103 289 983.7 NA 0.0000 9999 620 0 0 0
2017/11/30 15:14:00 BASE 11.31 338 13.89 330 0.2 100 0.2 100 282 983.7 NA 0.0000 9999 620 0 0 0
2017/11/30 15:15:00 BASE 11.78 336 13.89 330 0.2 100 0.2 94 268 983.7 NA 0.0000 9999 660 0 0 0
2017/11/30 15:16:00 BASE 11.67 335 13.89 330 0.2 100 0.2 90 257 983.8 NA 0.0000 9999 590 0 0 0
2017/11/30 15:17:00 BASE 10.92 336 13.89 330 0.2 100 0.2 84 244 983.9 NA 0.0000 9999 660 0 0 0
2017/11/30 15:18:00 BASE 10.58 335 13.89 330 0.2 100 0.2 83 240 983.8 NA 0.0000 9999 660 0 0 0
2017/11/30 15:19:00 BASE 11.08 336 13.89 330 0.2 100 0.2 81 234 983.9 NA 0.0000 9999 690 0 0 0
2017/11/30 15:20:00 BASE 11.13 336 13.63 333 0.1 100 0.1 81 235 983.9 NA 0.0000 9999 660 0 0 0
2017/11/30 15:21:00 BASE 11.12 332 13.63 333 0.1 100 0.1 82 238 984.0 NA 0.0000 9999 620 0 0 0
2017/11/30 15:22:00 BASE 10.97 332 13.63 333 0.1 100 0.1 81 235 984.1 NA 0.0000 9999 720 0 0 0
2017/11/30 15:23:00 BASE 10.07 334 13.63 333 0.1 100 0.1 82 239 984.1 NA 0.0000 9999 690 0 0 0
2017/11/30 15:24:00 BASE 9.93 332 13.38 332 0.1 100 0.1 84 244 984.1 NA 0.0000 9999 790 0 0 0
2017/11/30 15:25:00 BASE 10.21 332 13.38 332 0.1 100 0.1 86 249 984.2 NA 0.0000 9999 790 0 0 0
2017/11/30 15:26:00 BASE 10.02 334 13.38 332 0.1 100 0.1 88 254 984.2 NA 0.0000 9999 820 0 0 0
2017/11/30 15:27:00 BASE 10.05 332 13.38 332 0.1 100 0.1 88 256 984.3 NA 0.0000 9999 820 0 0 0
2017/11/30 15:28:00 BASE 9.60 329 12.35 333 0.1 100 0.1 91 262 984.4 NA 0.0000 9999 820 0 0 0
2017/11/30 15:29:00 BASE 9.72 332 12.35 333 0.1 100 0.1 91 262 984.3 NA 0.0000 9999 850 0 0 0
2017/11/30 15:30:00 BASE 10.17 333 12.30 328 0.1 100 0.1 91 264 984.3 NA 0.0000 9999 890 0 0 0
2017/11/30 15:31:00 BASE 10.18 331 12.30 328 0.1 100 0.1 91 264 984.4 NA 0.0000 9999 920 0 0 0
2017/11/30 15:32:00 BASE 10.16 332 12.30 328 0.1 100 0.1 89 258 984.4 NA 0.0000 9999 920 0 0 0
2017/11/30 15:33:00 BASE 9.67 335 12.30 328 0.1 100 0.1 87 255 984.5 NA 0.0000 9999 890 0 0 0
2017/11/30 15:34:00 BASE 9.42 332 12.30 328 0.1 100 0.1 88 257 984.5 NA 0.0000 9999 950 0 0 0
2017/11/30 15:35:00 BASE 9.56 327 12.30 328 0.2 100 0.2 90 261 984.5 NA 0.0000 9999 980 0 0 0
2017/11/30 15:36:00 BASE 9.97 323 13.07 321 0.2 100 0.2 89 258 984.5 NA 0.0000 9999 950 0 0 0
2017/11/30 15:37:00 BASE 10.06 321 13.07 321 0.2 100 0.2 89 259 984.6 NA 0.0000 9999 980 0 0 0
2017/11/30 15:38:00 BASE 9.78 324 13.07 321 0.2 100 0.2 89 257 984.6 NA 0.0000 9999 980 22540 0 0
2017/11/30 15:39:00 BASE 10.34 324 13.07 321 0.2 100 0.2 89 258 984.5 NA 0.0000 9999 950 0 0 0
2017/11/30 15:40:00 BASE 10.40 321 13.07 321 0.2 100 0.2 90 261 984.6 NA 0.0000 9999 950 0 0 0
2017/11/30 15:41:00 BASE 9.98 323 13.07 321 0.2 100 0.2 89 258 984.6 NA 0.0000 9999 980 0 0 0
2017/11/30 15:42:00 BASE 9.52 326 13.07 321 0.2 100 0.2 87 254 984.7 NA 0.0000 9999 980 0 0 0
2017/11/30 15:43:00 BASE 9.25 327 13.07 321 0.2 100 0.2 90 260 984.7 NA 0.0000 9999 980 0 0 0
2017/11/30 15:44:00 BASE 9.57 329 13.07 321 0.2 100 0.2 90 260 984.7 NA 0.0000 9999 950 0 0 0
2017/11/30 15:45:00 BASE 9.14 329 13.07 321 0.2 100 0.2 90 260 984.8 NA 0.0000 9999 980 0 0 0
2017/11/30 15:46:00 BASE 8.51 330 12.71 322 0.2 100 0.2 88 257 984.8 NA 0.0000 9999 980 0 0 0
2017/11/30 15:47:00 BASE 8.46 330 12.71 322 0.2 100 0.2 88 255 984.8 NA 0.0000 9999 980 0 0 0
2017/11/30 15:48:00 BASE 9.29 328 12.71 322 0.2 100 0.2 88 256 984.8 NA 0.0000 9999 980 0 0 0
2017/11/30 15:49:00 BASE 9.41 327 10.96 326 0.2 100 0.2 86 252 984.8 NA 0.0000 9999 980 0 0 0
2017/11/30 15:50:00 BASE 8.73 331 10.96 326 0.2 100 0.2 87 256 984.8 NA 0.0000 9999 950 0 0 0
2017/11/30 15:51:00 BASE 8.87 336 10.96 326 0.2 100 0.2 89 260 984.8 NA 0.0000 9999 980 0 0 0
2017/11/30 15:52:00 BASE 8.99 336 10.96 326 0.2 100 0.2 91 265 984.8 NA 0.0000 9999 980 0 0 0
2017/11/30 15:53:00 BASE 8.81 335 10.96 326 0.2 100 0.1 92 267 984.8 NA 0.0000 9999 950 0 0 0
2017/11/30 15:54:00 BASE 9.08 340 10.91 340 0.2 99 0.1 93 270 984.9 NA 0.0000 9999 890 0 0 0
2017/11/30 15:55:00 BASE 9.03 342 10.91 340 0.2 99 0.1 94 270 984.9 NA 0.0000 9999 890 0 0 0
2017/11/30 15:56:00 BASE 8.70 340 11.01 330 0.2 99 0.1 95 274 984.9 NA 0.0000 9999 920 0 0 0
2017/11/30 15:57:00 BASE 9.06 339 11.01 330 0.2 99 0.1 98 280 984.9 NA 0.0000 9999 890 0 0 0
2017/11/30 15:58:00 BASE 9.07 338 11.01 330 0.2 99 0.1 98 280 984.9 NA 0.0000 9999 850 0 0 0
2017/11/30 15:59:00 BASE 9.66 340 11.01 330 0.2 99 0.1 98 279 984.9 NA 0.0000 9999 890 0 0 0
2017/11/30 16:00:00 BASE 10.08 342 11.68 348 0.2 99 0.1 99 281 984.9 NA 0.0000 9999 850 0 0 0
2017/11/30 16:01:00 BASE 9.95 341 11.68 348 0.2 99 0.1 98 278 985.0 NA 0.0000 9999 850 0 0 0
2017/11/30 16:02:00 BASE 9.31 339 11.68 348 0.2 99 0.1 96 275 985.1 NA 0.0000 9999 820 0 0 0
2017/11/30 16:03:00 BASE 8.24 336 11.68 348 0.2 99 0.1 99 283 985.1 NA 0.0000 9999 850 0 0 0
2017/11/30 16:04:00 BASE 8.18 336 11.68 348 0.2 99 0.1 104 295 985.1 NA 0.0000 9999 850 0 0 0
2017/11/30 16:05:00 BASE 8.96 339 11.68 348 0.2 99 0.1 110 310 985.1 NA 0.0000 9999 890 0 0 0
2017/11/30 16:06:00 BASE 9.95 339 11.68 348 0.2 99 0.1 113 318 985.1 NA 0.0000 9999 890 0 0 0
2017/11/30 16:07:00 BASE 10.13 340 11.68 348 0.2 99 0.1 113 318 985.2 NA 0.0000 9999 850 21260 0 0
2017/11/30 16:08:00 BASE 9.38 339 11.68 348 0.2 99 0.1 113 320 985.2 NA 0.0000 9999 850 0 0 0
2017/11/30 16:09:00 BASE 9.10 338 11.68 348 0.2 99 0.1 111 314 985.2 NA 0.0000 9999 890 0 0 0
2017/11/30 16:10:00 BASE 9.17 340 11.32 332 0.2 99 0.1 113 318 985.3 NA 0.0000 9999 890 0 0 0
2017/11/30 16:11:00 BASE 8.64 339 11.32 332 0.2 99 0.1 114 323 985.3 NA 0.0000 9999 920 0 0 0
2017/11/30 16:12:00 BASE 8.54 334 11.32 332 0.2 99 0.1 118 333 985.4 NA 0.0000 9999 890 0 0 0
2017/11/30 16:13:00 BASE 8.63 328 11.32 332 0.2 99 0.1 119 338 985.3 NA 0.0000 9999 920 0 0 0
2017/11/30 16:14:00 BASE 8.33 330 11.32 332 0.2 99 0.1 119 338 985.4 NA 0.0000 9999 980 0 0 0
2017/11/30 16:15:00 BASE 8.31 335 11.32 332 0.2 99 0.1 119 337 985.4 NA 0.0000 9999 1020 0 0 0
2017/11/30 16:16:00 BASE 8.51 339 10.85 332 0.2 99 0.1 122 344 985.4 NA 0.0000 9999 950 0 0 0
2017/11/30 16:17:00 BASE 8.45 340 10.85 332 0.2 99 0.1 124 350 985.4 NA 0.0000 9999 1020 0 0 0
2017/11/30 16:18:00 BASE 8.28 334 10.55 283 0.3 99 0.1 129 360 985.4 NA 0.0000 9999 950 0 0 0
2017/11/30 16:19:00 BASE 8.20 334 9.98 339 0.3 99 0.1 137 378 985.5 NA 0.0000 9999 920 0 0 0
2017/11/30 16:20:00 BASE 8.15 335 9.88 337 0.3 99 0.1 149 407 985.5 NA 0.0000 9999 920 0 0 0
2017/11/30 16:21:00 BASE 8.30 332 9.88 337 0.3 99 0.1 144 395 985.5 NA 0.0000 9999 950 0 0 0
2017/11/30 16:22:00 BASE 7.80 334 9.88 337 0.3 99 0.1 137 379 985.6 NA 0.0000 9999 920 0 0 0
2017/11/30 16:23:00 BASE 7.26 332 9.88 337 0.2 99 0.1 138 381 985.6 NA 0.0000 9999 920 0 0 0
2017/11/30 16:24:00 BASE 7.37 328 9.88 337 0.2 99 0.1 140 385 985.6 NA 0.0000 9999 980 0 0 0
2017/11/30 16:25:00 BASE 7.25 328 9.88 337 0.2 99 0.1 138 381 985.7 NA 0.0000 9999 980 0 0 0
2017/11/30 16:26:00 BASE 7.30 331 9.41 333 0.2 99 0.1 138 381 985.7 NA 0.0000 9999 920 0 0 0
2017/11/30 16:27:00 BASE 7.80 336 9.41 333 0.3 99 0.1 138 382 985.7 NA 0.0000 9999 920 0 0 0
2017/11/30 16:28:00 BASE 8.05 337 9.41 333 0.3 99 0.1 132 370 985.7 NA 0.0000 9999 950 0 0 0
2017/11/30 16:29:00 BASE 8.10 336 9.41 328 0.3 99 0.1 134 375 985.7 NA 0.0000 9999 920 0 0 0
2017/11/30 16:30:00 BASE 8.42 335 9.93 330 0.3 99 0.1 150 414 985.7 NA 0.0000 9999 950 0 0 0
2017/11/30 16:31:00 BASE 8.49 333 9.93 330 0.3 99 0.1 168 458 985.7 NA 0.0000 9999 1080 2560 0 0
2017/11/30 16:32:00 BASE 8.14 335 9.93 330 0.3 99 0.1 181 488 985.7 NA 0.0000 9999 1180 2530 0 0
2017/11/30 16:33:00 BASE 8.10 338 9.93 330 0.3 99 0.1 196 522 985.7 NA 0.0000 9999 1150 2820 0 0
2017/11/30 16:34:00 BASE 8.13 339 9.93 330 0.3 99 0.1 217 568 985.8 NA 0.0000 9999 1210 0 0 0
2017/11/30 16:35:00 BASE 7.87 335 9.93 330 0.3 99 0.1 237 612 985.8 NA 0.0000 9999 3310 0 0 0
2017/11/30 16:36:00 BASE 7.65 330 9.93 330 0.3 99 0.1 261 662 985.8 NA 0.0000 9999 1280 3580 0 0
2017/11/30 16:37:00 BASE 7.72 330 9.93 330 0.3 99 0.2 282 708 985.8 NA 0.0000 9999 1480 3580 0 0
2017/11/30 16:38:00 BASE 8.34 330 10.08 328 0.3 99 0.2 296 738 985.8 NA 0.0000 9999 3610 0 0 0
2017/11/30 16:39:00 BASE 8.22 330 10.08 328 0.3 99 0.2 307 760 985.8 NA 0.0000 9999 1280 3640 0 0
2017/11/30 16:40:00 BASE 7.50 333 10.08 328 0.4 99 0.2 320 789 985.9 NA 0.0000 9999 1510 3640 0 0
2017/11/30 16:41:00 BASE 7.69 331 10.08 328 0.4 98 0.2 334 817 985.9 NA 0.0000 9999 3610 0 0 0
2017/11/30 16:42:00 BASE 7.65 329 10.08 328 0.4 98 0.2 350 853 985.9 NA 0.0000 9999 3710 0 0 0
2017/11/30 16:43:00 BASE 7.38 332 10.08 328 0.5 98 0.2 367 889 985.9 NA 0.0000 9999 3770 0 0 0
2017/11/30 16:44:00 BASE 7.37 331 10.08 328 0.5 98 0.2 389 936 985.9 NA 0.0000 9999 3740 23000 0 0
2017/11/30 16:45:00 BASE 7.24 330 10.08 328 0.5 98 0.2 419 1002 985.9 NA 0.0000 9999 1350 3670 0 0
2017/11/30 16:46:00 BASE 7.39 330 10.08 328 0.6 97 0.2 479 1124 985.9 NA 0.0000 9999 1350 0 0 0
2017/11/30 16:47:00 BASE 7.46 327 10.08 328 0.6 97 0.2 578 1324 985.9 NA 0.0000 9999 3770 0 0 0
2017/11/30 16:48:00 BASE 6.93 327 8.85 329 0.6 97 0.2 753 1515 985.9 NA 0.0000 9999 1380 3770 20380 0
2017/11/30 16:49:00 BASE 6.72 329 8.85 329 0.7 97 0.2 853 1514 985.9 NA 0.0000 9999 3870 22080 0 0
2017/11/30 16:50:00 BASE 6.76 326 8.85 329 0.7 96 0.2 775 1514 986.0 NA 0.0000 9999 4000 0 0 0
2017/11/30 16:51:00 BASE 6.38 320 8.49 321 0.8 96 0.2 819 1515 986.0 NA 0.0000 9999 1310 4270 0 0
2017/11/30 16:52:00 BASE 6.53 318 8.49 321 0.8 96 0.3 813 1515 986.0 NA 0.0000 9999 1670 4170 0 0
2017/11/30 16:53:00 BASE 7.33 319 8.49 321 0.9 96 0.3 782 1515 986.0 NA 0.0000 9999 1510 4490 9380 0
2017/11/30 16:54:00 BASE 7.75 318 8.49 321 0.9 96 0.3 807 1515 986.0 NA 0.0000 9999 9090 0 0 0
2017/11/30 16:55:00 BASE 7.52 315 8.49 321 1.0 96 0.3 937 1515 986.0 NA 0.0000 9999 1440 9060 19190 0
2017/11/30 16:56:00 BASE 7.43 316 8.49 321 1.0 95 0.3 806 1514 986.0 NA 0.0000 9999 1440 9120 0 0
2017/11/30 16:57:00 BASE 7.94 316 8.85 312 1.0 95 0.3 667 1472 986.0 NA 0.0000 9999 1510 9220 0 0
2017/11/30 16:58:00 BASE 8.29 317 8.95 321 1.0 95 0.3 856 1515 986.0 NA 0.0000 9999 1540 9290 0 0
2017/11/30 16:59:00 BASE 8.42 318 9.11 315 1.1 95 0.3 1085 1514 986.0 NA 0.0000 9999 1280 0 0 0
2017/11/30 17:00:00 BASE 8.92 316 9.83 314 1.1 94 0.3 1085 1515 986.0 NA 0.0000 9999 1440 0 0 0
2017/11/30 17:01:00 BASE 9.20 316 10.24 312 1.1 94 0.3 747 1515 986.0 NA 0.0000 9999 1480 0 0 0
2017/11/30 17:02:00 BASE 8.68 321 10.24 312 1.1 94 0.2 586 1306 986.0 NA 0.0000 9999 1410 0 0 0
2017/11/30 17:03:00 BASE 8.28 325 10.24 312 1.1 94 0.2 460 1052 986.1 NA 0.0000 9999 1410 0 0 0
2017/11/30 17:04:00 BASE 8.36 326 10.24 312 1.1 94 0.2 895 1515 986.1 NA 0.0000 9999 1570 0 0 0
2017/11/30 17:05:00 BASE 8.42 326 10.24 312 1.1 94 0.2 715 1514 986.1 NA 0.0000 9999 1510 0 0 0
2017/11/30 17:06:00 BASE 8.51 328 10.24 312 1.1 94 0.3 908 1515 986.1 NA 0.0000 9999 1540 0 0 0
2017/11/30 17:07:00 BASE 8.17 330 10.24 312 1.2 94 0.3 688 1515 986.1 NA 0.0000 9999 1510 0 0 0
2017/11/30 17:08:00 BASE 7.99 330 10.24 312 1.2 94 0.3 462 1067 986.1 NA 0.0000 9999 1570 0 0 0
2017/11/30 17:09:00 BASE 7.90 330 10.24 312 1.2 94 0.3 510 1173 986.2 NA 0.0000 9999 1640 0 0 0
2017/11/30 17:10:00 BASE 7.27 330 10.24 312 1.1 94 0.3 502 1148 986.2 NA 0.0000 9999 1570 0 0 0
2017/11/30 17:11:00 BASE 7.46 332 9.52 333 1.1 94 0.3 567 1270 986.2 NA 0.0000 9999 1510 0 0 0
2017/11/30 17:12:00 BASE 8.13 333 9.52 333 1.1 94 0.2 647 1444 986.2 NA 0.0000 9999 1540 0 0 0
2017/11/30 17:13:00 BASE 8.13 334 9.52 333 1.0 94 0.2 484 1099 986.2 NA 0.0000 9999 1540 0 0 0
2017/11/30 17:14:00 BASE 7.85 332 9.52 333 1.0 94 0.1 654 1456 986.3 NA 0.0000 9999 1570 0 0 0
2017/11/30 17:15:00 BASE 7.42 331 9.26 329 1.0 94 0.1 556 1255 986.3 NA 0.0000 9999 1670 0 0 0
2017/11/30 17:16:00 BASE 7.42 332 9.16 327 1.0 94 0.1 852 1515 986.3 NA 0.0000 9999 1540 0 0 0
2017/11/30 17:17:00 BASE 7.21 331 9.16 327 1.0 94 0.1 485 1108 986.3 NA 0.0000 9999 1610 0 0 0
2017/11/30 17:18:00 BASE 6.81 329 9.16 327 1.0 94 0.2 659 1464 986.3 NA 0.0000 9999 1540 0 0 0
2017/11/30 17:19:00 BASE 7.20 330 8.90 328 1.1 94 0.2 565 1274 986.3 NA 0.0000 9999 1540 0 0 0
2017/11/30 17:20:00 BASE 7.58 333 8.90 328 1.1 94 0.2 442 1021 986.3 NA 0.0000 9999 1540 0 0 0
2017/11/30 17:21:00 BASE 7.76 333 8.90 328 1.1 94 0.2 503 1149 986.3 NA 0.0000 9999 1540 0 0 0
2017/11/30 17:22:00 BASE 8.00 330 8.90 328 1.1 94 0.2 629 1404 986.3 NA 0.0000 9999 1440 0 0 0
2017/11/30 17:23:00 BASE 8.16 331 8.85 333 1.1 94 0.2 578 1287 986.3 NA 0.0000 9999 1310 0 0 0
2017/11/30 17:24:00 BASE 8.11 334 8.85 333 1.1 94 0.2 656 1460 986.3 NA 0.0000 9999 1610 0 0 0
2017/11/30 17:25:00 BASE 7.80 333 8.85 333 1.1 93 0.2 843 1515 986.3 NA 0.0000 9999 1510 22210 0 0
2017/11/30 17:26:00 BASE 7.57 332 8.85 333 1.1 93 0.1 500 1134 986.3 NA 0.0000 9999 1610 0 0 0
2017/11/30 17:27:00 BASE 7.70 333 8.85 333 1.1 93 0.1 414 963 986.3 NA 0.0000 9999 1670 0 0 0
2017/11/30 17:28:00 BASE 7.75 332 8.85 333 1.1 93 0.1 821 1515 986.4 NA 0.0000 9999 1410 1840 0 0
2017/11/30 17:29:00 BASE 7.54 332 8.85 333 1.1 93 0.1 758 1515 986.4 NA 0.0000 9999 1570 8690 0 0
2017/11/30 17:30:00 BASE 7.71 334 8.85 333 1.1 93 0.1 549 1228 986.4 NA 0.0000 9999 1640 22310 0 0
2017/11/30 17:31:00 BASE 7.69 334 8.85 333 1.1 93 0.1 561 1268 986.4 NA 0.0000 9999 1570 0 0 0
2017/11/30 17:32:00 BASE 7.51 332 8.85 333 1.1 93 0.1 629 1402 986.4 NA 0.0000 9999 1670 23070 0 0
2017/11/30 17:33:00 BASE 7.43 332 8.75 328 1.1 93 0.1 496 1127 986.4 NA 0.0000 9999 1640 0 0 0
2017/11/30 17:34:00 BASE 7.40 328 8.75 328 1.1 93 0.1 583 1333 986.5 NA 0.0000 9999 1770 8460 0 0
2017/11/30 17:35:00 BASE 7.89 326 8.75 327 1.2 93 0.2 428 993 986.5 NA 0.0000 9999 1840 8630 0 0
2017/11/30 17:36:00 BASE 8.05 326 8.75 327 1.2 93 0.2 445 1032 986.5 NA 0.0000 9999 1510 0 0 0
2017/11/30 17:37:00 BASE 7.81 326 8.75 327 1.1 93 0.1 505 1153 986.5 NA 0.0000 9999 1510 0 0 0
2017/11/30 17:38:00 BASE 7.72 329 8.75 327 1.1 93 0.1 485 1115 986.5 NA 0.0000 9999 1440 0 0 0
2017/11/30 17:39:00 BASE 8.15 328 9.47 320 1.1 93 0.1 407 952 986.5 NA 0.0000 9999 1480 0 0 0
2017/11/30 17:40:00 BASE 8.43 326 9.47 320 1.1 93 0.1 373 882 986.5 NA 0.0000 9999 1410 0 0 0
2017/11/30 17:41:00 BASE 8.16 326 9.47 320 1.1 93 0.1 361 859 986.5 NA 0.0000 9999 1440 0 0 0
2017/11/30 17:42:00 BASE 8.09 322 9.47 320 1.1 93 0.1 371 882 986.5 NA 0.0000 9999 1570 21290 0 0
2017/11/30 17:43:00 BASE 8.11 321 9.47 320 1.0 93 0.0 386 909 986.5 NA 0.0000 9999 1640 0 0 0
2017/11/30 17:44:00 BASE 8.01 322 9.47 320 1.0 93 0.0 370 875 986.6 NA 0.0000 9999 1480 0 0 0
2017/11/30 17:45:00 BASE 7.92 321 9.47 320 1.0 93 0.1 374 885 986.6 NA 0.0000 9999 1740 0 0 0
2017/11/30 17:46:00 BASE 8.23 321 9.47 320 1.0 93 0.1 388 915 986.6 NA 0.0000 9999 1570 0 0 0
2017/11/30 17:47:00 BASE 8.51 325 9.47 320 1.0 93 0.1 422 987 986.6 NA 0.0000 9999 1380 0 0 0
2017/11/30 17:48:00 BASE 8.09 327 9.47 320 1.0 94 0.1 431 1002 986.6 NA 0.0000 9999 1510 2070 0 0
2017/11/30 17:49:00 BASE 8.13 325 9.77 326 1.0 94 0.1 381 895 986.6 NA 0.0000 9999 1840 5150 0 0
2017/11/30 17:50:00 BASE 8.81 324 9.77 326 0.9 94 0.0 356 847 986.6 NA 0.0000 9999 1410 5050 0 0
2017/11/30 17:51:00 BASE 8.54 324 9.77 326 1.0 94 0.1 360 859 986.6 NA 0.0000 9999 1440 0 0 0
2017/11/30 17:52:00 BASE 8.25 326 9.77 326 1.0 94 0.1 391 923 986.6 NA 0.0000 9999 1350 0 0 0
2017/11/30 17:53:00 BASE 8.36 327 9.77 326 1.0 94 0.1 383 903 986.7 NA 0.0000 9999 1610 21920 0 0
2017/11/30 17:54:00 BASE 8.34 325 9.77 326 1.0 94 0.1 396 930 986.7 NA 0.0000 9999 1380 0 0 0
2017/11/30 17:55:00 BASE 8.16 326 9.77 326 1.0 94 0.2 395 930 986.7 NA 0.0000 9999 1440 0 0 0
2017/11/30 17:56:00 BASE 7.74 326 9.77 326 1.0 94 0.1 393 924 986.7 NA 0.0000 9999 1250 0 0 0
2017/11/30 17:57:00 BASE 7.50 324 9.77 326 1.0 94 0.1 390 919 986.7 NA 0.0000 9999 1350 0 0 0
2017/11/30 17:58:00 BASE 7.27 321 9.77 326 1.0 94 0.1 360 857 986.7 NA 0.0000 9999 1350 20640 0 0
2017/11/30 17:59:00 BASE 7.21 324 9.26 326 1.0 94 0.1 353 844 986.7 NA 0.0000 9999 1250 1800 0 0
2017/11/30 18:00:00 BASE 7.25 326 9.00 328 1.0 94 0.2 364 867 986.7 NA 0.0000 9999 1440 0 0 0
2017/11/30 18:01:00 BASE 7.10 322 9.00 328 1.0 94 0.2 358 851 986.7 NA 0.0000 9999 1280 0 0 0
2017/11/30 18:02:00 BASE 7.55 324 8.85 322 1.0 95 0.2 348 832 986.7 NA 0.0000 9999 1310 0 0 0
2017/11/30 18:03:00 BASE 8.27 327 9.00 329 1.0 95 0.3 361 859 986.7 NA 0.0000 9999 1280 0 0 0
2017/11/30 18:04:00 BASE 8.50 326 9.00 329 1.0 95 0.3 389 917 986.7 NA 0.0000 9999 1280 0 0 0
2017/11/30 18:05:00 BASE 8.30 326 9.00 329 1.0 95 0.2 396 928 986.7 NA 0.0000 9999 1280 0 0 0
2017/11/30 18:06:00 BASE 7.65 326 9.00 329 1.0 95 0.2 421 981 986.7 NA 0.0000 9999 1380 0 0 0
2017/11/30 18:07:00 BASE 7.24 324 9.00 329 0.9 94 0.1 457 1052 986.8 NA 0.0000 9999 1640 4630 0 0
2017/11/30 18:08:00 BASE 7.18 325 9.00 329 0.9 94 0.1 445 1023 986.8 NA 0.0000 9999 1710 5910 0 0
2017/11/30 18:09:00 BASE 6.93 328 9.00 329 1.0 95 0.2 452 1039 986.8 NA 0.0000 9999 4590 6000 0 0
2017/11/30 18:10:00 BASE 6.93 331 9.00 329 1.0 95 0.3 443 1014 986.7 NA 0.0000 9999 4560 5910 0 0
2017/11/30 18:11:00 BASE 6.98 332 9.00 329 1.0 95 0.3 456 1045 986.8 NA 0.0000 9999 5180 0 0 0
2017/11/30 18:12:01 BASE 7.38 331 9.00 329 1.0 95 0.3 436 1002 986.7 NA 0.0000 9999 6000 0 0 0
2017/11/30 18:13:00 BASE 7.73 329 8.90 324 1.0 95 0.3 424 976 986.7 NA 0.0000 9999 1440 6000 0 0
2017/11/30 18:14:00 BASE 7.63 330 8.59 325 1.1 94 0.3 450 1035 986.7 NA 0.0000 9999 1440 6040 0 0
2017/11/30 18:15:00 BASE 7.85 331 8.59 325 1.0 94 0.2 446 1023 986.7 NA 0.0000 9999 1510 6040 0 0
2017/11/30 18:16:00 BASE 7.85 330 8.59 325 1.0 94 0.2 449 1026 986.7 NA 0.0000 9999 1380 6170 0 0
2017/11/30 18:17:00 BASE 7.76 328 8.59 325 1.0 94 0.2 460 1055 986.7 NA 0.0000 9999 6170 0 0 0
2017/11/30 18:18:00 BASE 7.58 327 8.59 325 1.0 94 0.2 447 1021 986.8 NA 0.0000 9999 6070 0 0 0
2017/11/30 18:19:00 BASE 7.50 328 8.59 325 1.0 94 0.2 468 1062 986.7 NA 0.0000 9999 6140 0 0 0
2017/11/30 18:20:00 BASE 7.75 330 8.59 325 1.0 94 0.2 470 1069 986.7 NA 0.0000 9999 6200 0 0 0
2017/11/30 18:21:00 BASE 7.69 327 8.59 325 1.0 94 0.2 501 1141 986.8 NA 0.0000 9999 6170 0 0 0
2017/11/30 18:22:00 BASE 7.76 323 8.54 321 1.1 94 0.2 548 1248 986.7 NA 0.0000 9999 6270 0 0 0
2017/11/30 18:23:00 BASE 8.11 323 9.11 324 1.1 94 0.2 459 1043 986.8 NA 0.0000 9999 6170 0 0 0
2017/11/30 18:24:00 BASE 8.14 322 9.11 324 1.1 94 0.3 444 1014 986.8 NA 0.0000 9999 6270 0 0 0
2017/11/30 18:25:00 BASE 7.76 322 9.11 324 1.2 94 0.3 440 1006 986.8 NA 0.0000 9999 6170 0 0 0
2017/11/30 18:26:00 BASE 7.50 323 9.11 324 1.2 94 0.3 449 1024 986.8 NA 0.0000 9999 6200 0 0 0
2017/11/30 18:27:00 BASE 7.51 324 9.11 324 1.2 94 0.3 471 1070 986.8 NA 0.0000 9999 6330 0 0 0
2017/11/30 18:28:00 BASE 7.58 326 9.11 324 1.2 94 0.3 465 1057 986.8 NA 0.0000 9999 6300 0 0 0
2017/11/30 18:29:00 BASE 7.87 325 9.11 324 1.2 94 0.3 487 1110 986.8 NA 0.0000 9999 6140 0 0 0
2017/11/30 18:30:00 BASE 7.89 323 9.11 324 1.2 93 0.3 471 1069 986.8 NA 0.0000 9999 6330 0 0 0
2017/11/30 18:31:00 BASE 7.56 319 9.11 324 1.2 93 0.2 466 1061 986.9 NA 0.0000 9999 6370 0 0 0
2017/11/30 18:32:00 BASE 7.85 318 9.11 315 1.2 93 0.2 446 1021 986.9 NA 0.0000 9999 6400 20970 0 0
2017/11/30 18:33:00 BASE 7.80 320 9.11 315 1.2 93 0.2 441 1009 987.0 NA 0.0000 9999 4330 6560 0 0
2017/11/30 18:34:00 BASE 7.54 319 9.11 315 1.2 93 0.2 425 976 987.0 NA 0.0000 9999 4400 6630 0 0
2017/11/30 18:35:00 BASE 7.57 317 9.11 315 1.1 93 0.1 394 916 987.1 NA 0.0000 9999 4330 6660 0 0
2017/11/30 18:36:00 BASE 7.73 318 9.11 315 1.1 93 0.1 389 907 987.1 NA 0.0000 9999 4230 0 0 0
2017/11/30 18:37:00 BASE 8.16 319 9.11 315 1.1 93 0.1 388 905 987.1 NA 0.0000 9999 4330 0 0 0
2017/11/30 18:38:00 BASE 7.90 319 9.11 315 1.0 93 0.0 388 909 987.1 NA 0.0000 9999 1510 4400 0 0
2017/11/30 18:39:00 BASE 7.92 320 9.11 315 1.0 93 0.0 397 930 987.1 NA 0.0000 9999 1670 4360 0 0
2017/11/30 18:40:00 BASE 7.89 317 9.11 315 1.0 93 0.0 389 908 987.1 NA 0.0000 9999 1510 4360 0 0
2017/11/30 18:41:00 BASE 7.83 311 9.11 308 1.0 93 0.0 374 877 987.1 NA 0.0000 9999 1410 4400 0 0
2017/11/30 18:42:00 BASE 8.26 310 9.67 315 1.1 93 0.1 352 831 987.1 NA 0.0000 9999 1250 0 0 0
2017/11/30 18:43:01 BASE 8.13 311 9.67 315 1.1 93 0.1 365 860 987.1 NA 0.0000 9999 1310 20410 21130 0
2017/11/30 18:44:00 BASE 7.82 311 9.67 315 1.1 93 0.1 390 918 987.2 NA 0.0000 9999 1250 0 0 0
2017/11/30 18:45:00 BASE 7.75 311 9.67 315 1.1 93 0.1 396 922 987.1 NA 0.0000 9999 1180 0 0 0
2017/11/30 18:46:00 BASE 7.61 316 9.67 315 1.1 93 0.1 394 917 987.2 NA 0.0000 9999 1180 0 0 0
2017/11/30 18:47:00 BASE 7.74 320 9.67 315 1.1 93 0.1 376 872 987.2 NA 0.0000 9999 1150 0 0 0
2017/11/30 18:48:00 BASE 8.27 318 9.67 315 1.1 93 0.1 356 836 987.2 NA 0.0000 9999 1210 0 0 0
2017/11/30 18:49:00 BASE 8.27 319 9.67 315 1.1 93 0.1 356 835 987.2 NA 0.0000 9999 5510 6920 0 0
2017/11/30 18:50:00 BASE 7.99 318 9.67 315 1.1 93 0.1 355 833 987.2 NA 0.0000 9999 5380 0 0 0
2017/11/30 18:51:00 BASE 7.60 316 9.67 315 1.1 93 0.1 365 858 987.2 NA 0.0000 9999 5580 0 0 0
2017/11/30 18:52:01 BASE 7.24 313 9.00 316 1.1 93 0.1 366 859 987.3 NA 0.0000 9999 1120 5710 0 0
2017/11/30 18:53:00 BASE 7.17 313 9.00 316 1.1 94 0.2 369 863 987.3 NA 0.0000 9999 1080 0 0 0
2017/11/30 18:54:00 BASE 7.23 316 9.00 316 1.1 94 0.2 375 874 987.3 NA 0.0000 9999 1150 0 0 0
2017/11/30 18:55:00 BASE 7.31 319 9.00 316 1.1 94 0.2 318 753 987.3 NA 0.0000 9999 1120 0 0 0
2017/11/30 18:56:00 BASE 7.01 320 9.00 316 1.0 94 0.2 285 691 987.3 NA 0.0000 9999 1050 0 0 0
2017/11/30 18:57:00 BASE 6.88 318 9.00 316 1.0 94 0.2 275 669 987.3 NA 0.0000 9999 1050 0 0 0
2017/11/30 18:58:00 BASE 7.24 314 8.90 318 1.0 95 0.2 262 643 987.3 NA 0.0000 9999 1050 0 0 0
2017/11/30 18:59:00 BASE 7.34 309 8.90 318 0.9 95 0.2 254 626 987.3 NA 0.0000 9999 980 0 0 0
2017/11/30 19:00:00 BASE 6.92 307 8.18 313 0.9 95 0.2 258 637 987.3 NA 0.0000 9999 1050 0 0 0
2017/11/30 19:01:00 BASE 6.48 310 8.18 313 0.9 95 0.2 258 631 987.3 NA 0.0000 9999 1050 0 0 0
2017/11/30 19:02:00 BASE 6.75 310 8.18 313 0.9 95 0.2 239 590 987.3 NA 0.0000 9999 1150 0 0 0
2017/11/30 19:03:01 BASE 7.33 308 8.33 306 0.9 95 0.2 248 608 987.3 NA 0.0000 9999 980 0 0 0
2017/11/30 19:04:01 BASE 7.45 309 8.33 306 0.9 95 0.2 246 602 987.3 NA 0.0000 9999 1020 0 0 0
2017/11/30 19:05:00 BASE 7.33 307 8.33 306 0.9 95 0.2 248 609 987.3 NA 0.0000 9999 950 2330 0 0
2017/11/30 19:06:01 BASE 7.03 307 8.33 306 0.8 95 0.2 262 637 987.4 NA 0.0000 9999 1020 0 0 0
2017/11/30 19:07:01 BASE 7.00 309 8.33 306 0.8 95 0.2 266 645 987.4 NA 0.0000 9999 950 0 0 0
2017/11/30 19:08:00 BASE 6.85 311 8.33 306 0.8 96 0.2 263 638 987.4 NA 0.0000 9999 1050 0 0 0
2017/11/30 19:09:00 BASE 6.81 314 8.33 306 0.8 96 0.2 263 636 987.4 NA 0.0000 9999 980 6430 0 0
2017/11/30 19:10:00 BASE 7.04 312 8.33 306 0.8 96 0.3 266 643 987.4 NA 0.0000 9999 1050 6730 0 0
2017/11/30 19:11:00 BASE 6.93 311 8.33 306 0.9 96 0.3 266 641 987.4 NA 0.0000 9999 3840 0 0 0
2017/11/30 19:12:00 BASE 7.03 311 8.33 306 0.9 96 0.3 247 599 987.4 NA 0.0000 9999 3710 6990 0 0
2017/11/30 19:13:00 BASE 7.20 310 8.28 306 0.9 96 0.3 233 572 987.4 NA 0.0000 9999 1480 3840 0 0
2017/11/30 19:14:00 BASE 7.07 311 8.28 306 0.9 96 0.3 236 581 987.4 NA 0.0000 9999 1020 0 0 0
2017/11/30 19:15:00 BASE 6.71 314 8.28 306 0.9 96 0.3 235 579 987.4 NA 0.0000 9999 1120 3640 0 0
2017/11/30 19:16:00 BASE 6.74 317 8.28 306 0.9 96 0.3 229 568 987.5 NA 0.0000 9999 1020 6820 0 0
2017/11/30 19:17:01 BASE 7.00 318 7.97 306 0.8 96 0.3 216 540 987.5 NA 0.0000 9999 1020 3610 0 0
2017/11/30 19:18:00 BASE 7.66 316 9.26 315 0.8 96 0.3 213 535 987.4 NA 0.0000 9999 1120 3310 0 0
2017/11/30 19:19:01 BASE 7.86 314 9.26 315 0.8 96 0.2 218 545 987.5 NA 0.0000 9999 1210 0 0 0
2017/11/30 19:20:00 BASE 7.69 316 9.26 315 0.8 96 0.2 222 552 987.5 NA 0.0000 9999 980 3350 0 0
2017/11/30 19:21:01 BASE 7.98 318 9.26 315 0.8 96 0.2 220 548 987.5 NA 0.0000 9999 1250 1900 0 0
2017/11/30 19:22:00 BASE 7.98 320 9.26 315 0.8 96 0.2 217 540 987.5 NA 0.0000 9999 3150 0 0 0
2017/11/30 19:23:00 BASE 7.68 321 9.26 315 0.8 96 0.3 202 508 987.6 NA 0.0000 9999 3150 3710 0 0
2017/11/30 19:24:01 BASE 7.79 320 9.26 315 0.8 96 0.3 156 407 987.5 NA 0.0000 9999 3120 0 0 0
2017/11/30 19:25:00 BASE 8.16 324 9.26 315 0.8 96 0.3 135 360 987.6 NA 0.0000 9999 920 0 0 0
2017/11/30 19:26:00 BASE 8.17 328 9.26 315 0.8 96 0.3 134 360 987.6 NA 0.0000 9999 1020 0 0 0
2017/11/30 19:27:01 BASE 8.13 327 9.26 315 0.8 96 0.3 137 366 987.6 NA 0.0000 9999 920 0 0 0
2017/11/30 19:28:01 BASE 8.19 327 9.00 329 0.8 97 0.3 147 389 987.6 NA 0.0000 9999 920 0 0 0
2017/11/30 19:29:01 BASE 8.13 327 9.00 329 0.8 97 0.3 155 407 987.6 NA 0.0000 9999 850 0 0 0
2017/11/30 19:30:01 BASE 8.08 327 9.00 329 0.7 97 0.3 151 395 987.7 NA 0.0000 9999 1080 0 0 0
2017/11/30 19:31:01 BASE 7.98 325 9.00 329 0.7 97 0.3 160 416 987.7 NA 0.0000 9999 920 0 0 0
2017/11/30 19:32:01 BASE 7.54 325 9.00 329 0.7 97 0.3 165 426 987.7 NA 0.0000 9999 890 0 0 0
2017/11/30 19:33:01 BASE 7.60 325 9.00 329 0.7 97 0.3 168 436 987.7 NA 0.0000 9999 1020 0 0 0
2017/11/30 19:34:01 BASE 8.05 326 9.00 329 0.7 97 0.3 186 475 987.7 NA 0.0000 9999 950 0 0 0
2017/11/30 19:35:01 BASE 7.92 324 9.00 329 0.7 97 0.3 195 493 987.7 NA 0.0000 9999 950 0 0 0
2017/11/30 19:36:01 BASE 7.64 324 9.00 329 0.7 97 0.3 197 498 987.7 NA 0.0000 9999 1080 0 0 0
2017/11/30 19:37:01 BASE 7.83 327 9.00 329 0.7 97 0.3 203 509 987.7 NA 0.0000 9999 1150 0 0 0
2017/11/30 19:38:01 BASE 8.10 328 8.75 329 0.7 97 0.3 203 510 987.7 NA 0.0000 9999 1020 0 0 0
2017/11/30 19:39:01 BASE 8.00 327 8.75 329 0.6 97 0.3 196 494 987.8 NA 0.0000 9999 1020 0 0 0
2017/11/30 19:40:01 BASE 7.65 324 8.75 329 0.6 98 0.3 192 487 987.8 NA 0.0000 9999 980 0 0 0
2017/11/30 19:41:01 BASE 7.33 325 8.75 329 0.6 98 0.3 197 498 987.8 NA 0.0000 9999 1020 0 0 0
2017/11/30 19:42:01 BASE 7.44 326 8.75 329 0.7 98 0.4 193 488 987.8 NA 0.0000 9999 980 0 0 0
2017/11/30 19:43:01 BASE 7.77 323 8.75 329 0.7 98 0.4 195 492 987.8 NA 0.0000 9999 950 0 0 0
2017/11/30 19:44:01 BASE 7.49 323 8.75 329 0.7 98 0.4 207 517 987.8 NA 0.0000 9999 850 0 0 0
2017/11/30 19:45:01 BASE 7.09 325 8.75 329 0.7 98 0.4 214 530 987.8 NA 0.0000 9999 950 0 0 0
2017/11/30 19:46:01 BASE 6.82 327 8.75 329 0.7 98 0.4 217 535 987.8 NA 0.0000 9999 1050 0 0 0
2017/11/30 19:47:01 BASE 7.20 326 8.75 328 0.7 98 0.4 219 538 987.8 NA 0.0000 9999 1080 6500 0 0
2017/11/30 19:48:01 BASE 7.43 323 8.75 328 0.7 98 0.4 218 535 987.8 NA 0.0000 9999 6230 0 0 0
2017/11/30 19:49:01 BASE 6.96 322 8.75 328 0.7 98 0.4 213 525 987.9 NA 0.0000 9999 4660 6370 0 0
2017/11/30 19:50:01 BASE 7.15 320 8.75 328 0.7 98 0.4 210 517 987.8 NA 0.0000 9999 1120 6500 0 0
2017/11/30 19:51:01 BASE 7.35 319 8.75 328 0.7 98 0.4 207 512 987.9 NA 0.0000 9999 1020 0 0 0
2017/11/30 19:52:01 BASE 7.37 319 8.75 328 0.7 98 0.4 204 505 987.9 NA 0.0000 9999 1180 6370 0 0
2017/11/30 19:53:01 BASE 7.16 318 8.75 328 0.6 98 0.4 209 514 987.9 NA 0.0000 9999 1020 0 0 0
2017/11/30 19:54:01 BASE 6.67 319 8.75 328 0.6 98 0.3 207 510 987.9 NA 0.0000 9999 1280 6530 0 0
2017/11/30 19:55:01 BASE 6.87 319 8.75 328 0.6 98 0.3 207 509 987.9 NA 0.0000 9999 1120 6400 0 0
2017/11/30 19:56:01 BASE 7.45 319 8.75 328 0.6 98 0.3 202 497 987.9 NA 0.0000 9999 1210 6500 0 0
2017/11/30 19:57:01 BASE 7.41 318 8.28 318 0.6 98 0.3 196 484 987.9 NA 0.0000 9999 6500 0 0 0
2017/11/30 19:58:01 BASE 6.71 320 8.28 318 0.6 98 0.3 187 467 987.9 NA 0.0000 9999 1120 6460 0 0
2017/11/30 19:59:01 BASE 6.32 321 8.28 318 0.6 98 0.3 179 452 987.9 NA 0.0000 9999 1050 6560 0 0
2017/11/30 20:00:01 BASE 6.51 318 8.28 318 0.6 98 0.3 168 429 987.9 NA 0.0000 9999 1050 0 0 0
2017/11/30 20:01:01 BASE 6.38 318 8.28 318 0.6 98 0.3 167 427 987.9 NA 0.0000 9999 1050 0 0 0
2017/11/30 20:02:01 BASE 6.32 319 8.28 318 0.6 98 0.3 170 432 988.0 NA 0.0000 9999 980 0 0 0
2017/11/30 20:03:01 BASE 6.33 319 8.28 318 0.6 98 0.3 169 430 988.0 NA 0.0000 9999 1080 0 0 0
2017/11/30 20:04:01 BASE 6.17 322 8.28 318 0.6 98 0.3 173 437 988.0 NA 0.0000 9999 980 0 0 0
2017/11/30 20:05:01 BASE 6.79 324 8.28 318 0.6 98 0.3 173 437 987.9 NA 0.0000 9999 1020 0 0 0
2017/11/30 20:06:01 BASE 7.39 324 8.28 318 0.6 98 0.4 174 441 988.0 NA 0.0000 9999 1020 0 0 0
2017/11/30 20:07:01 BASE 6.99 324 7.82 318 0.7 98 0.4 183 459 988.0 NA 0.0000 9999 950 0 0 0
2017/11/30 20:08:01 BASE 6.70 324 7.82 318 0.7 98 0.4 187 467 988.0 NA 0.0000 9999 1120 0 0 0
2017/11/30 20:09:01 BASE 6.63 324 7.82 318 0.7 98 0.4 185 462 988.0 NA 0.0000 9999 1120 23620 0 0
2017/11/30 20:10:01 BASE 6.57 321 7.82 318 0.7 98 0.4 185 463 988.0 NA 0.0000 9999 1050 0 0 0
2017/11/30 20:11:01 BASE 6.85 320 7.82 318 0.7 98 0.4 190 471 988.0 NA 0.0000 9999 1080 0 0 0
2017/11/30 20:12:01 BASE 6.90 320 7.82 318 0.7 98 0.4 196 486 988.0 NA 0.0000 9999 1080 0 0 0
2017/11/30 20:13:01 BASE 6.39 323 7.82 318 0.7 98 0.4 206 505 987.9 NA 0.0000 9999 1020 0 0 0
2017/11/30 20:14:01 BASE 6.22 328 7.82 318 0.7 98 0.4 210 512 988.0 NA 0.0000 9999 1050 6660 0 0
2017/11/30 20:15:01 BASE 6.78 327 7.82 326 0.7 98 0.4 209 511 988.0 NA 0.0000 9999 6560 0 0 0
2017/11/30 20:16:01 BASE 6.85 323 7.82 326 0.7 98 0.4 209 509 988.0 NA 0.0000 9999 6530 21590 0 0
2017/11/30 20:17:01 BASE 6.62 318 7.82 326 0.7 98 0.4 207 506 988.0 NA 0.0000 9999 1280 6660 0 0
2017/11/30 20:18:01 BASE 6.52 316 7.82 326 0.7 98 0.4 204 499 988.0 NA 0.0000 9999 5120 6560 0 0
2017/11/30 20:19:01 BASE 6.37 319 7.82 326 0.6 98 0.3 202 494 988.0 NA 0.0000 9999 4990 0 0 0
2017/11/30 20:20:01 BASE 6.20 322 7.82 326 0.6 98 0.3 200 489 988.0 NA 0.0000 9999 4630 5090 0 0
2017/11/30 20:21:01 BASE 6.34 326 7.82 326 0.6 98 0.3 196 481 988.0 NA 0.0000 9999 5020 0 0 0
2017/11/30 20:22:01 BASE 6.84 327 7.82 326 0.6 98 0.3 191 469 988.0 NA 0.0000 9999 5090 0 0 0
2017/11/30 20:23:01 BASE 6.92 325 7.82 326 0.6 98 0.3 187 461 988.0 NA 0.0000 9999 4990 0 0 0
2017/11/30 20:24:01 BASE 6.61 324 7.82 326 0.6 98 0.3 185 456 988.0 NA 0.0000 9999 5050 0 0 0
2017/11/30 20:25:01 BASE 6.47 325 7.41 327 0.6 98 0.3 183 451 988.0 NA 0.0000 9999 4990 6500 0 0
2017/11/30 20:26:01 BASE 6.53 324 7.41 324 0.6 98 0.3 180 446 988.0 NA 0.0000 9999 5090 6430 0 0
2017/11/30 20:27:01 BASE 6.50 322 7.41 324 0.6 98 0.3 178 441 988.1 NA 0.0000 9999 5050 6040 0 0
2017/11/30 20:28:01 BASE 6.07 322 7.41 324 0.6 98 0.3 174 433 988.1 NA 0.0000 9999 5090 0 0 0
2017/11/30 20:29:01 BASE 5.84 322 7.41 324 0.6 97 0.3 170 425 988.1 NA 0.0000 9999 4820 0 0 0
2017/11/30 20:30:01 BASE 5.71 324 7.41 324 0.7 97 0.3 168 421 988.2 NA 0.0000 9999 5090 0 0 0
2017/11/30 20:31:01 BASE 5.63 323 7.41 324 0.7 97 0.2 168 420 988.2 NA 0.0000 9999 5150 5940 0 0
2017/11/30 20:32:01 BASE 5.50 323 7.41 324 0.7 97 0.2 168 419 988.2 NA 0.0000 9999 5870 0 0 0
2017/11/30 20:33:01 BASE 5.51 326 7.41 324 0.7 97 0.2 167 416 988.2 NA 0.0000 9999 5220 0 0 0
2017/11/30 20:34:01 BASE 5.34 327 7.41 324 0.6 97 0.2 164 411 988.2 NA 0.0000 9999 5090 5840 0 0
2017/11/30 20:35:01 BASE 4.64 330 7.41 324 0.6 97 0.2 163 408 988.2 NA 0.0000 9999 5020 5640 0 0
2017/11/30 20:36:01 BASE 4.47 335 7.05 323 0.6 97 0.2 165 411 988.2 NA 0.0000 9999 4990 0 0 0
2017/11/30 20:37:01 BASE 4.45 336 6.43 323 0.6 97 0.2 166 413 988.2 NA 0.0000 9999 5680 6530 0 0
2017/11/30 20:38:01 BASE 4.37 333 6.43 323 0.6 97 0.2 165 411 988.2 NA 0.0000 9999 6270 0 0 0
2017/11/30 20:39:01 BASE 4.48 335 6.38 322 0.7 97 0.2 163 407 988.2 NA 0.0000 9999 5870 6270 0 0
2017/11/30 20:40:01 BASE 4.60 339 6.38 322 0.7 97 0.2 161 402 988.3 NA 0.0000 9999 5710 0 0 0
2017/11/30 20:41:01 BASE 4.83 336 6.28 326 0.7 97 0.3 159 397 988.3 NA 0.0000 9999 5640 6300 0 0
2017/11/30 20:42:01 BASE 5.02 335 6.28 326 0.7 97 0.2 158 395 988.3 NA 0.0000 9999 5680 6140 0 0
2017/11/30 20:43:01 BASE 5.20 336 5.92 344 0.7 97 0.2 157 393 988.3 NA 0.0000 9999 5540 0 0 0
2017/11/30 20:44:01 BASE 5.49 334 5.92 344 0.7 96 0.2 155 388 988.3 NA 0.0000 9999 6300 0 0 0
2017/11/30 20:45:01 BASE 5.39 330 5.92 344 0.7 96 0.2 153 382 988.3 NA 0.0000 9999 6200 0 0 0
2017/11/30 20:46:01 BASE 4.90 329 5.92 344 0.7 96 0.2 150 377 988.3 NA 0.0000 9999 5940 0 0 0
2017/11/30 20:47:01 BASE 4.73 327 5.92 344 0.7 96 0.2 149 373 988.3 NA 0.0000 9999 5910 0 0 0
2017/11/30 20:48:01 BASE 4.56 327 5.92 344 0.8 96 0.2 147 370 988.3 NA 0.0000 9999 6040 0 0 0
2017/11/30 20:49:01 BASE 4.24 333 5.92 344 0.8 96 0.2 146 367 988.4 NA 0.0000 9999 5640 0 0 0
2017/11/30 20:50:01 BASE 4.55 335 5.92 344 0.8 96 0.2 145 365 988.4 NA 0.0000 9999 6000 0 0 0
2017/11/30 20:51:01 BASE 4.97 331 5.92 344 0.8 96 0.2 146 366 988.4 NA 0.0000 9999 5580 0 0 0
2017/11/30 20:52:01 BASE 4.89 331 5.92 344 0.8 95 0.1 147 368 988.4 NA 0.0000 9999 5970 0 0 0
2017/11/30 20:53:01 BASE 4.86 335 5.86 330 0.8 95 0.1 148 370 988.4 NA 0.0000 9999 5970 0 0 0
2017/11/30 20:54:01 BASE 4.92 334 5.71 327 0.8 95 0.1 149 372 988.4 NA 0.0000 9999 5910 0 0 0
2017/11/30 20:55:01 BASE 4.66 334 5.71 327 0.8 95 0.1 150 373 988.4 NA 0.0000 9999 5840 0 0 0
2017/11/30 20:56:01 BASE 4.33 332 5.71 327 0.9 94 0.1 150 374 988.4 NA 0.0000 9999 5580 6530 0 0
2017/11/30 20:57:01 BASE 4.80 330 6.28 331 0.9 94 0.0 151 376 988.4 NA 0.0000 9999 6430 0 0 0
2017/11/30 20:58:01 BASE 5.55 329 6.28 331 0.9 94 -0.0 151 376 988.4 NA 0.0000 9999 5840 6300 0 0
2017/11/30 20:59:01 BASE 5.56 330 6.28 331 0.9 94 -0.1 151 374 988.4 NA 0.0000 9999 6330 17780 0 0
2017/11/30 21:00:01 BASE 5.24 330 6.28 331 0.8 93 -0.1 149 371 988.4 NA 0.0000 9999 6590 0 0 0
2017/11/30 21:01:01 BASE 5.21 327 6.28 331 0.8 93 -0.2 148 367 988.4 NA 0.0000 9999 5610 6430 0 0
2017/11/30 21:02:01 BASE 5.07 327 6.28 331 0.9 92 -0.2 146 364 988.4 NA 0.0000 9999 5540 0 0 0
2017/11/30 21:03:01 BASE 5.11 327 6.28 331 0.9 92 -0.2 145 362 988.4 NA 0.0000 9999 5350 0 0 0
2017/11/30 21:04:01 BASE 5.49 326 6.28 331 0.9 92 -0.3 145 360 988.4 NA 0.0000 9999 6300 0 0 0
2017/11/30 21:05:01 BASE 5.69 324 6.58 320 0.9 92 -0.3 144 358 988.4 NA 0.0000 9999 4230 0 0 0
2017/11/30 21:06:01 BASE 5.58 323 6.58 320 0.9 92 -0.3 143 356 988.4 NA 0.0000 9999 4230 6500 0 0
2017/11/30 21:07:01 BASE 5.32 322 6.58 320 0.9 92 -0.3 142 355 988.4 NA 0.0000 9999 4170 6500 0 0
2017/11/30 21:08:01 BASE 5.42 322 6.58 320 0.9 92 -0.2 142 353 988.4 NA 0.0000 9999 4100 5770 0 0
2017/11/30 21:09:01 BASE 5.43 324 6.58 320 0.9 92 -0.2 141 352 988.4 NA 0.0000 9999 4130 5770 6400 0
2017/11/30 21:10:01 BASE 5.53 324 6.58 320 0.9 93 -0.1 142 352 988.4 NA 0.0000 9999 4330 6400 0 0
2017/11/30 21:11:01 BASE 5.76 324 6.58 320 0.9 93 -0.1 142 354 988.5 NA 0.0000 9999 4720 6330 0 0
2017/11/30 21:12:01 BASE 5.54 326 6.58 320 0.9 93 -0.1 143 355 988.5 NA 0.0000 9999 4690 5840 6400 0
2017/11/30 21:13:01 BASE 5.11 324 6.58 320 0.9 93 -0.1 143 354 988.5 NA 0.0000 9999 5970 0 0 0
2017/11/30 21:14:01 BASE 4.89 325 6.58 320 0.9 92 -0.2 142 351 988.5 NA 0.0000 9999 6530 0 0 0
2017/11/30 21:15:01 BASE 5.12 323 6.33 327 0.9 92 -0.2 141 350 988.5 NA 0.0000 9999 5940 6460 0 0